Time,TemperatureF,DewpointF,PressureIn,WindDirection,WindDirectionDegrees,WindSpeedMPH,WindSpeedGustMPH,Humidity,HourlyPrecipIn,Conditions,Clouds,dailyrainin,SoftwareType,DateUTC
2013-10-28 00:00:00,63.1,59.5,29.98,SE,132,1.0,3.0,88,0.00,,SKC,0.22,VWS V14.01,2013-10-28 05:00:00,
2013-10-28 00:01:00,62.9,59.3,29.98,SSE,153,3.0,4.0,88,0.00,,SKC,0.22,VWS V14.01,2013-10-28 05:01:00,
2013-10-28 00:02:00,63.1,59.5,29.98,SE,138,8.0,9.0,88,0.00,,SKC,0.22,VWS V14.01,2013-10-28 05:02:00,
2013-10-28 00:03:00,63.1,59.5,29.99,ESE,118,3.0,8.0,88,0.00,,SKC,0.22,VWS V14.01,2013-10-28 05:03:00,
2013-10-28 00:04:00,63.1,59.5,29.99,SE,143,0.0,9.0,88,0.00,,SKC,0.22,VWS V14.01,2013-10-28 05:04:00,
2013-10-28 00:05:00,63.1,59.5,29.98,SE,142,1.0,3.0,88,0.00,,SKC,0.22,VWS V14.01,2013-10-28 05:05:00,
2013-10-28 00:06:00,62.9,59.3,29.97,SSE,166,5.0,5.0,88,0.00,,SKC,0.00,VWS V14.01,2013-10-28 05:06:00,
2013-10-28 00:07:00,63.1,59.5,29.99,SSE,150,4.0,10.0,88,0.00,,SKC,0.22,VWS V14.01,2013-10-28 05:07:00,
2013-10-28 00:08:00,63.1,59.5,29.99,SSE,149,2.0,4.0,88,0.00,,SKC,0.22,VWS V14.01,2013-10-28 05:08:00,
2013-10-28 00:09:00,63.1,59.5,29.99,SSE,148,4.0,5.0,88,0.00,,SKC,0.22,VWS V14.01,2013-10-28 05:09:00,
2013-10-28 00:10:00,63.1,59.5,29.99,SSE,148,4.0,6.0,88,0.00,,SKC,0.22,VWS V14.01,2013-10-28 05:10:00,
2013-10-28 00:11:00,62.9,59.3,29.97,SE,138,2.0,2.0,88,0.00,,SKC,0.00,VWS V14.01,2013-10-28 05:11:00,
2013-10-28 00:12:00,63.1,59.5,29.99,SSE,156,3.0,3.0,88,0.00,,SKC,0.22,VWS V14.01,2013-10-28 05:12:00,
2013-10-28 00:13:00,63.1,59.5,29.99,SSE,167,5.0,6.0,88,0.00,,SKC,0.22,VWS V14.01,2013-10-28 05:13:00,
2013-10-28 00:14:00,63.1,59.5,29.99,SSE,148,3.0,5.0,88,0.00,,SKC,0.22,VWS V14.01,2013-10-28 05:14:00,
2013-10-28 00:15:00,63.1,59.5,29.99,SE,132,4.0,4.0,88,0.00,,SKC,0.22,VWS V14.01,2013-10-28 05:15:00,
2013-10-28 00:16:00,62.9,59.3,29.97,SE,140,3.0,3.0,88,0.00,,SKC,0.00,VWS V14.01,2013-10-28 05:16:00,
2013-10-28 00:17:00,63.1,59.5,29.99,SE,140,5.0,7.0,88,0.00,,SKC,0.22,VWS V14.01,2013-10-28 05:17:00,
2013-10-28 00:18:00,63.1,59.5,29.99,SE,137,6.0,6.0,88,0.00,,SKC,0.22,VWS V14.01,2013-10-28 05:18:00,
2013-10-28 00:19:00,63.1,59.5,29.99,SE,141,5.0,10.0,88,0.00,,SKC,0.22,VWS V14.01,2013-10-28 05:19:00,
2013-10-28 00:20:00,63.1,59.5,29.99,SE,142,2.0,5.0,88,0.00,,SKC,0.22,VWS V14.01,2013-10-28 05:20:00,
2013-10-28 00:21:00,62.9,59.3,29.97,SE,128,2.0,3.0,88,0.00,,SKC,0.00,VWS V14.01,2013-10-28 05:21:00,
2013-10-28 00:22:00,63.0,59.4,29.98,SE,128,1.0,4.0,88,0.00,,SKC,0.22,VWS V14.01,2013-10-28 05:22:00,
2013-10-28 00:23:00,63.0,59.4,29.99,SE,129,2.0,4.0,88,0.00,,SKC,0.22,VWS V14.01,2013-10-28 05:23:00,
2013-10-28 00:24:00,63.1,59.5,29.98,SE,133,2.0,4.0,88,0.00,,SKC,0.22,VWS V14.01,2013-10-28 05:24:00,
2013-10-28 00:25:00,63.0,59.4,29.99,ESE,102,3.0,6.0,88,0.00,,SKC,0.22,VWS V14.01,2013-10-28 05:25:00,
2013-10-28 00:26:00,62.9,59.3,29.97,SE,128,0.0,1.0,88,0.00,,SKC,0.00,VWS V14.01,2013-10-28 05:26:00,
2013-10-28 00:27:00,63.1,59.5,29.98,SSE,158,4.0,4.0,88,0.00,,SKC,0.22,VWS V14.01,2013-10-28 05:27:00,
2013-10-28 00:28:00,63.0,59.4,29.98,SE,135,6.0,6.0,88,0.00,,SKC,0.22,VWS V14.01,2013-10-28 05:28:00,
2013-10-28 00:29:00,63.0,59.4,29.98,SE,137,5.0,6.0,88,0.00,,SKC,0.22,VWS V14.01,2013-10-28 05:29:00,
2013-10-28 00:30:00,63.0,59.4,29.98,SE,125,3.0,5.0,88,0.00,,SKC,0.22,VWS V14.01,2013-10-28 05:30:00,
2013-10-28 00:31:00,62.9,59.3,29.97,SE,128,2.0,3.0,88,0.00,,SKC,0.00,VWS V14.01,2013-10-28 05:31:00,
2013-10-28 00:32:00,63.0,59.4,29.98,SE,141,2.0,6.0,88,0.00,,SKC,0.22,VWS V14.01,2013-10-28 05:32:00,
2013-10-28 00:33:00,63.0,59.4,29.98,SSE,148,4.0,7.0,88,0.00,,SKC,0.22,VWS V14.01,2013-10-28 05:33:00,
2013-10-28 00:34:00,63.0,59.4,29.98,SE,128,4.0,7.0,88,0.00,,SKC,0.22,VWS V14.01,2013-10-28 05:34:00,
2013-10-28 00:35:00,63.0,59.4,29.98,SE,133,4.0,4.0,88,0.00,,SKC,0.22,VWS V14.01,2013-10-28 05:35:00,
2013-10-28 00:36:00,62.9,59.3,29.97,SE,136,5.0,5.0,88,0.00,,SKC,0.00,VWS V14.01,2013-10-28 05:36:00,
2013-10-28 00:37:00,63.0,59.4,29.98,ESE,103,2.0,3.0,88,0.00,,SKC,0.22,VWS V14.01,2013-10-28 05:37:00,
2013-10-28 00:38:00,63.0,59.4,29.98,ESE,104,1.0,2.0,88,0.00,,SKC,0.22,VWS V14.01,2013-10-28 05:38:00,
2013-10-28 00:39:00,63.0,59.4,29.98,SE,140,5.0,5.0,88,0.00,,SKC,0.22,VWS V14.01,2013-10-28 05:39:00,
2013-10-28 00:40:00,63.0,59.4,29.98,SE,127,3.0,5.0,88,0.00,,SKC,0.22,VWS V14.01,2013-10-28 05:40:00,
2013-10-28 00:41:00,62.9,59.3,29.97,SSE,148,3.0,3.0,88,0.00,,SKC,0.00,VWS V14.01,2013-10-28 05:41:00,
2013-10-28 00:42:00,63.0,59.4,29.98,SE,131,1.0,4.0,88,0.00,,SKC,0.22,VWS V14.01,2013-10-28 05:42:00,
2013-10-28 00:43:00,63.0,59.4,29.98,SE,130,3.0,4.0,88,0.00,,SKC,0.22,VWS V14.01,2013-10-28 05:43:00,
2013-10-28 00:44:00,63.0,59.4,29.98,SE,130,5.0,5.0,88,0.00,,SKC,0.22,VWS V14.01,2013-10-28 05:44:00,
2013-10-28 00:45:00,63.0,59.4,29.98,SE,132,7.0,7.0,88,0.00,,SKC,0.22,VWS V14.01,2013-10-28 05:45:00,
2013-10-28 00:46:00,62.9,59.3,29.97,SE,136,3.0,3.0,88,0.00,,SKC,0.00,VWS V14.01,2013-10-28 05:46:00,
2013-10-28 00:47:00,63.0,59.4,29.98,ESE,103,3.0,4.0,88,0.00,,SKC,0.22,VWS V14.01,2013-10-28 05:47:00,
2013-10-28 00:48:00,63.0,59.4,29.98,ESE,115,0.0,5.0,88,0.00,,SKC,0.22,VWS V14.01,2013-10-28 05:48:00,
2013-10-28 00:49:00,63.0,59.4,29.98,ESE,115,1.0,1.0,88,0.00,,SKC,0.22,VWS V14.01,2013-10-28 05:49:00,
2013-10-28 00:50:00,63.0,59.4,29.98,SE,137,4.0,6.0,88,0.00,,SKC,0.22,VWS V14.01,2013-10-28 05:50:00,
2013-10-28 00:51:00,62.9,59.3,29.97,SE,141,2.0,4.0,88,0.00,,SKC,0.00,VWS V14.01,2013-10-28 05:51:00,
2013-10-28 00:52:00,62.9,59.3,29.98,SE,136,2.0,6.0,88,0.00,,SKC,0.22,VWS V14.01,2013-10-28 05:52:00,
2013-10-28 00:53:00,62.9,59.3,29.98,SSE,153,3.0,4.0,88,0.00,,SKC,0.22,VWS V14.01,2013-10-28 05:53:00,
2013-10-28 00:54:00,63.0,59.4,29.98,SSE,151,4.0,6.0,88,0.00,,SKC,0.22,VWS V14.01,2013-10-28 05:54:00,
2013-10-28 00:55:00,62.9,59.3,29.98,SSE,151,1.0,4.0,88,0.00,,SKC,0.22,VWS V14.01,2013-10-28 05:55:00,
2013-10-28 00:56:00,62.9,59.3,29.97,SSE,153,6.0,6.0,88,0.00,,SKC,0.00,VWS V14.01,2013-10-28 05:56:00,
2013-10-28 00:57:00,62.9,59.3,29.98,SSE,150,1.0,3.0,88,0.00,,SKC,0.22,VWS V14.01,2013-10-28 05:57:00,
2013-10-28 00:58:00,62.9,59.3,29.98,SSE,150,1.0,1.0,88,0.00,,SKC,0.22,VWS V14.01,2013-10-28 05:58:00,
2013-10-28 00:59:00,62.9,59.3,29.98,SSE,150,3.0,4.0,88,0.00,,SKC,0.22,VWS V14.01,2013-10-28 05:59:00,
2013-10-28 01:00:00,62.9,59.3,29.98,South,173,4.0,6.0,88,0.00,,SKC,0.00,VWS V14.01,2013-10-28 06:00:00,
2013-10-28 01:01:00,62.9,59.3,29.96,SSE,148,1.0,5.0,88,0.00,,SKC,0.00,VWS V14.01,2013-10-28 06:01:00,
2013-10-28 01:02:00,62.9,59.3,29.98,SSE,162,2.0,3.0,88,0.00,,SKC,0.00,VWS V14.01,2013-10-28 06:02:00,
2013-10-28 01:03:00,62.9,59.3,29.98,ESE,103,3.0,3.0,88,0.00,,SKC,0.00,VWS V14.01,2013-10-28 06:03:00,
2013-10-28 01:04:00,62.9,59.3,29.97,South,171,4.0,5.0,88,0.00,,SKC,0.00,VWS V14.01,2013-10-28 06:04:00,
2013-10-28 01:05:00,62.9,59.3,29.97,SE,139,6.0,6.0,88,0.00,,SKC,0.00,VWS V14.01,2013-10-28 06:05:00,
2013-10-28 01:06:00,63.0,59.4,29.96,SE,146,1.0,3.0,88,0.00,,SKC,0.00,VWS V14.01,2013-10-28 06:06:00,
2013-10-28 01:07:00,62.9,59.3,29.97,SE,138,0.0,2.0,88,0.00,,SKC,0.00,VWS V14.01,2013-10-28 06:07:00,
2013-10-28 01:08:00,62.9,59.3,29.97,SE,138,0.0,3.0,88,0.00,,SKC,0.00,VWS V14.01,2013-10-28 06:08:00,
2013-10-28 01:09:00,62.9,59.3,29.97,SE,138,0.0,1.0,88,0.00,,SKC,0.00,VWS V14.01,2013-10-28 06:09:00,
2013-10-28 01:10:00,62.9,59.3,29.97,SE,145,4.0,4.0,88,0.00,,SKC,0.00,VWS V14.01,2013-10-28 06:10:00,
2013-10-28 01:11:00,62.9,59.3,29.96,SE,142,5.0,5.0,88,0.00,,SKC,0.00,VWS V14.01,2013-10-28 06:11:00,
2013-10-28 01:12:00,62.9,59.3,29.97,SE,146,2.0,3.0,88,0.00,,SKC,0.00,VWS V14.01,2013-10-28 06:12:00,
2013-10-28 01:13:00,62.9,59.3,29.97,SE,142,5.0,5.0,88,0.00,,SKC,0.00,VWS V14.01,2013-10-28 06:13:00,
2013-10-28 01:14:00,62.9,59.3,29.97,SE,140,0.0,5.0,88,0.00,,SKC,0.00,VWS V14.01,2013-10-28 06:14:00,
2013-10-28 01:15:00,62.9,59.3,29.97,ESE,119,2.0,4.0,88,0.00,,SKC,0.00,VWS V14.01,2013-10-28 06:15:00,
2013-10-28 01:16:00,63.0,59.7,29.96,SSE,150,2.0,2.0,89,0.00,,SKC,0.00,VWS V14.01,2013-10-28 06:16:00,
2013-10-28 01:17:00,62.9,59.3,29.97,SE,125,0.0,2.0,88,0.00,,SKC,0.00,VWS V14.01,2013-10-28 06:17:00,
2013-10-28 01:18:00,62.9,59.3,29.97,SE,126,1.0,3.0,88,0.00,,SKC,0.00,VWS V14.01,2013-10-28 06:18:00,
2013-10-28 01:19:00,62.9,59.3,29.97,SE,128,3.0,4.0,88,0.00,,SKC,0.00,VWS V14.01,2013-10-28 06:19:00,
2013-10-28 01:20:00,62.9,59.3,29.97,SE,128,2.0,3.0,88,0.00,,SKC,0.00,VWS V14.01,2013-10-28 06:20:00,
2013-10-28 01:21:00,63.0,59.7,29.96,SSE,150,6.0,6.0,89,0.00,,SKC,0.00,VWS V14.01,2013-10-28 06:21:00,
2013-10-28 01:22:00,62.9,59.3,29.97,SE,128,1.0,3.0,88,0.00,,SKC,0.00,VWS V14.01,2013-10-28 06:22:00,
2013-10-28 01:23:00,62.9,59.3,29.97,SE,128,0.0,4.0,88,0.00,,SKC,0.00,VWS V14.01,2013-10-28 06:23:00,
2013-10-28 01:24:00,62.9,59.3,29.97,SE,128,0.0,0.0,88,0.00,,SKC,0.00,VWS V14.01,2013-10-28 06:24:00,
2013-10-28 01:25:00,62.9,59.3,29.97,SE,128,1.0,1.0,88,0.00,,SKC,0.00,VWS V14.01,2013-10-28 06:25:00,
2013-10-28 01:26:00,63.1,59.8,29.96,SSE,150,4.0,4.0,89,0.00,,SKC,0.00,VWS V14.01,2013-10-28 06:26:00,
2013-10-28 01:27:00,62.9,59.3,29.97,SE,128,0.0,2.0,88,0.00,,SKC,0.00,VWS V14.01,2013-10-28 06:27:00,
2013-10-28 01:28:00,62.9,59.3,29.97,SE,128,0.0,1.0,88,0.00,,SKC,0.00,VWS V14.01,2013-10-28 06:28:00,
2013-10-28 01:29:00,62.9,59.3,29.97,SE,128,3.0,3.0,88,0.00,,SKC,0.00,VWS V14.01,2013-10-28 06:29:00,
2013-10-28 01:30:00,62.9,59.3,29.97,ESE,105,3.0,5.0,88,0.00,,SKC,0.00,VWS V14.01,2013-10-28 06:30:00,
2013-10-28 01:31:00,63.2,59.6,29.96,SSE,165,3.0,4.0,88,0.00,,SKC,0.00,VWS V14.01,2013-10-28 06:31:00,
2013-10-28 01:32:00,62.9,59.3,29.97,SE,134,0.0,3.0,88,0.00,,SKC,0.00,VWS V14.01,2013-10-28 06:32:00,
2013-10-28 01:33:00,62.9,59.3,29.97,SE,134,2.0,3.0,88,0.00,,SKC,0.00,VWS V14.01,2013-10-28 06:33:00,
2013-10-28 01:34:00,62.9,59.3,29.97,SE,134,1.0,3.0,88,0.00,,SKC,0.00,VWS V14.01,2013-10-28 06:34:00,
2013-10-28 01:35:00,62.9,59.3,29.97,SE,136,2.0,5.0,88,0.00,,SKC,0.00,VWS V14.01,2013-10-28 06:35:00,
2013-10-28 01:36:00,63.4,59.8,29.95,South,176,6.0,8.0,88,0.00,,SKC,0.00,VWS V14.01,2013-10-28 06:36:00,
2013-10-28 01:37:00,62.9,59.3,29.97,SE,136,1.0,1.0,88,0.00,,SKC,0.00,VWS V14.01,2013-10-28 06:37:00,
2013-10-28 01:38:00,62.9,59.3,29.97,SE,145,2.0,4.0,88,0.00,,SKC,0.00,VWS V14.01,2013-10-28 06:38:00,
2013-10-28 01:39:00,62.9,59.3,29.97,SE,145,1.0,2.0,88,0.00,,SKC,0.00,VWS V14.01,2013-10-28 06:39:00,
2013-10-28 01:40:00,62.9,59.3,29.97,SSE,155,2.0,4.0,88,0.00,,SKC,0.00,VWS V14.01,2013-10-28 06:40:00,
2013-10-28 01:41:00,63.8,60.2,29.95,SSE,165,3.0,5.0,88,0.00,,SKC,0.00,VWS V14.01,2013-10-28 06:41:00,
2013-10-28 01:42:00,62.9,59.3,29.97,SSE,160,3.0,4.0,88,0.00,,SKC,0.00,VWS V14.01,2013-10-28 06:42:00,
2013-10-28 01:43:00,62.9,59.3,29.97,SE,134,4.0,4.0,88,0.00,,SKC,0.00,VWS V14.01,2013-10-28 06:43:00,
2013-10-28 01:44:00,62.9,59.3,29.97,SE,136,3.0,4.0,88,0.00,,SKC,0.00,VWS V14.01,2013-10-28 06:44:00,
2013-10-28 01:45:00,62.9,59.3,29.97,SE,136,3.0,3.0,88,0.00,,SKC,0.00,VWS V14.01,2013-10-28 06:45:00,
2013-10-28 01:46:00,63.9,60.3,29.95,South,184,5.0,7.0,88,0.00,,SKC,0.00,VWS V14.01,2013-10-28 06:46:00,
2013-10-28 01:47:00,62.9,59.3,29.97,SE,134,3.0,4.0,88,0.00,,SKC,0.00,VWS V14.01,2013-10-28 06:47:00,
2013-10-28 01:48:00,62.9,59.3,29.97,SE,141,4.0,5.0,88,0.00,,SKC,0.00,VWS V14.01,2013-10-28 06:48:00,
2013-10-28 01:49:00,62.9,59.3,29.97,SE,141,4.0,5.0,88,0.00,,SKC,0.00,VWS V14.01,2013-10-28 06:49:00,
2013-10-28 01:50:00,62.9,59.3,29.97,SE,144,2.0,4.0,88,0.00,,SKC,0.00,VWS V14.01,2013-10-28 06:50:00,
2013-10-28 01:51:00,63.8,60.2,29.95,SSE,161,4.0,9.0,88,0.00,,SKC,0.00,VWS V14.01,2013-10-28 06:51:00,
2013-10-28 01:52:00,62.9,59.3,29.97,SSE,147,4.0,4.0,88,0.00,,SKC,0.00,VWS V14.01,2013-10-28 06:52:00,
2013-10-28 01:53:00,62.9,59.3,29.97,SSE,147,4.0,4.0,88,0.00,,SKC,0.00,VWS V14.01,2013-10-28 06:53:00,
2013-10-28 01:54:00,62.9,59.3,29.97,SSE,153,3.0,5.0,88,0.00,,SKC,0.00,VWS V14.01,2013-10-28 06:54:00,
2013-10-28 01:55:00,62.9,59.3,29.97,SSE,152,3.0,6.0,88,0.00,,SKC,0.00,VWS V14.01,2013-10-28 06:55:00,
2013-10-28 01:56:00,63.8,60.2,29.95,SE,145,5.0,9.0,88,0.00,,SKC,0.00,VWS V14.01,2013-10-28 06:56:00,
2013-10-28 01:57:00,62.9,59.3,29.97,SSE,148,3.0,6.0,88,0.00,,SKC,0.00,VWS V14.01,2013-10-28 06:57:00,
2013-10-28 01:58:00,62.9,59.3,29.97,SE,146,1.0,5.0,88,0.00,,SKC,0.00,VWS V14.01,2013-10-28 06:58:00,
2013-10-28 01:59:00,62.9,59.3,29.97,SSE,150,2.0,3.0,88,0.00,,SKC,0.00,VWS V14.01,2013-10-28 06:59:00,
2013-10-28 02:00:00,62.9,59.3,29.96,SE,146,2.0,5.0,88,0.00,,SKC,0.00,VWS V14.01,2013-10-28 07:00:00,
2013-10-28 02:01:00,63.7,60.1,29.95,South,171,4.0,6.0,88,0.00,,SKC,0.00,VWS V14.01,2013-10-28 07:01:00,
2013-10-28 02:02:00,62.9,59.3,29.96,SE,146,5.0,5.0,88,0.00,,SKC,0.00,VWS V14.01,2013-10-28 07:02:00,
2013-10-28 02:03:00,62.9,59.3,29.96,SE,145,4.0,5.0,88,0.00,,SKC,0.00,VWS V14.01,2013-10-28 07:03:00,
2013-10-28 02:04:00,62.9,59.3,29.96,SE,146,2.0,4.0,88,0.00,,SKC,0.00,VWS V14.01,2013-10-28 07:04:00,
2013-10-28 02:05:00,62.9,59.3,29.96,SE,146,2.0,3.0,88,0.00,,SKC,0.00,VWS V14.01,2013-10-28 07:05:00,
2013-10-28 02:06:00,63.7,60.1,29.95,SE,138,6.0,10.0,88,0.00,,SKC,0.00,VWS V14.01,2013-10-28 07:06:00,
2013-10-28 02:07:00,62.9,59.3,29.96,SE,144,1.0,4.0,88,0.00,,SKC,0.00,VWS V14.01,2013-10-28 07:07:00,
2013-10-28 02:08:00,62.9,59.3,29.96,SE,145,3.0,5.0,88,0.00,,SKC,0.00,VWS V14.01,2013-10-28 07:08:00,
2013-10-28 02:09:00,62.9,59.3,29.96,SE,144,0.0,3.0,88,0.00,,SKC,0.00,VWS V14.01,2013-10-28 07:09:00,
2013-10-28 02:10:00,63.0,59.4,29.96,SE,144,3.0,5.0,88,0.00,,SKC,0.00,VWS V14.01,2013-10-28 07:10:00,
2013-10-28 02:11:00,63.6,60.0,29.95,South,186,10.0,11.0,88,0.00,,SKC,0.00,VWS V14.01,2013-10-28 07:11:00,
2013-10-28 02:12:00,63.0,59.4,29.96,SE,144,1.0,6.0,88,0.00,,SKC,0.00,VWS V14.01,2013-10-28 07:12:00,
2013-10-28 02:13:00,63.0,59.7,29.96,SSE,150,1.0,6.0,89,0.00,,SKC,0.00,VWS V14.01,2013-10-28 07:13:00,
2013-10-28 02:14:00,63.0,59.7,29.96,SSE,150,2.0,2.0,89,0.00,,SKC,0.00,VWS V14.01,2013-10-28 07:14:00,
2013-10-28 02:15:00,63.0,59.7,29.96,SSE,150,2.0,4.0,89,0.00,,SKC,0.00,VWS V14.01,2013-10-28 07:15:00,
2013-10-28 02:16:00,63.6,60.0,29.95,SSE,157,6.0,9.0,88,0.00,,SKC,0.00,VWS V14.01,2013-10-28 07:16:00,
2013-10-28 02:17:00,63.0,59.7,29.96,SSE,155,2.0,5.0,89,0.00,,SKC,0.00,VWS V14.01,2013-10-28 07:17:00,
2013-10-28 02:18:00,63.0,59.7,29.96,SSE,154,6.0,6.0,89,0.00,,SKC,0.00,VWS V14.01,2013-10-28 07:18:00,
2013-10-28 02:19:00,63.0,59.7,29.96,SSE,149,1.0,6.0,89,0.00,,SKC,0.00,VWS V14.01,2013-10-28 07:19:00,
2013-10-28 02:20:00,63.0,59.7,29.96,SSE,151,3.0,6.0,89,0.00,,SKC,0.00,VWS V14.01,2013-10-28 07:20:00,
2013-10-28 02:21:00,63.6,60.0,29.95,SSE,163,2.0,4.0,88,0.00,,SKC,0.00,VWS V14.01,2013-10-28 07:21:00,
2013-10-28 02:22:00,63.0,59.7,29.96,SSE,148,1.0,4.0,89,0.00,,SKC,0.00,VWS V14.01,2013-10-28 07:22:00,
2013-10-28 02:23:00,63.0,59.7,29.96,SE,146,5.0,5.0,89,0.00,,SKC,0.00,VWS V14.01,2013-10-28 07:23:00,
2013-10-28 02:24:00,63.1,59.8,29.96,SE,142,4.0,7.0,89,0.00,,SKC,0.00,VWS V14.01,2013-10-28 07:24:00,
2013-10-28 02:25:00,63.1,59.8,29.96,SE,133,4.0,6.0,89,0.00,,SKC,0.00,VWS V14.01,2013-10-28 07:25:00,
2013-10-28 02:26:00,63.6,60.0,29.95,South,173,4.0,6.0,88,0.00,,SKC,0.00,VWS V14.01,2013-10-28 07:26:00,
2013-10-28 02:27:00,63.1,59.8,29.96,SE,146,3.0,3.0,89,0.00,,SKC,0.00,VWS V14.01,2013-10-28 07:27:00,
2013-10-28 02:28:00,63.1,59.5,29.96,SSE,165,4.0,6.0,88,0.00,,SKC,0.00,VWS V14.01,2013-10-28 07:28:00,
2013-10-28 02:29:00,63.2,59.6,29.96,SSE,161,3.0,4.0,88,0.00,,SKC,0.00,VWS V14.01,2013-10-28 07:29:00,
2013-10-28 02:30:00,63.2,59.6,29.96,SSE,165,3.0,4.0,88,0.00,,SKC,0.00,VWS V14.01,2013-10-28 07:30:00,
2013-10-28 02:31:00,63.6,60.0,29.95,SSE,161,5.0,8.0,88,0.00,,SKC,0.00,VWS V14.01,2013-10-28 07:31:00,
2013-10-28 02:32:00,63.3,59.7,29.96,SE,141,6.0,7.0,88,0.00,,SKC,0.00,VWS V14.01,2013-10-28 07:32:00,
2013-10-28 02:33:00,63.4,59.8,29.95,SSE,153,3.0,7.0,88,0.00,,SKC,0.00,VWS V14.01,2013-10-28 07:33:00,
2013-10-28 02:34:00,63.4,59.8,29.95,SSE,157,8.0,8.0,88,0.00,,SKC,0.00,VWS V14.01,2013-10-28 07:34:00,
2013-10-28 02:35:00,63.5,59.9,29.95,SSE,153,7.0,8.0,88,0.00,,SKC,0.00,VWS V14.01,2013-10-28 07:35:00,
2013-10-28 02:36:00,63.6,60.0,29.95,South,180,8.0,9.0,88,0.00,,SKC,0.00,VWS V14.01,2013-10-28 07:36:00,
2013-10-28 02:37:00,63.6,60.0,29.95,SSE,161,4.0,9.0,88,0.00,,SKC,0.00,VWS V14.01,2013-10-28 07:37:00,
2013-10-28 02:38:00,63.7,60.1,29.95,South,178,6.0,10.0,88,0.00,,SKC,0.00,VWS V14.01,2013-10-28 07:38:00,
2013-10-28 02:39:00,63.8,60.2,29.95,SE,141,4.0,9.0,88,0.00,,SKC,0.00,VWS V14.01,2013-10-28 07:39:00,
2013-10-28 02:40:00,63.8,60.2,29.95,SSE,153,8.0,10.0,88,0.00,,SKC,0.00,VWS V14.01,2013-10-28 07:40:00,
2013-10-28 02:41:00,63.6,60.0,29.95,South,169,5.0,5.0,88,0.00,,SKC,0.00,VWS V14.01,2013-10-28 07:41:00,
2013-10-28 02:42:00,63.9,60.3,29.95,SSE,152,4.0,10.0,88,0.00,,SKC,0.00,VWS V14.01,2013-10-28 07:42:00,
2013-10-28 02:43:00,63.9,60.3,29.95,SSE,167,7.0,12.0,88,0.00,,SKC,0.00,VWS V14.01,2013-10-28 07:43:00,
2013-10-28 02:44:00,63.9,60.3,29.95,SSE,163,5.0,14.0,88,0.00,,SKC,0.00,VWS V14.01,2013-10-28 07:44:00,
2013-10-28 02:45:00,63.9,60.3,29.95,SSE,167,6.0,10.0,88,0.00,,SKC,0.00,VWS V14.01,2013-10-28 07:45:00,
2013-10-28 02:46:00,63.6,60.0,29.95,SSE,154,7.0,7.0,88,0.00,,SKC,0.00,VWS V14.01,2013-10-28 07:46:00,
2013-10-28 02:47:00,63.8,60.2,29.95,SE,125,9.0,11.0,88,0.00,,SKC,0.00,VWS V14.01,2013-10-28 07:47:00,
2013-10-28 02:48:00,63.8,60.2,29.95,SSE,161,5.0,9.0,88,0.00,,SKC,0.00,VWS V14.01,2013-10-28 07:48:00,
2013-10-28 02:49:00,63.8,60.2,29.95,SSE,165,3.0,5.0,88,0.00,,SKC,0.00,VWS V14.01,2013-10-28 07:49:00,
2013-10-28 02:50:00,63.8,60.2,29.95,SSE,150,9.0,11.0,88,0.00,,SKC,0.00,VWS V14.01,2013-10-28 07:50:00,
2013-10-28 02:51:00,63.6,60.0,29.95,SSE,159,3.0,6.0,88,0.00,,SKC,0.00,VWS V14.01,2013-10-28 07:51:00,
2013-10-28 02:52:00,63.8,60.2,29.95,SSE,153,6.0,8.0,88,0.00,,SKC,0.00,VWS V14.01,2013-10-28 07:52:00,
2013-10-28 02:53:00,63.8,60.2,29.95,SSE,152,6.0,11.0,88,0.00,,SKC,0.00,VWS V14.01,2013-10-28 07:53:00,
2013-10-28 02:54:00,63.8,60.2,29.95,SSE,147,9.0,12.0,88,0.00,,SKC,0.00,VWS V14.01,2013-10-28 07:54:00,
2013-10-28 02:55:00,63.8,60.2,29.95,SSE,148,4.0,9.0,88,0.00,,SKC,0.00,VWS V14.01,2013-10-28 07:55:00,
2013-10-28 02:56:00,63.6,60.0,29.95,SE,145,3.0,10.0,88,0.00,,SKC,0.00,VWS V14.01,2013-10-28 07:56:00,
2013-10-28 02:57:00,63.8,60.2,29.95,SSE,161,6.0,10.0,88,0.00,,SKC,0.00,VWS V14.01,2013-10-28 07:57:00,
2013-10-28 02:58:00,63.7,60.1,29.95,SE,136,6.0,9.0,88,0.00,,SKC,0.00,VWS V14.01,2013-10-28 07:58:00,
2013-10-28 02:59:00,63.7,60.1,29.95,SE,140,5.0,7.0,88,0.00,,SKC,0.00,VWS V14.01,2013-10-28 07:59:00,
2013-10-28 03:00:00,63.7,60.1,29.95,South,184,4.0,6.0,88,0.00,,SKC,0.00,VWS V14.01,2013-10-28 08:00:00,
2013-10-28 03:01:00,63.6,60.0,29.95,SE,137,4.0,5.0,88,0.00,,SKC,0.00,VWS V14.01,2013-10-28 08:01:00,
2013-10-28 03:02:00,63.7,60.1,29.95,SSE,164,6.0,10.0,88,0.00,,SKC,0.00,VWS V14.01,2013-10-28 08:02:00,
2013-10-28 03:03:00,63.7,60.1,29.95,SE,135,1.0,7.0,88,0.00,,SKC,0.00,VWS V14.01,2013-10-28 08:03:00,
2013-10-28 03:04:00,63.7,60.1,29.95,SE,140,9.0,10.0,88,0.00,,SKC,0.00,VWS V14.01,2013-10-28 08:04:00,
2013-10-28 03:05:00,63.7,60.1,29.95,SSE,167,4.0,10.0,88,0.00,,SKC,0.00,VWS V14.01,2013-10-28 08:05:00,
2013-10-28 03:06:00,63.6,60.0,29.95,SE,137,2.0,4.0,88,0.00,,SKC,0.00,VWS V14.01,2013-10-28 08:06:00,
2013-10-28 03:07:00,63.7,60.1,29.95,SSE,159,5.0,10.0,88,0.00,,SKC,0.00,VWS V14.01,2013-10-28 08:07:00,
2013-10-28 03:08:00,63.6,60.0,29.95,SSE,157,3.0,10.0,88,0.00,,SKC,0.00,VWS V14.01,2013-10-28 08:08:00,
2013-10-28 03:09:00,63.7,60.1,29.95,South,175,4.0,10.0,88,0.00,,SKC,0.00,VWS V14.01,2013-10-28 08:09:00,
2013-10-28 03:10:00,63.7,60.1,29.95,SSE,149,5.0,11.0,88,0.00,,SKC,0.00,VWS V14.01,2013-10-28 08:10:00,
2013-10-28 03:11:00,63.6,60.0,29.94,SE,144,3.0,7.0,88,0.00,,SKC,0.00,VWS V14.01,2013-10-28 08:11:00,
2013-10-28 03:12:00,63.6,60.0,29.95,SE,134,10.0,10.0,88,0.00,,SKC,0.00,VWS V14.01,2013-10-28 08:12:00,
2013-10-28 03:13:00,63.6,60.0,29.95,SSE,168,9.0,10.0,88,0.00,,SKC,0.00,VWS V14.01,2013-10-28 08:13:00,
2013-10-28 03:14:00,63.6,60.0,29.95,SSE,161,4.0,9.0,88,0.00,,SKC,0.00,VWS V14.01,2013-10-28 08:14:00,
2013-10-28 03:15:00,63.6,60.0,29.95,SE,142,6.0,9.0,88,0.00,,SKC,0.00,VWS V14.01,2013-10-28 08:15:00,
2013-10-28 03:16:00,63.6,60.0,29.95,SSE,167,5.0,7.0,88,0.00,,SKC,0.00,VWS V14.01,2013-10-28 08:16:00,
2013-10-28 03:17:00,63.6,60.0,29.95,SSE,163,3.0,7.0,88,0.00,,SKC,0.00,VWS V14.01,2013-10-28 08:17:00,
2013-10-28 03:18:00,63.6,60.0,29.95,SSE,163,3.0,5.0,88,0.00,,SKC,0.00,VWS V14.01,2013-10-28 08:18:00,
2013-10-28 03:19:00,63.6,60.0,29.95,SSE,163,3.0,4.0,88,0.00,,SKC,0.00,VWS V14.01,2013-10-28 08:19:00,
2013-10-28 03:20:00,63.6,60.0,29.95,SSE,163,2.0,4.0,88,0.00,,SKC,0.00,VWS V14.01,2013-10-28 08:20:00,
2013-10-28 03:21:00,63.6,60.0,29.94,SSE,163,8.0,11.0,88,0.00,,SKC,0.00,VWS V14.01,2013-10-28 08:21:00,
2013-10-28 03:22:00,63.6,60.0,29.95,SSE,159,5.0,7.0,88,0.00,,SKC,0.00,VWS V14.01,2013-10-28 08:22:00,
2013-10-28 03:23:00,63.6,60.0,29.95,SSE,168,6.0,10.0,88,0.00,,SKC,0.00,VWS V14.01,2013-10-28 08:23:00,
2013-10-28 03:24:00,63.6,60.0,29.95,SSE,156,4.0,10.0,88,0.00,,SKC,0.00,VWS V14.01,2013-10-28 08:24:00,
2013-10-28 03:25:00,63.6,60.0,29.95,South,169,4.0,10.0,88,0.00,,SKC,0.00,VWS V14.01,2013-10-28 08:25:00,
2013-10-28 03:26:00,63.6,60.0,29.94,SE,142,0.0,8.0,88,0.00,,SKC,0.00,VWS V14.01,2013-10-28 08:26:00,
2013-10-28 03:27:00,63.6,60.0,29.95,SSE,156,5.0,9.0,88,0.00,,SKC,0.00,VWS V14.01,2013-10-28 08:27:00,
2013-10-28 03:28:00,63.6,60.0,29.95,SSE,150,7.0,7.0,88,0.00,,SKC,0.00,VWS V14.01,2013-10-28 08:28:00,
2013-10-28 03:29:00,63.6,60.0,29.95,South,177,8.0,8.0,88,0.00,,SKC,0.00,VWS V14.01,2013-10-28 08:29:00,
2013-10-28 03:30:00,63.6,60.0,29.95,SSE,164,5.0,8.0,88,0.00,,SKC,0.00,VWS V14.01,2013-10-28 08:30:00,
2013-10-28 03:31:00,63.6,60.0,29.94,South,177,6.0,9.0,88,0.00,,SKC,0.00,VWS V14.01,2013-10-28 08:31:00,
2013-10-28 03:32:00,63.6,60.0,29.95,SSE,156,5.0,9.0,88,0.00,,SKC,0.00,VWS V14.01,2013-10-28 08:32:00,
2013-10-28 03:33:00,63.6,60.0,29.95,SSE,166,6.0,7.0,88,0.00,,SKC,0.00,VWS V14.01,2013-10-28 08:33:00,
2013-10-28 03:34:00,63.6,60.0,29.95,South,180,7.0,10.0,88,0.00,,SKC,0.00,VWS V14.01,2013-10-28 08:34:00,
2013-10-28 03:35:00,63.6,60.0,29.95,SSE,152,4.0,9.0,88,0.00,,SKC,0.00,VWS V14.01,2013-10-28 08:35:00,
2013-10-28 03:36:00,63.5,59.9,29.94,South,186,5.0,9.0,88,0.00,,SKC,0.00,VWS V14.01,2013-10-28 08:36:00,
2013-10-28 03:37:00,63.6,60.0,29.95,South,179,7.0,7.0,88,0.00,,SKC,0.00,VWS V14.01,2013-10-28 08:37:00,
2013-10-28 03:38:00,63.6,60.0,29.95,South,179,7.0,11.0,88,0.00,,SKC,0.00,VWS V14.01,2013-10-28 08:38:00,
2013-10-28 03:39:00,63.6,60.0,29.95,SE,138,4.0,9.0,88,0.00,,SKC,0.00,VWS V14.01,2013-10-28 08:39:00,
2013-10-28 03:40:00,63.6,60.0,29.95,South,173,1.0,7.0,88,0.00,,SKC,0.00,VWS V14.01,2013-10-28 08:40:00,
2013-10-28 03:41:00,63.5,60.2,29.94,South,179,6.0,7.0,89,0.00,,SKC,0.00,VWS V14.01,2013-10-28 08:41:00,
2013-10-28 03:42:00,63.6,60.0,29.95,SSE,167,7.0,7.0,88,0.00,,SKC,0.00,VWS V14.01,2013-10-28 08:42:00,
2013-10-28 03:43:00,63.6,60.0,29.95,SSE,164,7.0,13.0,88,0.00,,SKC,0.00,VWS V14.01,2013-10-28 08:43:00,
2013-10-28 03:44:00,63.6,60.0,29.95,SSE,155,5.0,7.0,88,0.00,,SKC,0.00,VWS V14.01,2013-10-28 08:44:00,
2013-10-28 03:45:00,63.6,60.0,29.95,SSE,155,3.0,7.0,88,0.00,,SKC,0.00,VWS V14.01,2013-10-28 08:45:00,
2013-10-28 03:46:00,63.5,60.2,29.94,South,184,5.0,9.0,89,0.00,,SKC,0.00,VWS V14.01,2013-10-28 08:46:00,
2013-10-28 03:47:00,63.6,60.0,29.95,SSE,147,3.0,3.0,88,0.00,,SKC,0.00,VWS V14.01,2013-10-28 08:47:00,
2013-10-28 03:48:00,63.6,60.0,29.95,South,176,5.0,5.0,88,0.00,,SKC,0.00,VWS V14.01,2013-10-28 08:48:00,
2013-10-28 03:49:00,63.6,60.0,29.95,SSE,148,4.0,9.0,88,0.00,,SKC,0.00,VWS V14.01,2013-10-28 08:49:00,
2013-10-28 03:50:00,63.6,60.0,29.95,SSE,167,5.0,6.0,88,0.00,,SKC,0.00,VWS V14.01,2013-10-28 08:50:00,
2013-10-28 03:51:00,63.5,59.9,29.94,SSE,167,5.0,8.0,88,0.00,,SKC,0.00,VWS V14.01,2013-10-28 08:51:00,
2013-10-28 03:52:00,63.6,60.0,29.95,South,173,5.0,10.0,88,0.00,,SKC,0.00,VWS V14.01,2013-10-28 08:52:00,
2013-10-28 03:53:00,63.6,60.0,29.95,SSE,149,4.0,7.0,88,0.00,,SKC,0.00,VWS V14.01,2013-10-28 08:53:00,
2013-10-28 03:54:00,63.6,60.0,29.95,SSE,160,8.0,9.0,88,0.00,,SKC,0.00,VWS V14.01,2013-10-28 08:54:00,
2013-10-28 03:55:00,63.6,60.0,29.95,SSE,148,6.0,10.0,88,0.00,,SKC,0.00,VWS V14.01,2013-10-28 08:55:00,
2013-10-28 03:56:00,63.5,59.6,29.94,SSE,157,3.0,5.0,87,0.00,,SKC,0.00,VWS V14.01,2013-10-28 08:56:00,
2013-10-28 03:57:00,63.6,60.0,29.95,SE,144,9.0,11.0,88,0.00,,SKC,0.00,VWS V14.01,2013-10-28 08:57:00,
2013-10-28 03:58:00,63.6,60.0,29.95,SSE,154,5.0,10.0,88,0.00,,SKC,0.00,VWS V14.01,2013-10-28 08:58:00,
2013-10-28 03:59:00,63.6,60.0,29.95,SSE,161,4.0,5.0,88,0.00,,SKC,0.00,VWS V14.01,2013-10-28 08:59:00,
2013-10-28 04:00:00,63.6,60.0,29.95,SSE,160,6.0,6.0,88,0.00,,SKC,0.00,VWS V14.01,2013-10-28 09:00:00,
2013-10-28 04:01:00,63.6,59.7,29.94,SSE,155,6.0,7.0,87,0.00,,SKC,0.00,VWS V14.01,2013-10-28 09:01:00,
2013-10-28 04:02:00,63.6,60.0,29.95,SE,140,7.0,7.0,88,0.00,,SKC,0.00,VWS V14.01,2013-10-28 09:02:00,
2013-10-28 04:03:00,63.6,60.0,29.95,SSE,161,5.0,10.0,88,0.00,,SKC,0.00,VWS V14.01,2013-10-28 09:03:00,
2013-10-28 04:04:00,63.6,60.0,29.95,SE,137,4.0,6.0,88,0.00,,SKC,0.00,VWS V14.01,2013-10-28 09:04:00,
2013-10-28 04:05:00,63.6,60.0,29.95,SSE,167,4.0,5.0,88,0.00,,SKC,0.00,VWS V14.01,2013-10-28 09:05:00,
2013-10-28 04:06:00,63.6,59.7,29.94,SSE,161,5.0,8.0,87,0.00,,SKC,0.00,VWS V14.01,2013-10-28 09:06:00,
2013-10-28 04:07:00,63.6,60.0,29.95,South,190,6.0,6.0,88,0.00,,SKC,0.00,VWS V14.01,2013-10-28 09:07:00,
2013-10-28 04:08:00,63.6,60.0,29.95,SE,144,7.0,10.0,88,0.00,,SKC,0.00,VWS V14.01,2013-10-28 09:08:00,
2013-10-28 04:09:00,63.6,60.0,29.95,SE,143,6.0,8.0,88,0.00,,SKC,0.00,VWS V14.01,2013-10-28 09:09:00,
2013-10-28 04:10:00,63.6,60.0,29.94,SE,140,9.0,9.0,88,0.00,,SKC,0.00,VWS V14.01,2013-10-28 09:10:00,
2013-10-28 04:11:00,63.7,59.8,29.94,SE,145,3.0,11.0,87,0.00,,SKC,0.00,VWS V14.01,2013-10-28 09:11:00,
2013-10-28 04:12:00,63.6,60.0,29.95,SE,144,4.0,7.0,88,0.00,,SKC,0.00,VWS V14.01,2013-10-28 09:12:00,
2013-10-28 04:13:00,63.6,60.0,29.95,South,176,5.0,11.0,88,0.00,,SKC,0.00,VWS V14.01,2013-10-28 09:13:00,
2013-10-28 04:14:00,63.6,60.0,29.95,SSE,153,5.0,5.0,88,0.00,,SKC,0.00,VWS V14.01,2013-10-28 09:14:00,
2013-10-28 04:15:00,63.6,60.0,29.95,SSE,157,2.0,7.0,88,0.00,,SKC,0.00,VWS V14.01,2013-10-28 09:15:00,
2013-10-28 04:16:00,63.8,59.9,29.94,SSE,159,7.0,7.0,87,0.00,,SKC,0.00,VWS V14.01,2013-10-28 09:16:00,
2013-10-28 04:17:00,63.6,60.0,29.94,SSE,159,3.0,9.0,88,0.00,,SKC,0.00,VWS V14.01,2013-10-28 09:17:00,
2013-10-28 04:18:00,63.6,60.0,29.94,SSE,153,7.0,10.0,88,0.00,,SKC,0.00,VWS V14.01,2013-10-28 09:18:00,
2013-10-28 04:19:00,63.6,60.0,29.95,SE,146,11.0,11.0,88,0.00,,SKC,0.00,VWS V14.01,2013-10-28 09:19:00,
2013-10-28 04:20:00,63.6,60.0,29.94,SE,145,6.0,11.0,88,0.00,,SKC,0.00,VWS V14.01,2013-10-28 09:20:00,
2013-10-28 04:21:00,63.8,59.9,29.94,SSE,165,6.0,6.0,87,0.00,,SKC,0.00,VWS V14.01,2013-10-28 09:21:00,
2013-10-28 04:22:00,63.6,60.0,29.94,SSE,166,5.0,8.0,88,0.00,,SKC,0.00,VWS V14.01,2013-10-28 09:22:00,
2013-10-28 04:23:00,63.6,60.0,29.94,SSE,167,3.0,8.0,88,0.00,,SKC,0.00,VWS V14.01,2013-10-28 09:23:00,
2013-10-28 04:24:00,63.6,60.0,29.94,South,184,8.0,8.0,88,0.00,,SKC,0.00,VWS V14.01,2013-10-28 09:24:00,
2013-10-28 04:25:00,63.6,60.0,29.94,SSE,162,3.0,8.0,88,0.00,,SKC,0.00,VWS V14.01,2013-10-28 09:25:00,
2013-10-28 04:26:00,63.9,60.0,29.94,SE,142,9.0,9.0,87,0.00,,SKC,0.00,VWS V14.01,2013-10-28 09:26:00,
2013-10-28 04:27:00,63.6,60.0,29.94,South,179,8.0,13.0,88,0.00,,SKC,0.00,VWS V14.01,2013-10-28 09:27:00,
2013-10-28 04:28:00,63.6,60.0,29.94,South,189,11.0,12.0,88,0.00,,SKC,0.00,VWS V14.01,2013-10-28 09:28:00,
2013-10-28 04:29:00,63.6,60.0,29.94,South,184,4.0,11.0,88,0.00,,SKC,0.00,VWS V14.01,2013-10-28 09:29:00,
2013-10-28 04:30:00,63.6,60.0,29.94,South,182,10.0,10.0,88,0.00,,SKC,0.00,VWS V14.01,2013-10-28 09:30:00,
2013-10-28 04:31:00,63.9,60.0,29.94,SE,146,6.0,10.0,87,0.00,,SKC,0.00,VWS V14.01,2013-10-28 09:31:00,
2013-10-28 04:32:00,63.6,60.0,29.94,South,173,10.0,10.0,88,0.00,,SKC,0.00,VWS V14.01,2013-10-28 09:32:00,
2013-10-28 04:33:00,63.5,59.9,29.94,SE,138,4.0,10.0,88,0.00,,SKC,0.00,VWS V14.01,2013-10-28 09:33:00,
2013-10-28 04:34:00,63.6,60.0,29.94,South,186,9.0,9.0,88,0.00,,SKC,0.00,VWS V14.01,2013-10-28 09:34:00,
2013-10-28 04:35:00,63.5,59.9,29.94,SSE,150,4.0,9.0,88,0.00,,SKC,0.00,VWS V14.01,2013-10-28 09:35:00,
2013-10-28 04:36:00,63.9,60.0,29.94,SE,140,3.0,6.0,87,0.00,,SKC,0.00,VWS V14.01,2013-10-28 09:36:00,
2013-10-28 04:37:00,63.5,59.9,29.94,SSE,159,3.0,6.0,88,0.00,,SKC,0.00,VWS V14.01,2013-10-28 09:37:00,
2013-10-28 04:38:00,63.5,60.2,29.94,SE,146,3.0,4.0,89,0.00,,SKC,0.00,VWS V14.01,2013-10-28 09:38:00,
2013-10-28 04:39:00,63.5,60.2,29.94,South,169,5.0,5.0,89,0.00,,SKC,0.00,VWS V14.01,2013-10-28 09:39:00,
2013-10-28 04:40:00,63.5,60.2,29.94,SE,141,10.0,10.0,89,0.00,,SKC,0.00,VWS V14.01,2013-10-28 09:40:00,
2013-10-28 04:41:00,63.9,60.0,29.94,SSW,197,6.0,12.0,87,0.00,,SKC,0.00,VWS V14.01,2013-10-28 09:41:00,
2013-10-28 04:42:00,63.5,60.2,29.94,SSE,152,6.0,9.0,89,0.00,,SKC,0.00,VWS V14.01,2013-10-28 09:42:00,
2013-10-28 04:43:00,63.5,60.2,29.94,SSE,159,4.0,7.0,89,0.00,,SKC,0.00,VWS V14.01,2013-10-28 09:43:00,
2013-10-28 04:44:00,63.5,60.2,29.94,SSE,156,9.0,12.0,89,0.00,,SKC,0.00,VWS V14.01,2013-10-28 09:44:00,
2013-10-28 04:45:00,63.5,60.2,29.94,South,169,4.0,9.0,89,0.00,,SKC,0.00,VWS V14.01,2013-10-28 09:45:00,
2013-10-28 04:46:00,63.9,60.0,29.94,SSE,156,5.0,8.0,87,0.00,,SKC,0.00,VWS V14.01,2013-10-28 09:46:00,
2013-10-28 04:47:00,63.5,60.2,29.94,SSE,153,3.0,6.0,89,0.00,,SKC,0.00,VWS V14.01,2013-10-28 09:47:00,
2013-10-28 04:48:00,63.5,59.9,29.94,South,172,6.0,10.0,88,0.00,,SKC,0.00,VWS V14.01,2013-10-28 09:48:00,
2013-10-28 04:49:00,63.5,59.9,29.94,South,178,8.0,8.0,88,0.00,,SKC,0.00,VWS V14.01,2013-10-28 09:49:00,
2013-10-28 04:50:00,63.5,59.9,29.94,SSE,167,1.0,8.0,88,0.00,,SKC,0.00,VWS V14.01,2013-10-28 09:50:00,
2013-10-28 04:51:00,64.0,60.1,29.94,SSW,198,6.0,10.0,87,0.00,,SKC,0.00,VWS V14.01,2013-10-28 09:51:00,
2013-10-28 04:52:00,63.5,59.6,29.94,SSE,159,6.0,9.0,87,0.00,,SKC,0.00,VWS V14.01,2013-10-28 09:52:00,
2013-10-28 04:53:00,63.5,59.6,29.94,SE,144,4.0,7.0,87,0.00,,SKC,0.00,VWS V14.01,2013-10-28 09:53:00,
2013-10-28 04:54:00,63.5,59.6,29.94,SE,140,5.0,7.0,87,0.00,,SKC,0.00,VWS V14.01,2013-10-28 09:54:00,
2013-10-28 04:55:00,63.6,59.7,29.94,SSE,161,4.0,5.0,87,0.00,,SKC,0.00,VWS V14.01,2013-10-28 09:55:00,
2013-10-28 04:56:00,64.0,60.1,29.94,SSE,157,7.0,8.0,87,0.00,,SKC,0.00,VWS V14.01,2013-10-28 09:56:00,
2013-10-28 04:57:00,63.6,59.7,29.94,SSE,159,4.0,9.0,87,0.00,,SKC,0.00,VWS V14.01,2013-10-28 09:57:00,
2013-10-28 04:58:00,63.6,59.7,29.94,SSE,160,7.0,9.0,87,0.00,,SKC,0.00,VWS V14.01,2013-10-28 09:58:00,
2013-10-28 04:59:00,63.6,59.7,29.94,South,186,7.0,9.0,87,0.00,,SKC,0.00,VWS V14.01,2013-10-28 09:59:00,
2013-10-28 05:00:00,63.6,59.7,29.94,SSE,161,3.0,7.0,87,0.00,,SKC,0.00,VWS V14.01,2013-10-28 10:00:00,
2013-10-28 05:01:00,64.0,60.1,29.94,SSE,161,7.0,10.0,87,0.00,,SKC,0.00,VWS V14.01,2013-10-28 10:01:00,
2013-10-28 05:02:00,63.6,59.7,29.94,SSE,163,7.0,9.0,87,0.00,,SKC,0.00,VWS V14.01,2013-10-28 10:02:00,
2013-10-28 05:03:00,63.6,59.7,29.94,SSE,167,7.0,12.0,87,0.00,,SKC,0.00,VWS V14.01,2013-10-28 10:03:00,
2013-10-28 05:04:00,63.6,59.7,29.94,SSW,200,8.0,13.0,87,0.00,,SKC,0.00,VWS V14.01,2013-10-28 10:04:00,
2013-10-28 05:05:00,63.6,59.7,29.94,SE,144,4.0,11.0,87,0.00,,SKC,0.00,VWS V14.01,2013-10-28 10:05:00,
2013-10-28 05:06:00,64.0,60.1,29.94,South,184,6.0,6.0,87,0.00,,SKC,0.00,VWS V14.01,2013-10-28 10:06:00,
2013-10-28 05:07:00,63.6,59.7,29.94,SE,141,2.0,6.0,87,0.00,,SKC,0.00,VWS V14.01,2013-10-28 10:07:00,
2013-10-28 05:08:00,63.6,59.7,29.94,SSE,148,6.0,11.0,87,0.00,,SKC,0.00,VWS V14.01,2013-10-28 10:08:00,
2013-10-28 05:09:00,63.7,59.8,29.94,South,184,9.0,11.0,87,0.00,,SKC,0.00,VWS V14.01,2013-10-28 10:09:00,
2013-10-28 05:10:00,63.7,59.8,29.94,SE,136,5.0,11.0,87,0.00,,SKC,0.00,VWS V14.01,2013-10-28 10:10:00,
2013-10-28 05:11:00,64.1,60.2,29.94,SSE,148,11.0,11.0,87,0.00,,SKC,0.00,VWS V14.01,2013-10-28 10:11:00,
2013-10-28 05:12:00,63.7,59.8,29.94,SE,130,6.0,10.0,87,0.00,,SKC,0.00,VWS V14.01,2013-10-28 10:12:00,
2013-10-28 05:13:00,63.7,59.8,29.94,South,177,5.0,12.0,87,0.00,,SKC,0.00,VWS V14.01,2013-10-28 10:13:00,
2013-10-28 05:14:00,63.8,59.9,29.94,SE,142,7.0,10.0,87,0.00,,SKC,0.00,VWS V14.01,2013-10-28 10:14:00,
2013-10-28 05:15:00,63.8,59.9,29.94,SSE,148,4.0,7.0,87,0.00,,SKC,0.00,VWS V14.01,2013-10-28 10:15:00,
2013-10-28 05:16:00,64.1,60.2,29.94,SSE,157,8.0,11.0,87,0.00,,SKC,0.00,VWS V14.01,2013-10-28 10:16:00,
2013-10-28 05:17:00,63.8,59.9,29.94,SSE,164,5.0,11.0,87,0.00,,SKC,0.00,VWS V14.01,2013-10-28 10:17:00,
2013-10-28 05:18:00,63.8,59.9,29.94,SSW,192,5.0,5.0,87,0.00,,SKC,0.00,VWS V14.01,2013-10-28 10:18:00,
2013-10-28 05:19:00,63.8,59.9,29.94,South,175,3.0,10.0,87,0.00,,SKC,0.00,VWS V14.01,2013-10-28 10:19:00,
2013-10-28 05:20:00,63.8,59.9,29.94,SSE,167,9.0,12.0,87,0.00,,SKC,0.00,VWS V14.01,2013-10-28 10:20:00,
2013-10-28 05:21:00,64.1,60.2,29.94,South,191,9.0,9.0,87,0.00,,SKC,0.00,VWS V14.01,2013-10-28 10:21:00,
2013-10-28 05:22:00,63.8,59.9,29.94,South,191,7.0,9.0,87,0.00,,SKC,0.00,VWS V14.01,2013-10-28 10:22:00,
2013-10-28 05:23:00,63.8,59.9,29.94,SSE,160,4.0,8.0,87,0.00,,SKC,0.00,VWS V14.01,2013-10-28 10:23:00,
2013-10-28 05:24:00,63.9,60.0,29.94,SSE,163,3.0,5.0,87,0.00,,SKC,0.00,VWS V14.01,2013-10-28 10:24:00,
2013-10-28 05:25:00,63.8,59.9,29.94,South,178,9.0,12.0,87,0.00,,SKC,0.00,VWS V14.01,2013-10-28 10:25:00,
2013-10-28 05:26:00,64.1,60.2,29.94,South,180,5.0,7.0,87,0.00,,SKC,0.00,VWS V14.01,2013-10-28 10:26:00,
2013-10-28 05:27:00,63.9,60.0,29.94,South,173,6.0,10.0,87,0.00,,SKC,0.00,VWS V14.01,2013-10-28 10:27:00,
2013-10-28 05:28:00,63.9,60.0,29.94,SSE,167,6.0,6.0,87,0.00,,SKC,0.00,VWS V14.01,2013-10-28 10:28:00,
2013-10-28 05:29:00,63.9,60.0,29.94,SSE,167,4.0,7.0,87,0.00,,SKC,0.00,VWS V14.01,2013-10-28 10:29:00,
2013-10-28 05:30:00,63.9,60.0,29.94,SSE,149,5.0,10.0,87,0.00,,SKC,0.00,VWS V14.01,2013-10-28 10:30:00,
2013-10-28 05:31:00,64.2,60.3,29.94,SSW,194,6.0,9.0,87,0.00,,SKC,0.00,VWS V14.01,2013-10-28 10:31:00,
2013-10-28 05:32:00,63.9,60.0,29.94,South,170,3.0,4.0,87,0.00,,SKC,0.00,VWS V14.01,2013-10-28 10:32:00,
2013-10-28 05:33:00,63.9,60.0,29.94,SE,142,9.0,11.0,87,0.00,,SKC,0.00,VWS V14.01,2013-10-28 10:33:00,
2013-10-28 05:34:00,63.9,60.0,29.94,SSE,156,2.0,9.0,87,0.00,,SKC,0.00,VWS V14.01,2013-10-28 10:34:00,
2013-10-28 05:35:00,63.9,60.0,29.94,South,187,3.0,6.0,87,0.00,,SKC,0.00,VWS V14.01,2013-10-28 10:35:00,
2013-10-28 05:36:00,64.2,60.3,29.94,South,184,7.0,9.0,87,0.00,,SKC,0.00,VWS V14.01,2013-10-28 10:36:00,
2013-10-28 05:37:00,63.9,60.0,29.94,SSE,159,3.0,5.0,87,0.00,,SKC,0.00,VWS V14.01,2013-10-28 10:37:00,
2013-10-28 05:38:00,63.9,60.0,29.94,SE,146,5.0,10.0,87,0.00,,SKC,0.00,VWS V14.01,2013-10-28 10:38:00,
2013-10-28 05:39:00,63.9,60.0,29.94,SSW,205,9.0,9.0,87,0.00,,SKC,0.00,VWS V14.01,2013-10-28 10:39:00,
2013-10-28 05:40:00,63.9,60.0,29.94,SE,137,7.0,12.0,87,0.00,,SKC,0.00,VWS V14.01,2013-10-28 10:40:00,
2013-10-28 05:41:00,64.2,60.3,29.94,SSE,167,4.0,5.0,87,0.00,,SKC,0.00,VWS V14.01,2013-10-28 10:41:00,
2013-10-28 05:42:00,63.9,60.0,29.94,SSE,164,5.0,7.0,87,0.00,,SKC,0.00,VWS V14.01,2013-10-28 10:42:00,
2013-10-28 05:43:00,63.9,60.0,29.94,SSE,163,5.0,7.0,87,0.00,,SKC,0.00,VWS V14.01,2013-10-28 10:43:00,
2013-10-28 05:44:00,63.9,60.0,29.94,SE,136,6.0,7.0,87,0.00,,SKC,0.00,VWS V14.01,2013-10-28 10:44:00,
2013-10-28 05:45:00,63.9,60.0,29.94,SE,137,7.0,8.0,87,0.00,,SKC,0.00,VWS V14.01,2013-10-28 10:45:00,
2013-10-28 05:46:00,64.2,60.3,29.94,South,177,4.0,4.0,87,0.00,,SKC,0.00,VWS V14.01,2013-10-28 10:46:00,
2013-10-28 05:47:00,64.0,60.1,29.94,South,169,9.0,14.0,87,0.00,,SKC,0.00,VWS V14.01,2013-10-28 10:47:00,
2013-10-28 05:48:00,64.0,60.1,29.94,SE,140,6.0,9.0,87,0.00,,SKC,0.00,VWS V14.01,2013-10-28 10:48:00,
2013-10-28 05:49:00,64.0,60.1,29.94,South,180,6.0,12.0,87,0.00,,SKC,0.00,VWS V14.01,2013-10-28 10:49:00,
2013-10-28 05:50:00,64.0,60.1,29.94,SSW,198,7.0,10.0,87,0.00,,SKC,0.00,VWS V14.01,2013-10-28 10:50:00,
2013-10-28 05:51:00,64.2,60.3,29.94,SSE,160,6.0,7.0,87,0.00,,SKC,0.00,VWS V14.01,2013-10-28 10:51:00,
2013-10-28 05:52:00,64.0,60.1,29.94,SSE,163,5.0,11.0,87,0.00,,SKC,0.00,VWS V14.01,2013-10-28 10:52:00,
2013-10-28 05:53:00,64.0,60.1,29.94,South,188,5.0,10.0,87,0.00,,SKC,0.00,VWS V14.01,2013-10-28 10:53:00,
2013-10-28 05:54:00,64.0,60.1,29.94,SSE,159,8.0,12.0,87,0.00,,SKC,0.00,VWS V14.01,2013-10-28 10:54:00,
2013-10-28 05:55:00,64.0,60.1,29.94,South,183,6.0,9.0,87,0.00,,SKC,0.00,VWS V14.01,2013-10-28 10:55:00,
2013-10-28 05:56:00,64.2,60.3,29.94,South,171,9.0,10.0,87,0.00,,SKC,0.00,VWS V14.01,2013-10-28 10:56:00,
2013-10-28 05:57:00,64.0,60.1,29.94,South,172,5.0,6.0,87,0.00,,SKC,0.00,VWS V14.01,2013-10-28 10:57:00,
2013-10-28 05:58:00,64.0,60.1,29.94,SSE,157,5.0,9.0,87,0.00,,SKC,0.00,VWS V14.01,2013-10-28 10:58:00,
2013-10-28 05:59:00,64.0,60.1,29.94,SSE,159,10.0,10.0,87,0.00,,SKC,0.00,VWS V14.01,2013-10-28 10:59:00,
2013-10-28 06:00:00,64.0,60.1,29.94,SSE,161,6.0,10.0,87,0.00,,SKC,0.00,VWS V14.01,2013-10-28 11:00:00,
2013-10-28 06:01:00,64.2,60.3,29.94,SSE,157,5.0,5.0,87,0.00,,SKC,0.00,VWS V14.01,2013-10-28 11:01:00,
2013-10-28 06:02:00,64.0,60.1,29.94,SSE,155,5.0,10.0,87,0.00,,SKC,0.00,VWS V14.01,2013-10-28 11:02:00,
2013-10-28 06:03:00,64.0,60.1,29.94,SSE,163,9.0,13.0,87,0.00,,SKC,0.00,VWS V14.01,2013-10-28 11:03:00,
2013-10-28 06:04:00,64.1,60.2,29.94,South,173,6.0,13.0,87,0.00,,SKC,0.00,VWS V14.01,2013-10-28 11:04:00,
2013-10-28 06:05:00,64.1,60.2,29.94,SSE,159,9.0,11.0,87,0.00,,SKC,0.00,VWS V14.01,2013-10-28 11:05:00,
2013-10-28 06:06:00,64.2,60.3,29.94,South,182,7.0,10.0,87,0.00,,SKC,0.00,VWS V14.01,2013-10-28 11:06:00,
2013-10-28 06:07:00,64.1,60.2,29.94,SSE,164,6.0,10.0,87,0.00,,SKC,0.00,VWS V14.01,2013-10-28 11:07:00,
2013-10-28 06:08:00,64.1,60.2,29.94,South,178,12.0,13.0,87,0.00,,SKC,0.00,VWS V14.01,2013-10-28 11:08:00,
2013-10-28 06:09:00,64.1,60.2,29.94,SSE,161,5.0,12.0,87,0.00,,SKC,0.00,VWS V14.01,2013-10-28 11:09:00,
2013-10-28 06:10:00,64.1,60.2,29.94,SSE,157,9.0,11.0,87,0.00,,SKC,0.00,VWS V14.01,2013-10-28 11:10:00,
2013-10-28 06:11:00,64.2,60.3,29.95,SSE,153,10.0,10.0,87,0.00,,SKC,0.00,VWS V14.01,2013-10-28 11:11:00,
2013-10-28 06:12:00,64.1,60.2,29.94,South,183,5.0,9.0,87,0.00,,SKC,0.00,VWS V14.01,2013-10-28 11:12:00,
2013-10-28 06:13:00,64.1,60.2,29.94,SSE,163,5.0,7.0,87,0.00,,SKC,0.00,VWS V14.01,2013-10-28 11:13:00,
2013-10-28 06:14:00,64.1,60.2,29.94,SE,140,8.0,11.0,87,0.00,,SKC,0.00,VWS V14.01,2013-10-28 11:14:00,
2013-10-28 06:15:00,64.1,60.2,29.94,SSW,205,10.0,11.0,87,0.00,,SKC,0.00,VWS V14.01,2013-10-28 11:15:00,
2013-10-28 06:16:00,64.3,60.3,29.94,South,181,3.0,8.0,87,0.00,,SKC,0.00,VWS V14.01,2013-10-28 11:16:00,
2013-10-28 06:17:00,64.1,60.2,29.94,South,180,8.0,10.0,87,0.00,,SKC,0.00,VWS V14.01,2013-10-28 11:17:00,
2013-10-28 06:18:00,64.1,60.2,29.94,SSE,152,10.0,10.0,87,0.00,,SKC,0.00,VWS V14.01,2013-10-28 11:18:00,
2013-10-28 06:19:00,64.1,60.2,29.94,SSE,149,7.0,10.0,87,0.00,,SKC,0.00,VWS V14.01,2013-10-28 11:19:00,
2013-10-28 06:20:00,64.1,60.2,29.94,SSE,157,5.0,9.0,87,0.00,,SKC,0.00,VWS V14.01,2013-10-28 11:20:00,
2013-10-28 06:21:00,64.3,60.3,29.94,SSE,167,5.0,8.0,87,0.00,,SKC,0.00,VWS V14.01,2013-10-28 11:21:00,
2013-10-28 06:22:00,64.1,60.2,29.94,SSE,167,6.0,13.0,87,0.00,,SKC,0.00,VWS V14.01,2013-10-28 11:22:00,
2013-10-28 06:23:00,64.1,60.2,29.94,SSE,167,3.0,8.0,87,0.00,,SKC,0.00,VWS V14.01,2013-10-28 11:23:00,
2013-10-28 06:24:00,64.1,60.2,29.94,SSE,161,7.0,12.0,87,0.00,,SKC,0.00,VWS V14.01,2013-10-28 11:24:00,
2013-10-28 06:25:00,64.1,60.2,29.94,South,189,10.0,10.0,87,0.00,,SKC,0.00,VWS V14.01,2013-10-28 11:25:00,
2013-10-28 06:26:00,64.4,60.5,29.94,SSE,167,4.0,5.0,87,0.00,,SKC,0.00,VWS V14.01,2013-10-28 11:26:00,
2013-10-28 06:27:00,64.2,60.3,29.94,South,190,9.0,11.0,87,0.00,,SKC,0.00,VWS V14.01,2013-10-28 11:27:00,
2013-10-28 06:28:00,64.2,60.3,29.94,ESE,120,7.0,11.0,87,0.00,,SKC,0.00,VWS V14.01,2013-10-28 11:28:00,
2013-10-28 06:29:00,64.2,60.3,29.94,SSE,164,4.0,9.0,87,0.00,,SKC,0.00,VWS V14.01,2013-10-28 11:29:00,
2013-10-28 06:30:00,64.2,60.3,29.94,South,179,9.0,10.0,87,0.00,,SKC,0.00,VWS V14.01,2013-10-28 11:30:00,
2013-10-28 06:31:00,64.4,60.5,29.94,SSE,152,6.0,9.0,87,0.00,,SKC,0.00,VWS V14.01,2013-10-28 11:31:00,
2013-10-28 06:32:00,64.2,60.3,29.94,South,190,8.0,11.0,87,0.00,,SKC,0.00,VWS V14.01,2013-10-28 11:32:00,
2013-10-28 06:33:00,64.2,60.3,29.94,South,180,5.0,11.0,87,0.00,,SKC,0.00,VWS V14.01,2013-10-28 11:33:00,
2013-10-28 06:34:00,64.2,60.3,29.94,SSE,155,5.0,10.0,87,0.00,,SKC,0.00,VWS V14.01,2013-10-28 11:34:00,
2013-10-28 06:35:00,64.2,60.3,29.94,SSW,194,10.0,10.0,87,0.00,,SKC,0.00,VWS V14.01,2013-10-28 11:35:00,
2013-10-28 06:36:00,64.5,60.5,29.95,SSE,168,5.0,6.0,87,0.00,,SKC,0.00,VWS V14.01,2013-10-28 11:36:00,
2013-10-28 06:37:00,64.2,60.3,29.95,South,186,4.0,9.0,87,0.00,,SKC,0.00,VWS V14.01,2013-10-28 11:37:00,
2013-10-28 06:38:00,64.2,60.3,29.94,SSE,149,4.0,10.0,87,0.00,,SKC,0.00,VWS V14.01,2013-10-28 11:38:00,
2013-10-28 06:39:00,64.2,60.3,29.94,SSE,156,3.0,9.0,87,0.00,,SKC,0.00,VWS V14.01,2013-10-28 11:39:00,
2013-10-28 06:40:00,64.2,60.3,29.94,South,174,4.0,7.0,87,0.00,,SKC,0.00,VWS V14.01,2013-10-28 11:40:00,
2013-10-28 06:41:00,64.5,60.5,29.94,South,178,4.0,8.0,87,0.00,,SKC,0.00,VWS V14.01,2013-10-28 11:41:00,
2013-10-28 06:42:00,64.2,60.3,29.94,SSE,163,4.0,9.0,87,0.00,,SKC,0.00,VWS V14.01,2013-10-28 11:42:00,
2013-10-28 06:43:00,64.2,60.3,29.94,SSE,160,5.0,7.0,87,0.00,,SKC,0.00,VWS V14.01,2013-10-28 11:43:00,
2013-10-28 06:44:00,64.2,60.3,29.94,South,175,4.0,9.0,87,0.00,,SKC,0.00,VWS V14.01,2013-10-28 11:44:00,
2013-10-28 06:45:00,64.2,60.3,29.94,South,188,4.0,7.0,87,0.00,,SKC,0.00,VWS V14.01,2013-10-28 11:45:00,
2013-10-28 06:46:00,64.5,60.5,29.94,South,180,6.0,7.0,87,0.00,,SKC,0.00,VWS V14.01,2013-10-28 11:46:00,
2013-10-28 06:47:00,64.2,60.3,29.94,South,190,5.0,11.0,87,0.00,,SKC,0.00,VWS V14.01,2013-10-28 11:47:00,
2013-10-28 06:48:00,64.2,60.3,29.94,SSE,150,7.0,10.0,87,0.00,,SKC,0.00,VWS V14.01,2013-10-28 11:48:00,
2013-10-28 06:49:00,64.2,60.3,29.94,SSE,167,7.0,9.0,87,0.00,,SKC,0.00,VWS V14.01,2013-10-28 11:49:00,
2013-10-28 06:50:00,64.2,60.3,29.94,SSE,153,13.0,13.0,87,0.00,,SKC,0.00,VWS V14.01,2013-10-28 11:50:00,
2013-10-28 06:51:00,64.5,60.5,29.94,SSE,168,7.0,7.0,87,0.00,,SKC,0.00,VWS V14.01,2013-10-28 11:51:00,
2013-10-28 06:52:00,64.2,60.3,29.94,SSE,165,4.0,11.0,87,0.00,,SKC,0.00,VWS V14.01,2013-10-28 11:52:00,
2013-10-28 06:53:00,64.2,60.3,29.94,South,172,7.0,7.0,87,0.00,,SKC,0.00,VWS V14.01,2013-10-28 11:53:00,
2013-10-28 06:54:00,64.2,60.3,29.94,SSE,165,5.0,11.0,87,0.00,,SKC,0.00,VWS V14.01,2013-10-28 11:54:00,
2013-10-28 06:55:00,64.2,60.3,29.94,SSE,153,6.0,12.0,87,0.00,,SKC,0.00,VWS V14.01,2013-10-28 11:55:00,
2013-10-28 06:56:00,64.5,60.5,29.94,South,170,8.0,9.0,87,0.00,,SKC,0.00,VWS V14.01,2013-10-28 11:56:00,
2013-10-28 06:57:00,64.2,60.3,29.94,South,188,5.0,7.0,87,0.00,,SKC,0.00,VWS V14.01,2013-10-28 11:57:00,
2013-10-28 06:58:00,64.2,60.3,29.94,SSE,163,4.0,10.0,87,0.00,,SKC,0.00,VWS V14.01,2013-10-28 11:58:00,
2013-10-28 06:59:00,64.2,60.3,29.94,SSE,161,3.0,6.0,87,0.00,,SKC,0.00,VWS V14.01,2013-10-28 11:59:00,
2013-10-28 07:00:00,64.2,60.3,29.94,South,173,7.0,7.0,87,0.00,,SKC,0.00,VWS V14.01,2013-10-28 12:00:00,
2013-10-28 07:01:00,64.6,60.7,29.95,SSE,152,7.0,7.0,87,0.00,,SKC,0.00,VWS V14.01,2013-10-28 12:01:00,
2013-10-28 07:02:00,64.2,60.3,29.94,South,185,6.0,8.0,87,0.00,,SKC,0.00,VWS V14.01,2013-10-28 12:02:00,
2013-10-28 07:03:00,64.2,60.3,29.94,SE,128,10.0,10.0,87,0.00,,SKC,0.00,VWS V14.01,2013-10-28 12:03:00,
2013-10-28 07:04:00,64.2,60.3,29.94,SSE,155,10.0,12.0,87,0.00,,SKC,0.00,VWS V14.01,2013-10-28 12:04:00,
2013-10-28 07:05:00,64.2,60.3,29.94,South,188,8.0,10.0,87,0.00,,SKC,0.00,VWS V14.01,2013-10-28 12:05:00,
2013-10-28 07:06:00,64.6,60.3,29.95,South,171,6.0,8.0,86,0.00,,SKC,0.00,VWS V14.01,2013-10-28 12:06:00,
2013-10-28 07:07:00,64.2,60.3,29.94,SSE,163,7.0,8.0,87,0.00,,SKC,0.00,VWS V14.01,2013-10-28 12:07:00,
2013-10-28 07:08:00,64.2,60.3,29.94,South,188,7.0,9.0,87,0.00,,SKC,0.00,VWS V14.01,2013-10-28 12:08:00,
2013-10-28 07:09:00,64.3,60.3,29.94,SSE,167,7.0,7.0,87,0.00,,SKC,0.00,VWS V14.01,2013-10-28 12:09:00,
2013-10-28 07:10:00,64.2,60.3,29.95,SSE,168,9.0,10.0,87,0.00,,SKC,0.00,VWS V14.01,2013-10-28 12:10:00,
2013-10-28 07:11:00,64.6,60.3,29.95,South,182,4.0,7.0,86,0.00,,SKC,0.00,VWS V14.01,2013-10-28 12:11:00,
2013-10-28 07:12:00,64.3,60.3,29.94,South,177,6.0,10.0,87,0.00,,SKC,0.00,VWS V14.01,2013-10-28 12:12:00,
2013-10-28 07:13:00,64.3,60.3,29.94,SSE,165,6.0,11.0,87,0.00,,SKC,0.00,VWS V14.01,2013-10-28 12:13:00,
2013-10-28 07:14:00,64.3,60.3,29.94,South,180,8.0,11.0,87,0.00,,SKC,0.00,VWS V14.01,2013-10-28 12:14:00,
2013-10-28 07:15:00,64.3,60.3,29.94,South,183,8.0,8.0,87,0.00,,SKC,0.00,VWS V14.01,2013-10-28 12:15:00,
2013-10-28 07:16:00,64.7,60.4,29.95,SSE,165,3.0,5.0,86,0.00,,SKC,0.00,VWS V14.01,2013-10-28 12:16:00,
2013-10-28 07:17:00,64.3,60.3,29.94,SSE,150,10.0,10.0,87,0.00,,SKC,0.00,VWS V14.01,2013-10-28 12:17:00,
2013-10-28 07:18:00,64.3,60.3,29.94,SSE,159,6.0,11.0,87,0.00,,SKC,0.00,VWS V14.01,2013-10-28 12:18:00,
2013-10-28 07:19:00,64.3,60.3,29.94,South,173,7.0,13.0,87,0.00,,SKC,0.00,VWS V14.01,2013-10-28 12:19:00,
2013-10-28 07:20:00,64.3,60.3,29.94,SSE,163,5.0,8.0,87,0.00,,SKC,0.00,VWS V14.01,2013-10-28 12:20:00,
2013-10-28 07:21:00,64.7,60.4,29.95,South,169,6.0,6.0,86,0.00,,SKC,0.00,VWS V14.01,2013-10-28 12:21:00,
2013-10-28 07:22:00,64.3,60.3,29.94,South,185,7.0,11.0,87,0.00,,SKC,0.00,VWS V14.01,2013-10-28 12:22:00,
2013-10-28 07:23:00,64.3,60.3,29.94,South,183,7.0,7.0,87,0.00,,SKC,0.00,VWS V14.01,2013-10-28 12:23:00,
2013-10-28 07:24:00,64.4,60.5,29.94,SSE,167,5.0,9.0,87,0.00,,SKC,0.00,VWS V14.01,2013-10-28 12:24:00,
2013-10-28 07:25:00,64.4,60.5,29.94,SE,129,5.0,10.0,87,0.00,,SKC,0.00,VWS V14.01,2013-10-28 12:25:00,
2013-10-28 07:26:00,64.8,60.5,29.95,SSE,157,4.0,5.0,86,0.00,,SKC,0.00,VWS V14.01,2013-10-28 12:26:00,
2013-10-28 07:27:00,64.4,60.5,29.94,South,180,11.0,11.0,87,0.00,,SKC,0.00,VWS V14.01,2013-10-28 12:27:00,
2013-10-28 07:28:00,64.4,60.5,29.94,SSE,160,8.0,11.0,87,0.00,,SKC,0.00,VWS V14.01,2013-10-28 12:28:00,
2013-10-28 07:29:00,64.4,60.5,29.94,SSE,162,7.0,10.0,87,0.00,,SKC,0.00,VWS V14.01,2013-10-28 12:29:00,
2013-10-28 07:30:00,64.4,60.5,29.94,South,176,7.0,9.0,87,0.00,,SKC,0.00,VWS V14.01,2013-10-28 12:30:00,
2013-10-28 07:31:00,64.8,60.5,29.95,South,170,5.0,6.0,86,0.00,,SKC,0.00,VWS V14.01,2013-10-28 12:31:00,
2013-10-28 07:32:00,64.4,60.5,29.94,SSE,153,9.0,11.0,87,0.00,,SKC,0.00,VWS V14.01,2013-10-28 12:32:00,
2013-10-28 07:33:00,64.4,60.5,29.94,SSE,159,5.0,9.0,87,0.00,,SKC,0.00,VWS V14.01,2013-10-28 12:33:00,
2013-10-28 07:34:00,64.5,60.5,29.95,South,170,6.0,6.0,87,0.00,,SKC,0.00,VWS V14.01,2013-10-28 12:34:00,
2013-10-28 07:35:00,64.5,60.5,29.95,South,175,5.0,10.0,87,0.00,,SKC,0.00,VWS V14.01,2013-10-28 12:35:00,
2013-10-28 07:36:00,64.8,60.5,29.95,SSE,168,3.0,5.0,86,0.00,,SKC,0.00,VWS V14.01,2013-10-28 12:36:00,
2013-10-28 07:37:00,64.5,60.5,29.94,SSE,163,11.0,11.0,87,0.00,,SKC,0.00,VWS V14.01,2013-10-28 12:37:00,
2013-10-28 07:38:00,64.5,60.5,29.94,SSE,165,5.0,11.0,87,0.00,,SKC,0.00,VWS V14.01,2013-10-28 12:38:00,
2013-10-28 07:39:00,64.5,60.5,29.94,South,188,7.0,9.0,87,0.00,,SKC,0.00,VWS V14.01,2013-10-28 12:39:00,
2013-10-28 07:40:00,64.5,60.5,29.94,South,173,7.0,11.0,87,0.00,,SKC,0.00,VWS V14.01,2013-10-28 12:40:00,
2013-10-28 07:41:00,64.8,60.8,29.96,SSW,192,7.0,7.0,87,0.00,,SKC,0.00,VWS V14.01,2013-10-28 12:41:00,
2013-10-28 07:42:00,64.5,60.5,29.94,SSE,165,9.0,12.0,87,0.00,,SKC,0.00,VWS V14.01,2013-10-28 12:42:00,
2013-10-28 07:43:00,64.5,60.5,29.94,SE,146,5.0,11.0,87,0.00,,SKC,0.00,VWS V14.01,2013-10-28 12:43:00,
2013-10-28 07:44:00,64.5,60.5,29.94,South,186,6.0,11.0,87,0.00,,SKC,0.00,VWS V14.01,2013-10-28 12:44:00,
2013-10-28 07:45:00,64.5,60.5,29.94,SSE,157,3.0,9.0,87,0.00,,SKC,0.00,VWS V14.01,2013-10-28 12:45:00,
2013-10-28 07:46:00,64.9,60.9,29.96,SSE,153,2.0,4.0,87,0.00,,SKC,0.00,VWS V14.01,2013-10-28 12:46:00,
2013-10-28 07:47:00,64.5,60.5,29.94,SSE,160,5.0,9.0,87,0.00,,SKC,0.00,VWS V14.01,2013-10-28 12:47:00,
2013-10-28 07:48:00,64.5,60.5,29.94,South,180,10.0,10.0,87,0.00,,SKC,0.00,VWS V14.01,2013-10-28 12:48:00,
2013-10-28 07:49:00,64.5,60.5,29.94,SSE,166,3.0,10.0,87,0.00,,SKC,0.00,VWS V14.01,2013-10-28 12:49:00,
2013-10-28 07:50:00,64.5,60.5,29.94,South,169,9.0,9.0,87,0.00,,SKC,0.00,VWS V14.01,2013-10-28 12:50:00,
2013-10-28 07:51:00,64.9,60.9,29.96,South,175,4.0,8.0,87,0.00,,SKC,0.00,VWS V14.01,2013-10-28 12:51:00,
2013-10-28 07:52:00,64.5,60.5,29.94,South,175,4.0,9.0,87,0.00,,SKC,0.00,VWS V14.01,2013-10-28 12:52:00,
2013-10-28 07:53:00,64.5,60.5,29.94,SSE,158,5.0,9.0,87,0.00,,SKC,0.00,VWS V14.01,2013-10-28 12:53:00,
2013-10-28 07:54:00,64.5,60.5,29.94,SSE,160,3.0,6.0,87,0.00,,SKC,0.00,VWS V14.01,2013-10-28 12:54:00,
2013-10-28 07:55:00,64.5,60.5,29.94,South,169,4.0,10.0,87,0.00,,SKC,0.00,VWS V14.01,2013-10-28 12:55:00,
2013-10-28 07:56:00,65.0,61.0,29.96,South,175,5.0,8.0,87,0.00,,SKC,0.00,VWS V14.01,2013-10-28 12:56:00,
2013-10-28 07:57:00,64.5,60.5,29.94,SSE,162,6.0,9.0,87,0.00,,SKC,0.00,VWS V14.01,2013-10-28 12:57:00,
2013-10-28 07:58:00,64.5,60.5,29.94,SSE,166,4.0,7.0,87,0.00,,SKC,0.00,VWS V14.01,2013-10-28 12:58:00,
2013-10-28 07:59:00,64.5,60.5,29.95,South,171,5.0,8.0,87,0.00,,SKC,0.00,VWS V14.01,2013-10-28 12:59:00,
2013-10-28 08:00:00,64.6,60.7,29.95,South,183,5.0,7.0,87,0.00,,SKC,0.00,VWS V14.01,2013-10-28 13:00:00,
2013-10-28 08:01:00,65.0,60.7,29.96,South,180,10.0,11.0,86,0.00,,SKC,0.00,VWS V14.01,2013-10-28 13:01:00,
2013-10-28 08:02:00,64.6,60.3,29.95,South,169,9.0,10.0,86,0.00,,SKC,0.00,VWS V14.01,2013-10-28 13:02:00,
2013-10-28 08:03:00,64.6,60.3,29.95,South,188,7.0,10.0,86,0.00,,SKC,0.00,VWS V14.01,2013-10-28 13:03:00,
2013-10-28 08:04:00,64.6,60.3,29.94,SSE,160,6.0,7.0,86,0.00,,SKC,0.00,VWS V14.01,2013-10-28 13:04:00,
2013-10-28 08:05:00,64.6,60.3,29.95,SSE,168,3.0,8.0,86,0.00,,SKC,0.00,VWS V14.01,2013-10-28 13:05:00,
2013-10-28 08:06:00,65.1,60.8,29.97,South,177,9.0,9.0,86,0.00,,SKC,0.00,VWS V14.01,2013-10-28 13:06:00,
2013-10-28 08:07:00,64.6,60.3,29.95,South,172,6.0,7.0,86,0.00,,SKC,0.00,VWS V14.01,2013-10-28 13:07:00,
2013-10-28 08:08:00,64.6,60.3,29.95,South,177,5.0,11.0,86,0.00,,SKC,0.00,VWS V14.01,2013-10-28 13:08:00,
2013-10-28 08:09:00,64.7,60.4,29.95,South,179,6.0,10.0,86,0.00,,SKC,0.00,VWS V14.01,2013-10-28 13:09:00,
2013-10-28 08:10:00,64.6,60.3,29.95,South,176,6.0,7.0,86,0.00,,SKC,0.00,VWS V14.01,2013-10-28 13:10:00,
2013-10-28 08:11:00,65.1,60.8,29.97,South,180,3.0,5.0,86,0.00,,SKC,0.00,VWS V14.01,2013-10-28 13:11:00,
2013-10-28 08:12:00,64.7,60.4,29.95,SSE,148,7.0,10.0,86,0.00,,SKC,0.00,VWS V14.01,2013-10-28 13:12:00,
2013-10-28 08:13:00,64.7,60.4,29.95,South,176,6.0,10.0,86,0.00,,SKC,0.00,VWS V14.01,2013-10-28 13:13:00,
2013-10-28 08:14:00,64.7,60.4,29.95,SSE,163,3.0,7.0,86,0.00,,SKC,0.00,VWS V14.01,2013-10-28 13:14:00,
2013-10-28 08:15:00,64.7,60.4,29.95,SSE,164,6.0,6.0,86,0.00,,SKC,0.00,VWS V14.01,2013-10-28 13:15:00,
2013-10-28 08:16:00,65.2,60.9,29.97,South,171,5.0,6.0,86,0.00,,SKC,0.00,VWS V14.01,2013-10-28 13:16:00,
2013-10-28 08:17:00,64.7,60.4,29.95,SSE,161,2.0,10.0,86,0.00,,SKC,0.00,VWS V14.01,2013-10-28 13:17:00,
2013-10-28 08:18:00,64.7,60.4,29.95,SSE,163,7.0,7.0,86,0.00,,SKC,0.00,VWS V14.01,2013-10-28 13:18:00,
2013-10-28 08:19:00,64.7,60.4,29.95,SE,146,3.0,7.0,86,0.00,,SKC,0.00,VWS V14.01,2013-10-28 13:19:00,
2013-10-28 08:20:00,64.7,60.4,29.95,SSE,161,7.0,7.0,86,0.00,,SKC,0.00,VWS V14.01,2013-10-28 13:20:00,
2013-10-28 08:21:00,65.1,61.1,29.97,South,188,8.0,14.0,87,0.00,,SKC,0.00,VWS V14.01,2013-10-28 13:21:00,
2013-10-28 08:22:00,64.7,60.4,29.95,SSE,167,3.0,9.0,86,0.00,,SKC,0.00,VWS V14.01,2013-10-28 13:22:00,
2013-10-28 08:23:00,64.7,60.4,29.95,SSW,200,6.0,6.0,86,0.00,,SKC,0.00,VWS V14.01,2013-10-28 13:23:00,
2013-10-28 08:24:00,64.8,60.5,29.95,SE,130,5.0,9.0,86,0.00,,SKC,0.00,VWS V14.01,2013-10-28 13:24:00,
2013-10-28 08:25:00,64.8,60.5,29.95,SSE,168,6.0,7.0,86,0.00,,SKC,0.00,VWS V14.01,2013-10-28 13:25:00,
2013-10-28 08:26:00,65.3,61.3,29.98,SSE,165,5.0,5.0,87,0.00,,SKC,0.00,VWS V14.01,2013-10-28 13:26:00,
2013-10-28 08:27:00,64.8,60.5,29.95,SE,146,6.0,6.0,86,0.00,,SKC,0.00,VWS V14.01,2013-10-28 13:27:00,
2013-10-28 08:28:00,64.8,60.5,29.95,SSE,159,4.0,9.0,86,0.00,,SKC,0.00,VWS V14.01,2013-10-28 13:28:00,
2013-10-28 08:29:00,64.8,60.5,29.95,South,182,6.0,9.0,86,0.00,,SKC,0.00,VWS V14.01,2013-10-28 13:29:00,
2013-10-28 08:30:00,64.8,60.5,29.95,South,180,5.0,6.0,86,0.00,,SKC,0.00,VWS V14.01,2013-10-28 13:30:00,
2013-10-28 08:31:00,65.3,61.3,29.98,SSE,153,3.0,6.0,87,0.00,,SKC,0.00,VWS V14.01,2013-10-28 13:31:00,
2013-10-28 08:32:00,64.8,60.5,29.95,SSE,167,4.0,7.0,86,0.00,,SKC,0.00,VWS V14.01,2013-10-28 13:32:00,
2013-10-28 08:33:00,64.8,60.5,29.95,SSE,165,4.0,6.0,86,0.00,,SKC,0.00,VWS V14.01,2013-10-28 13:33:00,
2013-10-28 08:34:00,64.8,60.5,29.95,SSE,167,3.0,6.0,86,0.00,,SKC,0.00,VWS V14.01,2013-10-28 13:34:00,
2013-10-28 08:35:00,64.8,60.5,29.95,SSE,165,5.0,5.0,86,0.00,,SKC,0.00,VWS V14.01,2013-10-28 13:35:00,
2013-10-28 08:36:00,65.3,61.3,29.98,SSW,197,12.0,12.0,87,0.00,,SKC,0.00,VWS V14.01,2013-10-28 13:36:00,
2013-10-28 08:37:00,64.8,60.8,29.96,SSE,162,3.0,7.0,87,0.00,,SKC,0.00,VWS V14.01,2013-10-28 13:37:00,
2013-10-28 08:38:00,64.8,60.8,29.96,South,175,5.0,6.0,87,0.00,,SKC,0.00,VWS V14.01,2013-10-28 13:38:00,
2013-10-28 08:39:00,64.8,60.8,29.96,South,188,6.0,6.0,87,0.00,,SKC,0.00,VWS V14.01,2013-10-28 13:39:00,
2013-10-28 08:40:00,64.8,60.8,29.96,South,188,2.0,7.0,87,0.00,,SKC,0.00,VWS V14.01,2013-10-28 13:40:00,
2013-10-28 08:41:00,65.3,61.3,29.98,SSE,166,4.0,7.0,87,0.00,,SKC,0.00,VWS V14.01,2013-10-28 13:41:00,
2013-10-28 08:42:00,64.9,60.9,29.96,SSE,153,7.0,9.0,87,0.00,,SKC,0.00,VWS V14.01,2013-10-28 13:42:00,
2013-10-28 08:43:00,64.9,60.9,29.96,SSE,156,5.0,9.0,87,0.00,,SKC,0.00,VWS V14.01,2013-10-28 13:43:00,
2013-10-28 08:44:00,64.9,60.9,29.96,SSE,153,3.0,6.0,87,0.00,,SKC,0.00,VWS V14.01,2013-10-28 13:44:00,
2013-10-28 08:45:00,64.9,60.9,29.96,SSE,154,3.0,4.0,87,0.00,,SKC,0.00,VWS V14.01,2013-10-28 13:45:00,
2013-10-28 08:46:00,65.3,61.3,29.98,SSE,159,5.0,10.0,87,0.00,,SKC,0.00,VWS V14.01,2013-10-28 13:46:00,
2013-10-28 08:47:00,64.9,60.9,29.96,South,186,7.0,10.0,87,0.00,,SKC,0.00,VWS V14.01,2013-10-28 13:47:00,
2013-10-28 08:48:00,64.9,60.9,29.96,SSE,165,6.0,11.0,87,0.00,,SKC,0.00,VWS V14.01,2013-10-28 13:48:00,
2013-10-28 08:49:00,64.9,60.9,29.96,SSW,205,8.0,8.0,87,0.00,,SKC,0.00,VWS V14.01,2013-10-28 13:49:00,
2013-10-28 08:50:00,64.9,60.9,29.96,South,173,2.0,8.0,87,0.00,,SKC,0.00,VWS V14.01,2013-10-28 13:50:00,
2013-10-28 08:51:00,65.4,61.4,29.99,South,182,6.0,6.0,87,0.00,,SKC,0.00,VWS V14.01,2013-10-28 13:51:00,
2013-10-28 08:52:00,65.0,61.0,29.96,SSE,164,5.0,11.0,87,0.00,,SKC,0.00,VWS V14.01,2013-10-28 13:52:00,
2013-10-28 08:53:00,65.0,61.0,29.96,South,173,5.0,8.0,87,0.00,,SKC,0.00,VWS V14.01,2013-10-28 13:53:00,
2013-10-28 08:54:00,65.0,61.0,29.96,SSE,168,6.0,6.0,87,0.00,,SKC,0.00,VWS V14.01,2013-10-28 13:54:00,
2013-10-28 08:55:00,65.0,60.7,29.96,South,185,3.0,8.0,86,0.00,,SKC,0.00,VWS V14.01,2013-10-28 13:55:00,
2013-10-28 08:56:00,65.4,61.8,29.99,South,173,6.0,10.0,88,0.00,,SKC,0.00,VWS V14.01,2013-10-28 13:56:00,
2013-10-28 08:57:00,65.0,60.7,29.96,South,186,4.0,9.0,86,0.00,,SKC,0.00,VWS V14.01,2013-10-28 13:57:00,
2013-10-28 08:58:00,65.0,60.7,29.96,SSW,196,4.0,11.0,86,0.00,,SKC,0.00,VWS V14.01,2013-10-28 13:58:00,
2013-10-28 08:59:00,65.0,60.7,29.97,South,178,6.0,9.0,86,0.00,,SKC,0.00,VWS V14.01,2013-10-28 13:59:00,
2013-10-28 09:00:00,65.0,60.7,29.96,South,174,7.0,11.0,86,0.00,,SKC,0.00,VWS V14.01,2013-10-28 14:00:00,
2013-10-28 09:01:00,65.6,62.0,29.99,South,171,9.0,10.0,88,0.00,,SKC,0.00,VWS V14.01,2013-10-28 14:01:00,
2013-10-28 09:02:00,65.1,60.8,29.97,South,169,6.0,11.0,86,0.00,,SKC,0.00,VWS V14.01,2013-10-28 14:02:00,
2013-10-28 09:03:00,65.1,60.8,29.97,South,185,9.0,10.0,86,0.00,,SKC,0.00,VWS V14.01,2013-10-28 14:03:00,
2013-10-28 09:04:00,65.1,60.8,29.97,South,176,7.0,11.0,86,0.00,,SKC,0.00,VWS V14.01,2013-10-28 14:04:00,
2013-10-28 09:05:00,65.1,60.8,29.97,SSE,157,5.0,9.0,86,0.00,,SKC,0.00,VWS V14.01,2013-10-28 14:05:00,
2013-10-28 09:06:00,65.7,62.0,29.99,South,180,8.0,11.0,88,0.00,,SKC,0.00,VWS V14.01,2013-10-28 14:06:00,
2013-10-28 09:07:00,65.1,60.8,29.97,South,189,8.0,12.0,86,0.00,,SKC,0.00,VWS V14.01,2013-10-28 14:07:00,
2013-10-28 09:08:00,65.1,60.8,29.97,South,173,4.0,10.0,86,0.00,,SKC,0.00,VWS V14.01,2013-10-28 14:08:00,
2013-10-28 09:09:00,65.1,60.8,29.97,South,180,3.0,9.0,86,0.00,,SKC,0.00,VWS V14.01,2013-10-28 14:09:00,
2013-10-28 09:10:00,65.1,60.8,29.97,SSW,199,11.0,12.0,86,0.00,,SKC,0.00,VWS V14.01,2013-10-28 14:10:00,
2013-10-28 09:11:00,65.9,62.6,29.99,South,182,6.0,10.0,89,0.00,,SKC,0.00,VWS V14.01,2013-10-28 14:11:00,
2013-10-28 09:12:00,65.1,60.8,29.97,South,177,5.0,10.0,86,0.00,,SKC,0.00,VWS V14.01,2013-10-28 14:12:00,
2013-10-28 09:13:00,65.2,60.9,29.97,SSW,195,6.0,7.0,86,0.00,,SKC,0.00,VWS V14.01,2013-10-28 14:13:00,
2013-10-28 09:14:00,65.2,60.9,29.97,South,176,4.0,10.0,86,0.00,,SKC,0.00,VWS V14.01,2013-10-28 14:14:00,
2013-10-28 09:15:00,65.2,60.9,29.97,SSW,193,10.0,10.0,86,0.00,,SKC,0.00,VWS V14.01,2013-10-28 14:15:00,
2013-10-28 09:16:00,65.9,62.6,30.00,South,173,9.0,10.0,89,0.00,,SKC,0.00,VWS V14.01,2013-10-28 14:16:00,
2013-10-28 09:17:00,65.1,61.1,29.97,South,174,13.0,16.0,87,0.00,,SKC,0.00,VWS V14.01,2013-10-28 14:17:00,
2013-10-28 09:18:00,65.1,61.1,29.97,SSE,168,5.0,15.0,87,0.00,,SKC,0.00,VWS V14.01,2013-10-28 14:18:00,
2013-10-28 09:19:00,65.1,61.1,29.97,South,181,14.0,15.0,87,0.00,,SKC,0.00,VWS V14.01,2013-10-28 14:19:00,
2013-10-28 09:20:00,65.1,61.1,29.97,SSE,167,4.0,14.0,87,0.00,,SKC,0.00,VWS V14.01,2013-10-28 14:20:00,
2013-10-28 09:21:00,66.0,62.7,30.00,SSE,160,7.0,9.0,89,0.00,,SKC,0.00,VWS V14.01,2013-10-28 14:21:00,
2013-10-28 09:22:00,65.2,60.9,29.97,SSW,198,7.0,11.0,86,0.00,,SKC,0.00,VWS V14.01,2013-10-28 14:22:00,
2013-10-28 09:23:00,65.2,60.9,29.98,SSE,159,3.0,7.0,86,0.00,,SKC,0.00,VWS V14.01,2013-10-28 14:23:00,
2013-10-28 09:24:00,65.3,61.3,29.97,SSE,162,5.0,7.0,87,0.00,,SKC,0.00,VWS V14.01,2013-10-28 14:24:00,
2013-10-28 09:25:00,65.3,61.0,29.97,SSE,165,2.0,5.0,86,0.00,,SKC,0.00,VWS V14.01,2013-10-28 14:25:00,
2013-10-28 09:26:00,66.0,62.7,30.00,SSE,163,3.0,5.0,89,0.00,,SKC,0.00,VWS V14.01,2013-10-28 14:26:00,
2013-10-28 09:27:00,65.3,61.3,29.98,SSW,192,9.0,9.0,87,0.00,,SKC,0.00,VWS V14.01,2013-10-28 14:27:00,
2013-10-28 09:28:00,65.4,61.4,29.98,SSE,164,13.0,13.0,87,0.00,,SKC,0.00,VWS V14.01,2013-10-28 14:28:00,
2013-10-28 09:29:00,65.4,61.4,29.98,South,169,5.0,13.0,87,0.00,,SKC,0.00,VWS V14.01,2013-10-28 14:29:00,
2013-10-28 09:30:00,65.4,61.4,29.98,SSE,167,5.0,9.0,87,0.00,,SKC,0.00,VWS V14.01,2013-10-28 14:30:00,
2013-10-28 09:31:00,66.1,62.8,30.00,SSE,158,5.0,7.0,89,0.00,,SKC,0.00,VWS V14.01,2013-10-28 14:31:00,
2013-10-28 09:32:00,65.3,61.3,29.98,South,172,6.0,7.0,87,0.00,,SKC,0.00,VWS V14.01,2013-10-28 14:32:00,
2013-10-28 09:33:00,65.3,61.3,29.98,SSE,155,7.0,13.0,87,0.00,,SKC,0.00,VWS V14.01,2013-10-28 14:33:00,
2013-10-28 09:34:00,65.3,61.3,29.98,South,169,11.0,11.0,87,0.00,,SKC,0.00,VWS V14.01,2013-10-28 14:34:00,
2013-10-28 09:35:00,65.3,61.3,29.98,SSE,159,6.0,13.0,87,0.00,,SKC,0.00,VWS V14.01,2013-10-28 14:35:00,
2013-10-28 09:36:00,66.2,62.9,30.00,SSW,195,6.0,9.0,89,0.00,,SKC,0.00,VWS V14.01,2013-10-28 14:36:00,
2013-10-28 09:37:00,65.3,61.3,29.98,South,170,5.0,10.0,87,0.00,,SKC,0.00,VWS V14.01,2013-10-28 14:37:00,
2013-10-28 09:38:00,65.3,61.3,29.98,South,175,4.0,9.0,87,0.00,,SKC,0.00,VWS V14.01,2013-10-28 14:38:00,
2013-10-28 09:39:00,65.3,61.3,29.98,South,176,5.0,10.0,87,0.00,,SKC,0.00,VWS V14.01,2013-10-28 14:39:00,
2013-10-28 09:40:00,65.3,61.3,29.98,SSE,168,11.0,12.0,87,0.00,,SKC,0.00,VWS V14.01,2013-10-28 14:40:00,
2013-10-28 09:41:00,66.3,63.0,30.00,SSE,166,6.0,7.0,89,0.00,,SKC,0.00,VWS V14.01,2013-10-28 14:41:00,
2013-10-28 09:42:00,65.3,61.3,29.98,South,180,9.0,11.0,87,0.00,,SKC,0.00,VWS V14.01,2013-10-28 14:42:00,
2013-10-28 09:43:00,65.3,61.3,29.98,South,177,11.0,11.0,87,0.00,,SKC,0.00,VWS V14.01,2013-10-28 14:43:00,
2013-10-28 09:44:00,65.3,61.3,29.98,South,169,10.0,11.0,87,0.00,,SKC,0.00,VWS V14.01,2013-10-28 14:44:00,
2013-10-28 09:45:00,65.4,61.4,29.98,South,186,6.0,10.0,87,0.00,,SKC,0.00,VWS V14.01,2013-10-28 14:45:00,
2013-10-28 09:46:00,66.4,63.1,30.01,SSE,157,5.0,8.0,89,0.00,,SKC,0.00,VWS V14.01,2013-10-28 14:46:00,
2013-10-28 09:47:00,65.4,61.4,29.99,South,171,7.0,10.0,87,0.00,,SKC,0.00,VWS V14.01,2013-10-28 14:47:00,
2013-10-28 09:48:00,65.4,61.4,29.99,SSE,155,6.0,11.0,87,0.00,,SKC,0.00,VWS V14.01,2013-10-28 14:48:00,
2013-10-28 09:49:00,65.4,61.4,29.99,SSW,194,6.0,11.0,87,0.00,,SKC,0.00,VWS V14.01,2013-10-28 14:49:00,
2013-10-28 09:50:00,65.4,61.4,29.99,South,176,5.0,9.0,87,0.00,,SKC,0.00,VWS V14.01,2013-10-28 14:50:00,
2013-10-28 09:51:00,66.5,62.8,30.01,SSE,156,7.0,7.0,88,0.00,,SKC,0.00,VWS V14.01,2013-10-28 14:51:00,
2013-10-28 09:52:00,65.4,61.8,29.99,South,169,5.0,9.0,88,0.00,,SKC,0.00,VWS V14.01,2013-10-28 14:52:00,
2013-10-28 09:53:00,65.4,61.8,29.99,SSE,152,8.0,11.0,88,0.00,,SKC,0.00,VWS V14.01,2013-10-28 14:53:00,
2013-10-28 09:54:00,65.4,61.8,29.99,South,183,8.0,12.0,88,0.00,,SKC,0.00,VWS V14.01,2013-10-28 14:54:00,
2013-10-28 09:55:00,65.4,61.8,29.99,SSE,157,10.0,10.0,88,0.00,,SKC,0.00,VWS V14.01,2013-10-28 14:55:00,
2013-10-28 09:56:00,66.6,62.9,30.01,SSE,166,7.0,10.0,88,0.00,,SKC,0.00,VWS V14.01,2013-10-28 14:56:00,
2013-10-28 09:57:00,65.5,61.9,29.99,South,178,9.0,11.0,88,0.00,,SKC,0.00,VWS V14.01,2013-10-28 14:57:00,
2013-10-28 09:58:00,65.5,61.9,29.99,South,182,7.0,15.0,88,0.00,,SKC,0.00,VWS V14.01,2013-10-28 14:58:00,
2013-10-28 09:59:00,65.5,61.9,29.99,SSE,165,6.0,11.0,88,0.00,,SKC,0.00,VWS V14.01,2013-10-28 14:59:00,
2013-10-28 10:00:00,65.6,62.0,29.99,SSW,198,8.0,10.0,88,0.00,,SKC,0.00,VWS V14.01,2013-10-28 15:00:00,
2013-10-28 10:01:00,66.8,63.1,30.01,SSW,194,9.0,12.0,88,0.00,,SKC,0.00,VWS V14.01,2013-10-28 15:01:00,
2013-10-28 10:02:00,65.6,62.0,29.99,South,173,4.0,9.0,88,0.00,,SKC,0.00,VWS V14.01,2013-10-28 15:02:00,
2013-10-28 10:03:00,65.7,62.0,29.99,South,169,6.0,10.0,88,0.00,,SKC,0.00,VWS V14.01,2013-10-28 15:03:00,
2013-10-28 10:04:00,65.7,62.0,29.99,SSW,204,10.0,11.0,88,0.00,,SKC,0.00,VWS V14.01,2013-10-28 15:04:00,
2013-10-28 10:05:00,65.7,62.0,29.99,South,179,6.0,11.0,88,0.00,,SKC,0.00,VWS V14.01,2013-10-28 15:05:00,
2013-10-28 10:06:00,66.9,62.9,30.01,South,172,7.0,13.0,87,0.00,,SKC,0.00,VWS V14.01,2013-10-28 15:06:00,
2013-10-28 10:07:00,65.8,62.2,29.99,SSE,161,7.0,9.0,88,0.00,,SKC,0.00,VWS V14.01,2013-10-28 15:07:00,
2013-10-28 10:08:00,65.8,62.2,29.99,South,186,5.0,9.0,88,0.00,,SKC,0.00,VWS V14.01,2013-10-28 15:08:00,
2013-10-28 10:09:00,65.8,62.5,29.99,SSW,192,10.0,12.0,89,0.00,,SKC,0.00,VWS V14.01,2013-10-28 15:09:00,
2013-10-28 10:10:00,65.9,62.6,29.99,SE,137,6.0,10.0,89,0.00,,SKC,0.00,VWS V14.01,2013-10-28 15:10:00,
2013-10-28 10:11:00,67.1,63.1,30.01,South,181,6.0,13.0,87,0.00,,SKC,0.00,VWS V14.01,2013-10-28 15:11:00,
2013-10-28 10:12:00,65.9,62.6,29.99,SSE,160,11.0,11.0,89,0.00,,SKC,0.00,VWS V14.01,2013-10-28 15:12:00,
2013-10-28 10:13:00,65.9,62.6,30.00,SSE,168,4.0,12.0,89,0.00,,SKC,0.00,VWS V14.01,2013-10-28 15:13:00,
2013-10-28 10:14:00,65.9,62.6,30.00,South,183,6.0,9.0,89,0.00,,SKC,0.00,VWS V14.01,2013-10-28 15:14:00,
2013-10-28 10:15:00,65.9,62.6,30.00,SSE,152,6.0,10.0,89,0.00,,SKC,0.00,VWS V14.01,2013-10-28 15:15:00,
2013-10-28 10:16:00,67.1,63.1,30.01,SSW,204,14.0,14.0,87,0.00,,SKC,0.00,VWS V14.01,2013-10-28 15:16:00,
2013-10-28 10:17:00,66.0,62.7,30.00,South,182,4.0,7.0,89,0.00,,SKC,0.00,VWS V14.01,2013-10-28 15:17:00,
2013-10-28 10:18:00,66.0,62.7,30.00,South,173,6.0,6.0,89,0.00,,SKC,0.00,VWS V14.01,2013-10-28 15:18:00,
2013-10-28 10:19:00,66.0,62.7,30.00,SSE,163,7.0,7.0,89,0.00,,SKC,0.00,VWS V14.01,2013-10-28 15:19:00,
2013-10-28 10:20:00,66.0,62.7,30.00,SSE,163,9.0,9.0,89,0.00,,SKC,0.00,VWS V14.01,2013-10-28 15:20:00,
2013-10-28 10:21:00,67.2,63.2,30.01,SSW,203,13.0,14.0,87,0.00,,SKC,0.00,VWS V14.01,2013-10-28 15:21:00,
2013-10-28 10:22:00,66.0,62.7,30.00,SSE,168,7.0,9.0,89,0.00,,SKC,0.00,VWS V14.01,2013-10-28 15:22:00,
2013-10-28 10:23:00,66.0,62.7,30.00,South,188,8.0,10.0,89,0.00,,SKC,0.00,VWS V14.01,2013-10-28 15:23:00,
2013-10-28 10:24:00,66.0,62.7,30.00,SSE,163,5.0,11.0,89,0.00,,SKC,0.00,VWS V14.01,2013-10-28 15:24:00,
2013-10-28 10:25:00,66.0,62.7,30.00,SSW,198,10.0,10.0,89,0.00,,SKC,0.00,VWS V14.01,2013-10-28 15:25:00,
2013-10-28 10:26:00,67.3,63.0,30.01,South,182,11.0,21.0,86,0.00,,SKC,0.00,VWS V14.01,2013-10-28 15:26:00,
2013-10-28 10:27:00,66.0,62.7,30.00,SSE,160,5.0,12.0,89,0.00,,SKC,0.00,VWS V14.01,2013-10-28 15:27:00,
2013-10-28 10:28:00,66.1,62.8,30.00,SSW,195,8.0,11.0,89,0.00,,SKC,0.00,VWS V14.01,2013-10-28 15:28:00,
2013-10-28 10:29:00,66.1,62.8,30.00,SSW,194,6.0,10.0,89,0.00,,SKC,0.00,VWS V14.01,2013-10-28 15:29:00,
2013-10-28 10:30:00,66.1,62.8,30.00,South,169,4.0,7.0,89,0.00,,SKC,0.00,VWS V14.01,2013-10-28 15:30:00,
2013-10-28 10:31:00,67.5,62.8,30.01,South,179,6.0,15.0,85,0.00,,SKC,0.00,VWS V14.01,2013-10-28 15:31:00,
2013-10-28 10:32:00,66.2,62.9,30.00,South,172,5.0,7.0,89,0.00,,SKC,0.00,VWS V14.01,2013-10-28 15:32:00,
2013-10-28 10:33:00,66.2,62.9,30.00,South,185,8.0,9.0,89,0.00,,SKC,0.00,VWS V14.01,2013-10-28 15:33:00,
2013-10-28 10:34:00,66.2,62.9,30.00,SSE,167,7.0,10.0,89,0.00,,SKC,0.00,VWS V14.01,2013-10-28 15:34:00,
2013-10-28 10:35:00,66.2,62.9,30.00,South,185,6.0,9.0,89,0.00,,SKC,0.00,VWS V14.01,2013-10-28 15:35:00,
2013-10-28 10:36:00,67.5,62.5,30.01,South,179,14.0,17.0,84,0.00,,SKC,0.00,VWS V14.01,2013-10-28 15:36:00,
2013-10-28 10:37:00,66.3,63.0,30.00,South,182,7.0,7.0,89,0.00,,SKC,0.00,VWS V14.01,2013-10-28 15:37:00,
2013-10-28 10:38:00,66.3,63.0,30.00,SSW,194,10.0,10.0,89,0.00,,SKC,0.00,VWS V14.01,2013-10-28 15:38:00,
2013-10-28 10:39:00,66.3,63.0,30.00,South,177,7.0,11.0,89,0.00,,SKC,0.00,VWS V14.01,2013-10-28 15:39:00,
2013-10-28 10:40:00,66.3,63.0,30.00,South,170,2.0,7.0,89,0.00,,SKC,0.00,VWS V14.01,2013-10-28 15:40:00,
2013-10-28 10:41:00,67.8,62.8,30.01,South,188,8.0,13.0,84,0.00,,SKC,0.00,VWS V14.01,2013-10-28 15:41:00,
2013-10-28 10:42:00,66.4,63.1,30.00,South,177,9.0,9.0,89,0.00,,SKC,0.00,VWS V14.01,2013-10-28 15:42:00,
2013-10-28 10:43:00,66.4,63.1,30.01,South,178,9.0,9.0,89,0.00,,SKC,0.00,VWS V14.01,2013-10-28 15:43:00,
2013-10-28 10:44:00,66.4,63.1,30.01,SSE,156,6.0,9.0,89,0.00,,SKC,0.00,VWS V14.01,2013-10-28 15:44:00,
2013-10-28 10:45:00,66.5,63.2,30.01,SSE,167,4.0,8.0,89,0.00,,SKC,0.00,VWS V14.01,2013-10-28 15:45:00,
2013-10-28 10:46:00,68.0,62.7,30.01,SSW,211,13.0,13.0,83,0.00,,SKC,0.00,VWS V14.01,2013-10-28 15:46:00,
2013-10-28 10:47:00,66.5,63.2,30.01,South,188,9.0,14.0,89,0.00,,SKC,0.00,VWS V14.01,2013-10-28 15:47:00,
2013-10-28 10:48:00,66.5,62.8,30.01,South,171,5.0,9.0,88,0.00,,SKC,0.00,VWS V14.01,2013-10-28 15:48:00,
2013-10-28 10:49:00,66.5,62.8,30.01,SE,140,7.0,10.0,88,0.00,,SKC,0.00,VWS V14.01,2013-10-28 15:49:00,
2013-10-28 10:50:00,66.6,62.9,30.01,South,179,6.0,8.0,88,0.00,,SKC,0.00,VWS V14.01,2013-10-28 15:50:00,
2013-10-28 10:51:00,68.0,62.7,30.01,South,180,10.0,12.0,83,0.00,,SKC,0.00,VWS V14.01,2013-10-28 15:51:00,
2013-10-28 10:52:00,66.6,63.3,30.01,South,172,6.0,10.0,89,0.00,,SKC,0.00,VWS V14.01,2013-10-28 15:52:00,
2013-10-28 10:53:00,66.6,62.9,30.01,SSE,167,9.0,13.0,88,0.00,,SKC,0.00,VWS V14.01,2013-10-28 15:53:00,
2013-10-28 10:54:00,66.6,62.9,30.01,South,174,10.0,10.0,88,0.00,,SKC,0.00,VWS V14.01,2013-10-28 15:54:00,
2013-10-28 10:55:00,66.6,62.9,30.01,South,175,8.0,10.0,88,0.00,,SKC,0.00,VWS V14.01,2013-10-28 15:55:00,
2013-10-28 10:56:00,68.2,62.8,30.01,South,184,5.0,8.0,83,0.00,,SKC,0.00,VWS V14.01,2013-10-28 15:56:00,
2013-10-28 10:57:00,66.7,63.0,30.01,South,190,10.0,15.0,88,0.00,,SKC,0.00,VWS V14.01,2013-10-28 15:57:00,
2013-10-28 10:58:00,66.7,63.0,30.02,SSW,205,8.0,11.0,88,0.00,,SKC,0.00,VWS V14.01,2013-10-28 15:58:00,
2013-10-28 10:59:00,66.7,63.0,30.01,SSE,154,7.0,13.0,88,0.00,,SKC,0.00,VWS V14.01,2013-10-28 15:59:00,
2013-10-28 11:00:00,66.8,63.1,30.01,South,190,12.0,14.0,88,0.00,,SKC,0.00,VWS V14.01,2013-10-28 16:00:00,
2013-10-28 11:01:00,66.8,63.1,30.01,South,189,16.0,16.0,88,0.00,,SKC,0.00,VWS V14.01,2013-10-28 16:01:00,
2013-10-28 11:02:00,68.8,63.1,30.00,South,169,12.0,17.0,82,0.00,,SKC,0.00,VWS V14.01,2013-10-28 16:02:00,
2013-10-28 11:03:00,66.9,62.9,30.01,South,171,9.0,16.0,87,0.00,,SKC,0.00,VWS V14.01,2013-10-28 16:03:00,
2013-10-28 11:04:00,66.9,62.9,30.01,SSW,195,7.0,13.0,87,0.00,,SKC,0.00,VWS V14.01,2013-10-28 16:04:00,
2013-10-28 11:05:00,67.0,63.0,30.01,South,187,7.0,13.0,87,0.00,,SKC,0.00,VWS V14.01,2013-10-28 16:05:00,
2013-10-28 11:06:00,67.0,63.0,30.01,SSW,194,11.0,12.0,87,0.00,,SKC,0.00,VWS V14.01,2013-10-28 16:06:00,
2013-10-28 11:07:00,68.8,62.7,30.00,South,186,14.0,15.0,81,0.00,,SKC,0.00,VWS V14.01,2013-10-28 16:07:00,
2013-10-28 11:08:00,67.0,63.0,30.01,SSW,195,6.0,14.0,87,0.00,,SKC,0.00,VWS V14.01,2013-10-28 16:08:00,
2013-10-28 11:09:00,67.0,63.0,30.01,South,177,8.0,11.0,87,0.00,,SKC,0.00,VWS V14.01,2013-10-28 16:09:00,
2013-10-28 11:10:00,67.1,63.1,30.01,South,187,9.0,13.0,87,0.00,,SKC,0.00,VWS V14.01,2013-10-28 16:10:00,
2013-10-28 11:11:00,67.1,63.1,30.01,SW,217,10.0,16.0,87,0.00,,SKC,0.00,VWS V14.01,2013-10-28 16:11:00,
2013-10-28 11:12:00,68.8,62.7,30.00,South,173,10.0,19.0,81,0.00,,SKC,0.00,VWS V14.01,2013-10-28 16:12:00,
2013-10-28 11:13:00,67.1,63.1,30.01,South,187,9.0,13.0,87,0.00,,SKC,0.00,VWS V14.01,2013-10-28 16:13:00,
2013-10-28 11:14:00,67.1,63.1,30.01,SSW,192,11.0,12.0,87,0.00,,SKC,0.00,VWS V14.01,2013-10-28 16:14:00,
2013-10-28 11:15:00,67.1,63.1,30.01,SSW,207,9.0,14.0,87,0.00,,SKC,0.00,VWS V14.01,2013-10-28 16:15:00,
2013-10-28 11:16:00,67.1,63.1,30.01,South,183,12.0,15.0,87,0.00,,SKC,0.00,VWS V14.01,2013-10-28 16:16:00,
2013-10-28 11:17:00,68.8,62.7,30.00,South,182,10.0,16.0,81,0.00,,SKC,0.00,VWS V14.01,2013-10-28 16:17:00,
2013-10-28 11:18:00,67.2,63.2,30.01,SSW,199,11.0,11.0,87,0.00,,SKC,0.00,VWS V14.01,2013-10-28 16:18:00,
2013-10-28 11:19:00,67.2,63.2,30.01,SSW,198,12.0,14.0,87,0.00,,SKC,0.00,VWS V14.01,2013-10-28 16:19:00,
2013-10-28 11:20:00,67.2,62.9,30.01,SSW,198,12.0,15.0,86,0.00,,SKC,0.00,VWS V14.01,2013-10-28 16:20:00,
2013-10-28 11:21:00,67.2,62.9,30.01,SSW,201,10.0,13.0,86,0.00,,SKC,0.00,VWS V14.01,2013-10-28 16:21:00,
2013-10-28 11:22:00,69.2,63.1,30.00,SE,140,11.0,12.0,81,0.00,,SKC,0.00,VWS V14.01,2013-10-28 16:22:00,
2013-10-28 11:23:00,67.3,63.0,30.01,SSW,192,11.0,14.0,86,0.00,,SKC,0.00,VWS V14.01,2013-10-28 16:23:00,
2013-10-28 11:24:00,67.3,63.0,30.01,SSW,192,14.0,14.0,86,0.00,,SKC,0.00,VWS V14.01,2013-10-28 16:24:00,
2013-10-28 11:25:00,67.3,63.0,30.01,SSW,202,12.0,21.0,86,0.00,,SKC,0.00,VWS V14.01,2013-10-28 16:25:00,
2013-10-28 11:26:00,67.4,63.1,30.01,South,184,9.0,12.0,86,0.00,,SKC,0.00,VWS V14.01,2013-10-28 16:26:00,
2013-10-28 11:27:00,69.7,63.6,30.00,SSE,163,6.0,13.0,81,0.00,,SKC,0.00,VWS V14.01,2013-10-28 16:27:00,
2013-10-28 11:28:00,67.5,63.2,30.01,South,190,13.0,13.0,86,0.00,,SKC,0.00,VWS V14.01,2013-10-28 16:28:00,
2013-10-28 11:29:00,67.5,62.8,30.01,SSE,168,11.0,17.0,85,0.00,,SKC,0.00,VWS V14.01,2013-10-28 16:29:00,
2013-10-28 11:30:00,67.5,62.8,30.01,SSW,203,12.0,15.0,85,0.00,,SKC,0.00,VWS V14.01,2013-10-28 16:30:00,
2013-10-28 11:31:00,67.5,62.8,30.01,SE,145,13.0,19.0,85,0.00,,SKC,0.00,VWS V14.01,2013-10-28 16:31:00,
2013-10-28 11:32:00,69.7,63.3,30.00,SSW,211,12.0,16.0,80,0.00,,SKC,0.00,VWS V14.01,2013-10-28 16:32:00,
2013-10-28 11:33:00,67.5,62.5,30.01,SSW,198,12.0,18.0,84,0.00,,SKC,0.00,VWS V14.01,2013-10-28 16:33:00,
2013-10-28 11:34:00,67.5,62.5,30.01,South,172,6.0,14.0,84,0.00,,SKC,0.00,VWS V14.01,2013-10-28 16:34:00,
2013-10-28 11:35:00,67.5,62.5,30.01,SSW,192,11.0,17.0,84,0.00,,SKC,0.00,VWS V14.01,2013-10-28 16:35:00,
2013-10-28 11:36:00,67.5,62.5,30.01,South,190,9.0,18.0,84,0.00,,SKC,0.00,VWS V14.01,2013-10-28 16:36:00,
2013-10-28 11:37:00,70.3,63.5,30.00,South,173,10.0,17.0,79,0.00,,SKC,0.00,VWS V14.01,2013-10-28 16:37:00,
2013-10-28 11:38:00,67.7,62.7,30.01,South,171,14.0,17.0,84,0.00,,SKC,0.00,VWS V14.01,2013-10-28 16:38:00,
2013-10-28 11:39:00,67.8,62.8,30.01,South,188,10.0,14.0,84,0.00,,SKC,0.00,VWS V14.01,2013-10-28 16:39:00,
2013-10-28 11:40:00,67.9,62.9,30.01,South,174,11.0,13.0,84,0.00,,SKC,0.00,VWS V14.01,2013-10-28 16:40:00,
2013-10-28 11:41:00,67.9,62.9,30.01,South,187,11.0,13.0,84,0.00,,SKC,0.00,VWS V14.01,2013-10-28 16:41:00,
2013-10-28 11:42:00,70.5,63.3,30.00,South,189,12.0,17.0,78,0.00,,SKC,0.00,VWS V14.01,2013-10-28 16:42:00,
2013-10-28 11:43:00,68.0,62.7,30.01,South,169,6.0,17.0,83,0.00,,SKC,0.00,VWS V14.01,2013-10-28 16:43:00,
2013-10-28 11:44:00,68.0,62.7,30.01,South,188,13.0,16.0,83,0.00,,SKC,0.00,VWS V14.01,2013-10-28 16:44:00,
2013-10-28 11:45:00,68.0,62.7,30.01,South,179,13.0,14.0,83,0.00,,SKC,0.00,VWS V14.01,2013-10-28 16:45:00,
2013-10-28 11:46:00,68.0,62.7,30.01,South,182,11.0,13.0,83,0.00,,SKC,0.00,VWS V14.01,2013-10-28 16:46:00,
2013-10-28 11:47:00,70.5,63.0,30.00,SSW,194,22.0,22.0,77,0.00,,SKC,0.00,VWS V14.01,2013-10-28 16:47:00,
2013-10-28 11:48:00,68.0,62.7,30.01,South,177,14.0,18.0,83,0.00,,SKC,0.00,VWS V14.01,2013-10-28 16:48:00,
2013-10-28 11:49:00,68.0,62.7,30.01,South,178,9.0,14.0,83,0.00,,SKC,0.00,VWS V14.01,2013-10-28 16:49:00,
2013-10-28 11:50:00,68.0,62.7,30.01,SSE,168,9.0,13.0,83,0.00,,SKC,0.00,VWS V14.01,2013-10-28 16:50:00,
2013-10-28 11:51:00,68.0,62.7,30.01,SSW,205,11.0,15.0,83,0.00,,SKC,0.00,VWS V14.01,2013-10-28 16:51:00,
2013-10-28 11:52:00,70.3,62.8,30.00,SSE,148,11.0,17.0,77,0.00,,SKC,0.00,VWS V14.01,2013-10-28 16:52:00,
2013-10-28 11:53:00,68.1,62.8,30.01,SSE,153,8.0,15.0,83,0.00,,SKC,0.00,VWS V14.01,2013-10-28 16:53:00,
2013-10-28 11:54:00,68.1,62.8,30.01,South,187,7.0,14.0,83,0.00,,SKC,0.00,VWS V14.01,2013-10-28 16:54:00,
2013-10-28 11:55:00,68.3,62.9,30.01,South,171,5.0,11.0,83,0.00,,SKC,0.00,VWS V14.01,2013-10-28 16:55:00,
2013-10-28 11:56:00,68.5,63.1,30.01,SSE,152,6.0,11.0,83,0.00,,SKC,0.00,VWS V14.01,2013-10-28 16:56:00,
2013-10-28 11:57:00,70.6,63.0,30.00,South,186,14.0,18.0,77,0.00,,SKC,0.00,VWS V14.01,2013-10-28 16:57:00,
2013-10-28 11:58:00,68.6,62.9,30.01,SSE,167,5.0,16.0,82,0.00,,SKC,0.00,VWS V14.01,2013-10-28 16:58:00,
2013-10-28 11:59:00,68.7,63.0,30.00,South,173,10.0,17.0,82,0.00,,SKC,0.00,VWS V14.01,2013-10-28 16:59:00,
2013-10-28 12:00:00,68.8,62.7,30.00,SSW,203,10.0,17.0,81,0.00,,SKC,0.00,VWS V14.01,2013-10-28 17:00:00,
2013-10-28 12:01:00,68.8,62.7,30.01,South,172,6.0,12.0,81,0.00,,SKC,0.00,VWS V14.01,2013-10-28 17:01:00,
2013-10-28 12:02:00,70.8,63.2,30.00,South,178,15.0,18.0,77,0.00,,SKC,0.00,VWS V14.01,2013-10-28 17:02:00,
2013-10-28 12:03:00,68.8,62.7,30.00,South,190,14.0,14.0,81,0.00,,SKC,0.00,VWS V14.01,2013-10-28 17:03:00,
2013-10-28 12:04:00,68.8,62.7,30.00,South,170,9.0,15.0,81,0.00,,SKC,0.00,VWS V14.01,2013-10-28 17:04:00,
2013-10-28 12:05:00,68.8,62.7,30.00,South,190,16.0,16.0,81,0.00,,SKC,0.00,VWS V14.01,2013-10-28 17:05:00,
2013-10-28 12:06:00,68.8,62.7,30.01,South,169,8.0,16.0,81,0.00,,SKC,0.00,VWS V14.01,2013-10-28 17:06:00,
2013-10-28 12:07:00,70.7,63.5,30.00,SW,219,16.0,19.0,78,0.00,,SKC,0.00,VWS V14.01,2013-10-28 17:07:00,
2013-10-28 12:08:00,68.8,62.7,30.00,SSE,165,12.0,15.0,81,0.00,,SKC,0.00,VWS V14.01,2013-10-28 17:08:00,
2013-10-28 12:09:00,68.8,62.7,30.00,SSE,155,12.0,16.0,81,0.00,,SKC,0.00,VWS V14.01,2013-10-28 17:09:00,
2013-10-28 12:10:00,68.8,62.7,30.00,SSE,162,17.0,19.0,81,0.00,,SKC,0.00,VWS V14.01,2013-10-28 17:10:00,
2013-10-28 12:11:00,68.8,62.7,30.00,South,180,14.0,18.0,81,0.00,,SKC,0.00,VWS V14.01,2013-10-28 17:11:00,
2013-10-28 12:12:00,70.9,63.7,30.00,South,180,15.0,19.0,78,0.00,,SKC,0.00,VWS V14.01,2013-10-28 17:12:00,
2013-10-28 12:13:00,68.8,62.7,30.00,South,188,15.0,17.0,81,0.00,,SKC,0.00,VWS V14.01,2013-10-28 17:13:00,
2013-10-28 12:14:00,68.8,62.7,30.00,South,173,13.0,15.0,81,0.00,,SKC,0.00,VWS V14.01,2013-10-28 17:14:00,
2013-10-28 12:15:00,68.8,62.7,30.00,SSW,208,10.0,16.0,81,0.00,,SKC,0.00,VWS V14.01,2013-10-28 17:15:00,
2013-10-28 12:16:00,68.8,62.7,30.00,SSW,192,11.0,14.0,81,0.00,,SKC,0.00,VWS V14.01,2013-10-28 17:16:00,
2013-10-28 12:17:00,71.3,63.7,30.00,South,183,9.0,15.0,77,0.00,,SKC,0.00,VWS V14.01,2013-10-28 17:17:00,
2013-10-28 12:18:00,69.0,63.3,30.00,SSE,151,11.0,12.0,82,0.00,,SKC,0.00,VWS V14.01,2013-10-28 17:18:00,
2013-10-28 12:19:00,69.1,63.4,30.00,SSE,165,7.0,11.0,82,0.00,,SKC,0.00,VWS V14.01,2013-10-28 17:19:00,
2013-10-28 12:20:00,69.3,63.2,30.00,South,171,12.0,12.0,81,0.00,,SKC,0.00,VWS V14.01,2013-10-28 17:20:00,
2013-10-28 12:21:00,69.3,63.2,30.00,South,187,6.0,13.0,81,0.00,,SKC,0.00,VWS V14.01,2013-10-28 17:21:00,
2013-10-28 12:22:00,71.3,63.7,30.00,South,178,16.0,16.0,77,0.00,,SKC,0.00,VWS V14.01,2013-10-28 17:22:00,
2013-10-28 12:23:00,69.5,63.4,30.00,SSE,155,11.0,14.0,81,0.00,,SKC,0.00,VWS V14.01,2013-10-28 17:23:00,
2013-10-28 12:24:00,69.6,63.5,30.00,SSE,161,5.0,13.0,81,0.00,,SKC,0.00,VWS V14.01,2013-10-28 17:24:00,
2013-10-28 12:25:00,69.7,63.6,30.00,SSW,209,10.0,13.0,81,0.00,,SKC,0.00,VWS V14.01,2013-10-28 17:25:00,
2013-10-28 12:26:00,69.8,63.4,30.00,SSW,207,16.0,16.0,80,0.00,,SKC,0.00,VWS V14.01,2013-10-28 17:26:00,
2013-10-28 12:27:00,71.6,64.0,30.00,SSW,204,10.0,13.0,77,0.00,,SKC,0.00,VWS V14.01,2013-10-28 17:27:00,
2013-10-28 12:28:00,69.7,63.3,30.00,SSE,164,11.0,16.0,80,0.00,,SKC,0.00,VWS V14.01,2013-10-28 17:28:00,
2013-10-28 12:29:00,69.7,63.3,30.00,SSW,192,10.0,14.0,80,0.00,,SKC,0.00,VWS V14.01,2013-10-28 17:29:00,
2013-10-28 12:30:00,69.7,63.3,30.00,South,187,6.0,16.0,80,0.00,,SKC,0.00,VWS V14.01,2013-10-28 17:30:00,
2013-10-28 12:31:00,69.7,63.3,30.00,South,178,4.0,11.0,80,0.00,,SKC,0.00,VWS V14.01,2013-10-28 17:31:00,
2013-10-28 12:32:00,72.6,64.2,29.99,South,175,19.0,19.0,75,0.00,,SKC,0.00,VWS V14.01,2013-10-28 17:32:00,
2013-10-28 12:33:00,70.0,63.5,30.00,SSE,161,12.0,13.0,80,0.00,,SKC,0.00,VWS V14.01,2013-10-28 17:33:00,
2013-10-28 12:34:00,70.2,63.8,30.00,South,183,9.0,14.0,80,0.00,,SKC,0.00,VWS V14.01,2013-10-28 17:34:00,
2013-10-28 12:35:00,70.3,63.5,30.00,South,184,14.0,17.0,79,0.00,,SKC,0.00,VWS V14.01,2013-10-28 17:35:00,
2013-10-28 12:36:00,70.3,63.1,30.00,South,186,12.0,17.0,78,0.00,,SKC,0.00,VWS V14.01,2013-10-28 17:36:00,
2013-10-28 12:37:00,73.7,64.1,29.99,SSW,209,13.0,15.0,72,0.00,,SKC,0.00,VWS V14.01,2013-10-28 17:37:00,
2013-10-28 12:38:00,70.4,63.6,30.00,SSW,202,21.0,21.0,79,0.00,,SKC,0.00,VWS V14.01,2013-10-28 17:38:00,
2013-10-28 12:39:00,70.5,63.3,30.00,SW,218,10.0,22.0,78,0.00,,SKC,0.00,VWS V14.01,2013-10-28 17:39:00,
2013-10-28 12:40:00,70.5,63.3,30.00,SSE,165,19.0,19.0,78,0.00,,SKC,0.00,VWS V14.01,2013-10-28 17:40:00,
2013-10-28 12:41:00,70.5,63.3,30.00,South,190,11.0,19.0,78,0.00,,SKC,0.00,VWS V14.01,2013-10-28 17:41:00,
2013-10-28 12:42:00,74.1,64.1,29.99,SSE,166,11.0,17.0,71,0.00,,SKC,0.00,VWS V14.01,2013-10-28 17:42:00,
2013-10-28 12:43:00,70.6,63.4,30.00,South,175,15.0,15.0,78,0.00,,SKC,0.00,VWS V14.01,2013-10-28 17:43:00,
2013-10-28 12:44:00,70.6,63.0,30.00,South,184,15.0,17.0,77,0.00,,SKC,0.00,VWS V14.01,2013-10-28 17:44:00,
2013-10-28 12:45:00,70.6,63.0,30.00,SSE,151,16.0,22.0,77,0.00,,SKC,0.00,VWS V14.01,2013-10-28 17:45:00,
2013-10-28 12:46:00,70.4,62.8,30.00,South,175,13.0,18.0,77,0.00,,SKC,0.00,VWS V14.01,2013-10-28 17:46:00,
2013-10-28 12:47:00,74.5,63.7,29.99,SSW,201,11.0,19.0,69,0.00,,SKC,0.00,VWS V14.01,2013-10-28 17:47:00,
2013-10-28 12:48:00,70.3,62.8,30.00,South,181,16.0,21.0,77,0.00,,SKC,0.00,VWS V14.01,2013-10-28 17:48:00,
2013-10-28 12:49:00,70.3,63.1,30.00,SE,141,14.0,16.0,78,0.00,,SKC,0.00,VWS V14.01,2013-10-28 17:49:00,
2013-10-28 12:50:00,70.3,62.8,30.00,SSE,163,14.0,17.0,77,0.00,,SKC,0.00,VWS V14.01,2013-10-28 17:50:00,
2013-10-28 12:51:00,70.4,62.8,30.00,SE,142,8.0,16.0,77,0.00,,SKC,0.00,VWS V14.01,2013-10-28 17:51:00,
2013-10-28 12:52:00,74.5,63.3,29.98,SSW,196,16.0,23.0,68,0.00,,SKC,0.00,VWS V14.01,2013-10-28 17:52:00,
2013-10-28 12:53:00,70.5,63.0,30.00,South,178,11.0,14.0,77,0.00,,SKC,0.00,VWS V14.01,2013-10-28 17:53:00,
2013-10-28 12:54:00,70.5,63.0,30.00,South,178,8.0,19.0,77,0.00,,SKC,0.00,VWS V14.01,2013-10-28 17:54:00,
2013-10-28 12:55:00,70.6,63.0,30.00,South,177,13.0,18.0,77,0.00,,SKC,0.00,VWS V14.01,2013-10-28 17:55:00,
2013-10-28 12:56:00,70.6,63.0,30.00,South,185,9.0,18.0,77,0.00,,SKC,0.00,VWS V14.01,2013-10-28 17:56:00,
2013-10-28 12:57:00,74.9,64.5,29.98,South,178,13.0,16.0,70,0.00,,SKC,0.00,VWS V14.01,2013-10-28 17:57:00,
2013-10-28 12:58:00,70.8,63.2,30.00,SSE,154,11.0,19.0,77,0.00,,SKC,0.00,VWS V14.01,2013-10-28 17:58:00,
2013-10-28 12:59:00,70.8,63.2,30.00,SSW,209,14.0,19.0,77,0.00,,SKC,0.00,VWS V14.01,2013-10-28 17:59:00,
2013-10-28 13:00:00,70.8,63.2,30.00,South,180,11.0,18.0,77,0.00,,SKC,0.00,VWS V14.01,2013-10-28 18:00:00,
2013-10-28 13:01:00,70.7,63.1,30.00,South,190,14.0,16.0,77,0.00,,SKC,0.00,VWS V14.01,2013-10-28 18:01:00,
2013-10-28 13:02:00,74.9,64.1,29.98,South,169,9.0,15.0,69,0.00,,SKC,0.00,VWS V14.01,2013-10-28 18:02:00,
2013-10-28 13:03:00,70.6,63.0,30.00,SSE,150,7.0,19.0,77,0.00,,SKC,0.00,VWS V14.01,2013-10-28 18:03:00,
2013-10-28 13:04:00,70.7,63.1,30.00,South,186,9.0,16.0,77,0.00,,SKC,0.00,VWS V14.01,2013-10-28 18:04:00,
2013-10-28 13:05:00,70.7,63.1,30.00,South,191,16.0,19.0,77,0.00,,SKC,0.00,VWS V14.01,2013-10-28 18:05:00,
2013-10-28 13:06:00,70.7,63.1,30.00,SSE,168,7.0,16.0,77,0.00,,SKC,0.00,VWS V14.01,2013-10-28 18:06:00,
2013-10-28 13:07:00,75.2,63.9,29.97,South,190,13.0,20.0,68,0.00,,SKC,0.00,VWS V14.01,2013-10-28 18:07:00,
2013-10-28 13:08:00,70.7,63.5,30.00,SSE,164,7.0,14.0,78,0.00,,SKC,0.00,VWS V14.01,2013-10-28 18:08:00,
2013-10-28 13:09:00,70.8,63.6,30.00,South,169,10.0,19.0,78,0.00,,SKC,0.00,VWS V14.01,2013-10-28 18:09:00,
2013-10-28 13:10:00,70.9,63.7,30.00,SSE,166,14.0,19.0,78,0.00,,SKC,0.00,VWS V14.01,2013-10-28 18:10:00,
2013-10-28 13:11:00,70.9,63.3,30.00,SSE,162,8.0,15.0,77,0.00,,SKC,0.00,VWS V14.01,2013-10-28 18:11:00,
2013-10-28 13:12:00,74.5,63.7,29.97,South,188,16.0,16.0,69,0.00,,SKC,0.00,VWS V14.01,2013-10-28 18:12:00,
2013-10-28 13:13:00,71.2,63.6,30.00,SSE,163,9.0,17.0,77,0.00,,SKC,0.00,VWS V14.01,2013-10-28 18:13:00,
2013-10-28 13:14:00,71.3,64.1,30.00,SSW,205,10.0,10.0,78,0.00,,SKC,0.00,VWS V14.01,2013-10-28 18:14:00,
2013-10-28 13:15:00,71.3,63.7,30.00,SSW,194,12.0,15.0,77,0.00,,SKC,0.00,VWS V14.01,2013-10-28 18:15:00,
2013-10-28 13:16:00,71.3,63.7,30.00,South,180,5.0,13.0,77,0.00,,SKC,0.00,VWS V14.01,2013-10-28 18:16:00,
2013-10-28 13:17:00,75.5,64.2,29.97,SSW,192,12.0,19.0,68,0.00,,SKC,0.00,VWS V14.01,2013-10-28 18:17:00,
2013-10-28 13:18:00,71.3,63.3,30.00,SSW,197,12.0,15.0,76,0.00,,SKC,0.00,VWS V14.01,2013-10-28 18:18:00,
2013-10-28 13:19:00,71.3,63.7,30.00,SE,140,11.0,15.0,77,0.00,,SKC,0.00,VWS V14.01,2013-10-28 18:19:00,
2013-10-28 13:20:00,71.3,63.7,30.00,South,183,13.0,16.0,77,0.00,,SKC,0.00,VWS V14.01,2013-10-28 18:20:00,
2013-10-28 13:21:00,71.3,63.7,30.00,SSW,194,9.0,14.0,77,0.00,,SKC,0.00,VWS V14.01,2013-10-28 18:21:00,
2013-10-28 13:22:00,75.4,63.7,29.97,SSW,202,7.0,19.0,67,0.00,,SKC,0.00,VWS V14.01,2013-10-28 18:22:00,
2013-10-28 13:23:00,71.3,63.7,29.99,South,186,10.0,14.0,77,0.00,,SKC,0.00,VWS V14.01,2013-10-28 18:23:00,
2013-10-28 13:24:00,71.5,63.9,30.00,SSE,155,12.0,16.0,77,0.00,,SKC,0.00,VWS V14.01,2013-10-28 18:24:00,
2013-10-28 13:25:00,71.6,64.0,30.00,SSW,192,12.0,13.0,77,0.00,,SKC,0.00,VWS V14.01,2013-10-28 18:25:00,
2013-10-28 13:26:00,71.8,64.2,29.99,South,183,15.0,17.0,77,0.00,,SKC,0.00,VWS V14.01,2013-10-28 18:26:00,
2013-10-28 13:27:00,75.8,64.1,29.96,SSE,149,6.0,16.0,67,0.00,,SKC,0.00,VWS V14.01,2013-10-28 18:27:00,
2013-10-28 13:28:00,72.1,64.1,29.99,South,188,9.0,19.0,76,0.00,,SKC,0.00,VWS V14.01,2013-10-28 18:28:00,
2013-10-28 13:29:00,72.4,64.4,29.99,South,171,16.0,16.0,76,0.00,,SKC,0.00,VWS V14.01,2013-10-28 18:29:00,
2013-10-28 13:30:00,72.6,64.2,29.99,SSE,163,16.0,19.0,75,0.00,,SKC,0.00,VWS V14.01,2013-10-28 18:30:00,
2013-10-28 13:31:00,72.8,64.0,29.99,South,188,14.0,20.0,74,0.00,,SKC,0.00,VWS V14.01,2013-10-28 18:31:00,
2013-10-28 13:32:00,76.3,64.1,29.96,SSW,205,10.0,16.0,66,0.00,,SKC,0.00,VWS V14.01,2013-10-28 18:32:00,
2013-10-28 13:33:00,73.4,64.6,29.99,SSE,154,13.0,19.0,74,0.00,,SKC,0.00,VWS V14.01,2013-10-28 18:33:00,
2013-10-28 13:34:00,73.6,64.4,29.99,SSW,196,13.0,19.0,73,0.00,,SKC,0.00,VWS V14.01,2013-10-28 18:34:00,
2013-10-28 13:35:00,73.7,64.1,29.99,South,175,12.0,15.0,72,0.00,,SKC,0.00,VWS V14.01,2013-10-28 18:35:00,
2013-10-28 13:36:00,73.8,64.2,29.99,SSW,206,12.0,14.0,72,0.00,,SKC,0.00,VWS V14.01,2013-10-28 18:36:00,
2013-10-28 13:37:00,76.2,64.0,29.96,South,173,21.0,21.0,66,0.00,,SKC,0.00,VWS V14.01,2013-10-28 18:37:00,
2013-10-28 13:38:00,73.9,63.9,29.99,SSW,201,19.0,19.0,71,0.00,,SKC,0.00,VWS V14.01,2013-10-28 18:38:00,
2013-10-28 13:39:00,74.0,64.0,29.99,South,171,11.0,19.0,71,0.00,,SKC,0.00,VWS V14.01,2013-10-28 18:39:00,
2013-10-28 13:40:00,74.1,64.1,29.99,South,178,14.0,17.0,71,0.00,,SKC,0.00,VWS V14.01,2013-10-28 18:40:00,
2013-10-28 13:41:00,74.2,64.2,29.99,SSW,192,16.0,16.0,71,0.00,,SKC,0.00,VWS V14.01,2013-10-28 18:41:00,
2013-10-28 13:42:00,76.5,64.7,29.95,South,171,7.0,11.0,67,0.00,,SKC,0.00,VWS V14.01,2013-10-28 18:42:00,
2013-10-28 13:43:00,74.4,64.0,29.99,SSE,162,11.0,19.0,70,0.00,,SKC,0.00,VWS V14.01,2013-10-28 18:43:00,
2013-10-28 13:44:00,74.5,64.1,29.99,SSE,150,15.0,22.0,70,0.00,,SKC,0.00,VWS V14.01,2013-10-28 18:44:00,
2013-10-28 13:45:00,74.5,63.7,29.99,South,188,14.0,19.0,69,0.00,,SKC,0.00,VWS V14.01,2013-10-28 18:45:00,
2013-10-28 13:46:00,74.5,64.1,29.99,SSE,158,6.0,17.0,70,0.00,,SKC,0.00,VWS V14.01,2013-10-28 18:46:00,
2013-10-28 13:47:00,77.5,64.4,29.95,SSE,159,15.0,21.0,64,0.00,,SKC,0.00,VWS V14.01,2013-10-28 18:47:00,
2013-10-28 13:48:00,74.7,63.9,29.98,South,188,12.0,21.0,69,0.00,,SKC,0.00,VWS V14.01,2013-10-28 18:48:00,
2013-10-28 13:49:00,74.7,63.9,29.98,SSW,209,20.0,21.0,69,0.00,,SKC,0.00,VWS V14.01,2013-10-28 18:49:00,
2013-10-28 13:50:00,74.5,63.3,29.98,SSW,192,11.0,23.0,68,0.00,,SKC,0.00,VWS V14.01,2013-10-28 18:50:00,
2013-10-28 13:51:00,74.4,63.6,29.98,South,185,9.0,11.0,69,0.00,,SKC,0.00,VWS V14.01,2013-10-28 18:51:00,
2013-10-28 13:52:00,77.1,64.0,29.95,SSE,157,9.0,14.0,64,0.00,,SKC,0.00,VWS V14.01,2013-10-28 18:52:00,
2013-10-28 13:53:00,74.8,64.4,29.98,SSE,155,11.0,16.0,70,0.00,,SKC,0.00,VWS V14.01,2013-10-28 18:53:00,
2013-10-28 13:54:00,74.8,64.0,29.98,SSE,155,11.0,14.0,69,0.00,,SKC,0.00,VWS V14.01,2013-10-28 18:54:00,
2013-10-28 13:55:00,74.9,64.5,29.98,SSE,156,15.0,16.0,70,0.00,,SKC,0.00,VWS V14.01,2013-10-28 18:55:00,
2013-10-28 13:56:00,74.9,64.1,29.98,SE,145,12.0,16.0,69,0.00,,SKC,0.00,VWS V14.01,2013-10-28 18:56:00,
2013-10-28 13:57:00,77.3,64.2,29.94,SE,138,7.0,16.0,64,0.00,,SKC,0.00,VWS V14.01,2013-10-28 18:57:00,
2013-10-28 13:58:00,74.9,64.5,29.98,SE,144,9.0,11.0,70,0.00,,SKC,0.00,VWS V14.01,2013-10-28 18:58:00,
2013-10-28 13:59:00,74.9,64.1,29.98,South,191,10.0,16.0,69,0.00,,SKC,0.00,VWS V14.01,2013-10-28 18:59:00,
2013-10-28 14:00:00,74.9,64.1,29.98,South,182,11.0,15.0,69,0.00,,SKC,0.00,VWS V14.01,2013-10-28 19:00:00,
2013-10-28 14:01:00,75.0,64.2,29.98,SSW,202,13.0,16.0,69,0.00,,SKC,0.00,VWS V14.01,2013-10-28 19:01:00,
2013-10-28 14:02:00,77.9,64.8,29.94,SSW,202,13.0,17.0,64,0.00,,SKC,0.00,VWS V14.01,2013-10-28 19:02:00,
2013-10-28 14:03:00,75.3,64.4,29.98,SSW,196,22.0,22.0,69,0.00,,SKC,0.00,VWS V14.01,2013-10-28 19:03:00,
2013-10-28 14:04:00,75.3,64.0,29.98,South,180,13.0,22.0,68,0.00,,SKC,0.00,VWS V14.01,2013-10-28 19:04:00,
2013-10-28 14:05:00,75.2,63.9,29.97,South,178,10.0,20.0,68,0.00,,SKC,0.00,VWS V14.01,2013-10-28 19:05:00,
2013-10-28 14:06:00,75.0,63.7,29.97,SSW,204,13.0,20.0,68,0.00,,SKC,0.00,VWS V14.01,2013-10-28 19:06:00,
2013-10-28 14:07:00,77.8,64.2,29.94,South,179,10.0,14.0,63,0.00,,SKC,0.00,VWS V14.01,2013-10-28 19:07:00,
2013-10-28 14:08:00,74.8,63.5,29.97,SSE,164,16.0,18.0,68,0.00,,SKC,0.00,VWS V14.01,2013-10-28 19:08:00,
2013-10-28 14:09:00,74.6,63.3,29.97,SSE,152,14.0,20.0,68,0.00,,SKC,0.00,VWS V14.01,2013-10-28 19:09:00,
2013-10-28 14:10:00,74.5,63.7,29.97,South,191,17.0,17.0,69,0.00,,SKC,0.00,VWS V14.01,2013-10-28 19:10:00,
2013-10-28 14:11:00,74.6,63.8,29.97,South,173,11.0,17.0,69,0.00,,SKC,0.00,VWS V14.01,2013-10-28 19:11:00,
2013-10-28 14:12:00,77.6,64.5,29.94,South,179,12.0,14.0,64,0.00,,SKC,0.00,VWS V14.01,2013-10-28 19:12:00,
2013-10-28 14:13:00,75.0,64.6,29.97,SE,139,9.0,14.0,70,0.00,,SKC,0.00,VWS V14.01,2013-10-28 19:13:00,
2013-10-28 14:14:00,75.3,64.8,29.97,SSE,150,12.0,18.0,70,0.00,,SKC,0.00,VWS V14.01,2013-10-28 19:14:00,
2013-10-28 14:15:00,75.5,63.8,29.97,South,182,12.0,19.0,67,0.00,,SKC,0.00,VWS V14.01,2013-10-28 19:15:00,
2013-10-28 14:16:00,75.6,63.9,29.97,SSE,160,11.0,17.0,67,0.00,,SKC,0.00,VWS V14.01,2013-10-28 19:16:00,
2013-10-28 14:17:00,77.9,64.8,29.93,SSE,149,8.0,18.0,64,0.00,,SKC,0.00,VWS V14.01,2013-10-28 19:17:00,
2013-10-28 14:18:00,75.7,63.5,29.97,SSE,166,13.0,19.0,66,0.00,,SKC,0.00,VWS V14.01,2013-10-28 19:18:00,
2013-10-28 14:19:00,75.5,63.4,29.97,SSW,198,19.0,19.0,66,0.00,,SKC,0.00,VWS V14.01,2013-10-28 19:19:00,
2013-10-28 14:20:00,75.4,63.7,29.97,South,185,8.0,19.0,67,0.00,,SKC,0.00,VWS V14.01,2013-10-28 19:20:00,
2013-10-28 14:21:00,75.6,64.3,29.97,South,185,12.0,17.0,68,0.00,,SKC,0.00,VWS V14.01,2013-10-28 19:21:00,
2013-10-28 14:22:00,78.5,64.9,29.93,SSE,155,16.0,16.0,63,0.00,,SKC,0.00,VWS V14.01,2013-10-28 19:22:00,
2013-10-28 14:23:00,75.8,63.6,29.96,South,187,12.0,18.0,66,0.00,,SKC,0.00,VWS V14.01,2013-10-28 19:23:00,
2013-10-28 14:24:00,75.7,63.5,29.96,SSE,147,15.0,17.0,66,0.00,,SKC,0.00,VWS V14.01,2013-10-28 19:24:00,
2013-10-28 14:25:00,75.8,64.1,29.96,South,173,12.0,16.0,67,0.00,,SKC,0.00,VWS V14.01,2013-10-28 19:25:00,
2013-10-28 14:26:00,75.8,63.6,29.96,South,178,7.0,17.0,66,0.00,,SKC,0.00,VWS V14.01,2013-10-28 19:26:00,
2013-10-28 14:27:00,78.7,64.1,29.93,SSW,203,13.0,17.0,61,0.00,,SKC,0.00,VWS V14.01,2013-10-28 19:27:00,
2013-10-28 14:28:00,76.1,63.9,29.96,SSW,193,7.0,17.0,66,0.00,,SKC,0.00,VWS V14.01,2013-10-28 19:28:00,
2013-10-28 14:29:00,76.3,64.6,29.96,SSW,198,16.0,16.0,67,0.00,,SKC,0.00,VWS V14.01,2013-10-28 19:29:00,
2013-10-28 14:30:00,76.3,64.1,29.96,SSW,192,11.0,16.0,66,0.00,,SKC,0.00,VWS V14.01,2013-10-28 19:30:00,
2013-10-28 14:31:00,76.1,63.9,29.96,SSE,161,15.0,22.0,66,0.00,,SKC,0.00,VWS V14.01,2013-10-28 19:31:00,
2013-10-28 14:32:00,77.3,64.2,29.93,SSE,153,10.0,16.0,64,0.00,,SKC,0.00,VWS V14.01,2013-10-28 19:32:00,
2013-10-28 14:33:00,75.8,64.1,29.96,SSE,155,13.0,15.0,67,0.00,,SKC,0.00,VWS V14.01,2013-10-28 19:33:00,
2013-10-28 14:34:00,76.0,64.3,29.96,SSW,196,13.0,18.0,67,0.00,,SKC,0.00,VWS V14.01,2013-10-28 19:34:00,
2013-10-28 14:35:00,76.2,64.0,29.96,SSW,198,15.0,22.0,66,0.00,,SKC,0.00,VWS V14.01,2013-10-28 19:35:00,
2013-10-28 14:36:00,76.3,64.1,29.96,SSW,202,13.0,18.0,66,0.00,,SKC,0.00,VWS V14.01,2013-10-28 19:36:00,
2013-10-28 14:37:00,78.1,64.5,29.93,South,178,14.0,17.0,63,0.00,,SKC,0.00,VWS V14.01,2013-10-28 19:37:00,
2013-10-28 14:38:00,76.2,64.0,29.96,SSW,200,9.0,16.0,66,0.00,,SKC,0.00,VWS V14.01,2013-10-28 19:38:00,
2013-10-28 14:39:00,76.3,64.1,29.95,South,173,9.0,14.0,66,0.00,,SKC,0.00,VWS V14.01,2013-10-28 19:39:00,
2013-10-28 14:40:00,76.6,64.8,29.95,SSE,167,7.0,11.0,67,0.00,,SKC,0.00,VWS V14.01,2013-10-28 19:40:00,
2013-10-28 14:41:00,76.9,64.7,29.95,South,175,6.0,15.0,66,0.00,,SKC,0.00,VWS V14.01,2013-10-28 19:41:00,
2013-10-28 14:42:00,78.5,64.9,29.92,SSE,157,11.0,20.0,63,0.00,,SKC,0.00,VWS V14.01,2013-10-28 19:42:00,
2013-10-28 14:43:00,77.4,64.7,29.95,SSE,167,19.0,19.0,65,0.00,,SKC,0.00,VWS V14.01,2013-10-28 19:43:00,
2013-10-28 14:44:00,77.4,64.3,29.95,South,190,18.0,20.0,64,0.00,,SKC,0.00,VWS V14.01,2013-10-28 19:44:00,
2013-10-28 14:45:00,77.5,63.9,29.95,South,175,10.0,21.0,63,0.00,,SKC,0.00,VWS V14.01,2013-10-28 19:45:00,
2013-10-28 14:46:00,77.4,63.8,29.95,South,178,7.0,20.0,63,0.00,,SKC,0.00,VWS V14.01,2013-10-28 19:46:00,
2013-10-28 14:47:00,78.4,64.8,29.92,South,172,8.0,12.0,63,0.00,,SKC,0.00,VWS V14.01,2013-10-28 19:47:00,
2013-10-28 14:48:00,77.3,64.2,29.95,SSW,212,13.0,16.0,64,0.00,,SKC,0.00,VWS V14.01,2013-10-28 19:48:00,
2013-10-28 14:49:00,77.1,64.0,29.95,South,189,9.0,20.0,64,0.00,,SKC,0.00,VWS V14.01,2013-10-28 19:49:00,
2013-10-28 14:50:00,77.1,64.4,29.95,SSE,156,5.0,14.0,65,0.00,,SKC,0.00,VWS V14.01,2013-10-28 19:50:00,
2013-10-28 14:51:00,77.2,64.5,29.95,SSE,161,13.0,19.0,65,0.00,,SKC,0.00,VWS V14.01,2013-10-28 19:51:00,
2013-10-28 14:52:00,78.5,64.9,29.92,SSE,150,11.0,14.0,63,0.00,,SKC,0.00,VWS V14.01,2013-10-28 19:52:00,
2013-10-28 14:53:00,77.2,64.1,29.94,SSE,165,13.0,20.0,64,0.00,,SKC,0.00,VWS V14.01,2013-10-28 19:53:00,
2013-10-28 14:54:00,77.3,64.6,29.94,SSE,159,11.0,18.0,65,0.00,,SKC,0.00,VWS V14.01,2013-10-28 19:54:00,
2013-10-28 14:55:00,77.3,64.2,29.94,South,188,13.0,16.0,64,0.00,,SKC,0.00,VWS V14.01,2013-10-28 19:55:00,
2013-10-28 14:56:00,77.3,64.2,29.94,South,177,11.0,14.0,64,0.00,,SKC,0.00,VWS V14.01,2013-10-28 19:56:00,
2013-10-28 14:57:00,77.7,64.1,29.92,SSE,154,6.0,12.0,63,0.00,,SKC,0.00,VWS V14.01,2013-10-28 19:57:00,
2013-10-28 14:58:00,77.6,64.5,29.94,South,170,10.0,14.0,64,0.00,,SKC,0.00,VWS V14.01,2013-10-28 19:58:00,
2013-10-28 14:59:00,77.8,65.1,29.94,SE,132,13.0,19.0,65,0.00,,SKC,0.00,VWS V14.01,2013-10-28 19:59:00,
2013-10-28 15:00:00,78.0,64.8,29.94,SSE,167,12.0,17.0,64,0.00,,SKC,0.00,VWS V14.01,2013-10-28 20:00:00,
2013-10-28 15:01:00,77.9,64.3,29.94,SW,214,15.0,17.0,63,0.00,,SKC,0.00,VWS V14.01,2013-10-28 20:01:00,
2013-10-28 15:02:00,77.5,63.9,29.92,SSE,168,13.0,15.0,63,0.00,,SKC,0.00,VWS V14.01,2013-10-28 20:02:00,
2013-10-28 15:03:00,77.8,64.7,29.94,SSE,164,5.0,14.0,64,0.00,,SKC,0.00,VWS V14.01,2013-10-28 20:03:00,
2013-10-28 15:04:00,77.9,64.8,29.94,South,186,13.0,14.0,64,0.00,,SKC,0.00,VWS V14.01,2013-10-28 20:04:00,
2013-10-28 15:05:00,77.8,64.2,29.94,SE,139,12.0,14.0,63,0.00,,SKC,0.00,VWS V14.01,2013-10-28 20:05:00,
2013-10-28 15:06:00,77.7,64.1,29.94,South,184,18.0,20.0,63,0.00,,SKC,0.00,VWS V14.01,2013-10-28 20:06:00,
2013-10-28 15:07:00,78.0,64.8,29.92,SSE,153,9.0,13.0,64,0.00,,SKC,0.00,VWS V14.01,2013-10-28 20:07:00,
2013-10-28 15:08:00,77.6,64.0,29.94,South,180,10.0,21.0,63,0.00,,SKC,0.00,VWS V14.01,2013-10-28 20:08:00,
2013-10-28 15:09:00,77.5,64.4,29.94,SSE,166,8.0,13.0,64,0.00,,SKC,0.00,VWS V14.01,2013-10-28 20:09:00,
2013-10-28 15:10:00,77.6,64.5,29.94,South,173,14.0,16.0,64,0.00,,SKC,0.00,VWS V14.01,2013-10-28 20:10:00,
2013-10-28 15:11:00,77.6,64.5,29.94,SSE,152,12.0,19.0,64,0.00,,SKC,0.00,VWS V14.01,2013-10-28 20:11:00,
2013-10-28 15:12:00,76.9,63.4,29.92,SSE,147,7.0,10.0,63,0.00,,SKC,0.00,VWS V14.01,2013-10-28 20:12:00,
2013-10-28 15:13:00,77.6,64.5,29.93,SSE,159,14.0,14.0,64,0.00,,SKC,0.00,VWS V14.01,2013-10-28 20:13:00,
2013-10-28 15:14:00,77.8,64.2,29.93,South,190,18.0,21.0,63,0.00,,SKC,0.00,VWS V14.01,2013-10-28 20:14:00,
2013-10-28 15:15:00,77.9,64.8,29.94,South,171,10.0,18.0,64,0.00,,SKC,0.00,VWS V14.01,2013-10-28 20:15:00,
2013-10-28 15:16:00,78.2,65.0,29.94,SSW,196,9.0,13.0,64,0.00,,SKC,0.00,VWS V14.01,2013-10-28 20:16:00,
2013-10-28 15:17:00,76.5,63.4,29.92,SSE,161,13.0,19.0,64,0.00,,SKC,0.00,VWS V14.01,2013-10-28 20:17:00,
2013-10-28 15:18:00,78.3,64.2,29.93,South,176,6.0,21.0,62,0.00,,SKC,0.00,VWS V14.01,2013-10-28 20:18:00,
2013-10-28 15:19:00,78.3,64.7,29.93,South,188,9.0,13.0,63,0.00,,SKC,0.00,VWS V14.01,2013-10-28 20:19:00,
2013-10-28 15:20:00,78.6,65.0,29.93,South,172,13.0,16.0,63,0.00,,SKC,0.00,VWS V14.01,2013-10-28 20:20:00,
2013-10-28 15:21:00,78.7,64.6,29.93,South,181,17.0,19.0,62,0.00,,SKC,0.00,VWS V14.01,2013-10-28 20:21:00,
2013-10-28 15:22:00,76.1,63.9,29.92,SE,142,13.0,18.0,66,0.00,,SKC,0.00,VWS V14.01,2013-10-28 20:22:00,
2013-10-28 15:23:00,78.9,64.8,29.93,South,181,13.0,15.0,62,0.00,,SKC,0.00,VWS V14.01,2013-10-28 20:23:00,
2013-10-28 15:24:00,78.8,64.2,29.93,South,188,17.0,20.0,61,0.00,,SKC,0.00,VWS V14.01,2013-10-28 20:24:00,
2013-10-28 15:25:00,78.7,64.6,29.93,SSW,199,12.0,17.0,62,0.00,,SKC,0.00,VWS V14.01,2013-10-28 20:25:00,
2013-10-28 15:26:00,78.4,64.3,29.93,SE,134,7.0,13.0,62,0.00,,SKC,0.00,VWS V14.01,2013-10-28 20:26:00,
2013-10-28 15:27:00,76.4,64.2,29.92,SSE,153,11.0,13.0,66,0.00,,SKC,0.00,VWS V14.01,2013-10-28 20:27:00,
2013-10-28 15:28:00,77.7,63.7,29.93,SE,131,13.0,15.0,62,0.00,,SKC,0.00,VWS V14.01,2013-10-28 20:28:00,
2013-10-28 15:29:00,77.4,63.8,29.93,South,189,11.0,16.0,63,0.00,,SKC,0.00,VWS V14.01,2013-10-28 20:29:00,
2013-10-28 15:30:00,77.3,64.2,29.93,SSE,163,5.0,16.0,64,0.00,,SKC,0.00,VWS V14.01,2013-10-28 20:30:00,
2013-10-28 15:31:00,77.5,64.4,29.93,SE,141,8.0,15.0,64,0.00,,SKC,0.00,VWS V14.01,2013-10-28 20:31:00,
2013-10-28 15:32:00,77.3,63.7,29.92,SSE,153,10.0,18.0,63,0.00,,SKC,0.00,VWS V14.01,2013-10-28 20:32:00,
2013-10-28 15:33:00,77.8,65.1,29.93,South,171,11.0,14.0,65,0.00,,SKC,0.00,VWS V14.01,2013-10-28 20:33:00,
2013-10-28 15:34:00,78.1,64.9,29.93,SSE,156,16.0,16.0,64,0.00,,SKC,0.00,VWS V14.01,2013-10-28 20:34:00,
2013-10-28 15:35:00,78.1,64.5,29.93,SSE,151,13.0,17.0,63,0.00,,SKC,0.00,VWS V14.01,2013-10-28 20:35:00,
2013-10-28 15:36:00,78.1,64.5,29.92,SSE,163,8.0,19.0,63,0.00,,SKC,0.00,VWS V14.01,2013-10-28 20:36:00,
2013-10-28 15:37:00,76.6,63.5,29.92,SE,130,16.0,16.0,64,0.00,,SKC,0.00,VWS V14.01,2013-10-28 20:37:00,
2013-10-28 15:38:00,78.2,65.0,29.92,SSE,160,12.0,14.0,64,0.00,,SKC,0.00,VWS V14.01,2013-10-28 20:38:00,
2013-10-28 15:39:00,78.4,64.8,29.92,South,184,15.0,17.0,63,0.00,,SKC,0.00,VWS V14.01,2013-10-28 20:39:00,
2013-10-28 15:40:00,78.5,64.9,29.92,SSE,161,10.0,20.0,63,0.00,,SKC,0.00,VWS V14.01,2013-10-28 20:40:00,
2013-10-28 15:41:00,78.5,64.9,29.92,South,189,18.0,18.0,63,0.00,,SKC,0.00,VWS V14.01,2013-10-28 20:41:00,
2013-10-28 15:42:00,76.9,63.8,29.92,SSE,167,17.0,17.0,64,0.00,,SKC,0.00,VWS V14.01,2013-10-28 20:42:00,
2013-10-28 15:43:00,78.5,64.4,29.92,South,171,17.0,18.0,62,0.00,,SKC,0.00,VWS V14.01,2013-10-28 20:43:00,
2013-10-28 15:44:00,78.4,64.3,29.92,South,172,7.0,17.0,62,0.00,,SKC,0.00,VWS V14.01,2013-10-28 20:44:00,
2013-10-28 15:45:00,78.4,64.8,29.92,South,184,12.0,12.0,63,0.00,,SKC,0.00,VWS V14.01,2013-10-28 20:45:00,
2013-10-28 15:46:00,78.5,64.9,29.92,South,175,11.0,13.0,63,0.00,,SKC,0.00,VWS V14.01,2013-10-28 20:46:00,
2013-10-28 15:47:00,76.9,62.9,29.92,South,177,15.0,22.0,62,0.00,,SKC,0.00,VWS V14.01,2013-10-28 20:47:00,
2013-10-28 15:48:00,78.5,64.4,29.92,SSE,150,6.0,18.0,62,0.00,,SKC,0.00,VWS V14.01,2013-10-28 20:48:00,
2013-10-28 15:49:00,78.5,64.9,29.92,SSE,157,13.0,14.0,63,0.00,,SKC,0.00,VWS V14.01,2013-10-28 20:49:00,
2013-10-28 15:50:00,78.4,64.8,29.92,South,190,10.0,14.0,63,0.00,,SKC,0.00,VWS V14.01,2013-10-28 20:50:00,
2013-10-28 15:51:00,78.3,64.7,29.92,SSE,164,15.0,16.0,63,0.00,,SKC,0.00,VWS V14.01,2013-10-28 20:51:00,
2013-10-28 15:52:00,77.2,63.6,29.92,South,188,16.0,20.0,63,0.00,,SKC,0.00,VWS V14.01,2013-10-28 20:52:00,
2013-10-28 15:53:00,78.1,64.5,29.92,South,176,16.0,16.0,63,0.00,,SKC,0.00,VWS V14.01,2013-10-28 20:53:00,
2013-10-28 15:54:00,77.8,64.2,29.92,SSE,150,12.0,16.0,63,0.00,,SKC,0.00,VWS V14.01,2013-10-28 20:54:00,
2013-10-28 15:55:00,77.7,64.6,29.92,South,172,9.0,12.0,64,0.00,,SKC,0.00,VWS V14.01,2013-10-28 20:55:00,
2013-10-28 15:56:00,77.7,64.6,29.92,SSE,159,7.0,14.0,64,0.00,,SKC,0.00,VWS V14.01,2013-10-28 20:56:00,
2013-10-28 15:57:00,76.7,63.6,29.92,South,169,11.0,12.0,64,0.00,,SKC,0.00,VWS V14.01,2013-10-28 20:57:00,
2013-10-28 15:58:00,77.5,63.9,29.92,SE,142,9.0,15.0,63,0.00,,SKC,0.00,VWS V14.01,2013-10-28 20:58:00,
2013-10-28 15:59:00,77.5,64.4,29.92,SSE,165,15.0,18.0,64,0.00,,SKC,0.00,VWS V14.01,2013-10-28 20:59:00,
2013-10-28 16:00:00,77.5,63.9,29.92,SSE,161,14.0,15.0,63,0.00,,SKC,0.00,VWS V14.01,2013-10-28 21:00:00,
2013-10-28 16:01:00,77.6,64.5,29.92,SSE,160,14.0,15.0,64,0.00,,SKC,0.00,VWS V14.01,2013-10-28 21:01:00,
2013-10-28 16:02:00,76.1,63.0,29.92,SSE,159,22.0,22.0,64,0.00,,SKC,0.00,VWS V14.01,2013-10-28 21:02:00,
2013-10-28 16:03:00,77.8,64.2,29.92,SSE,159,14.0,17.0,63,0.00,,SKC,0.00,VWS V14.01,2013-10-28 21:03:00,
2013-10-28 16:04:00,77.9,64.3,29.92,SSE,149,10.0,17.0,63,0.00,,SKC,0.00,VWS V14.01,2013-10-28 21:04:00,
2013-10-28 16:05:00,78.0,64.8,29.92,SSE,159,12.0,13.0,64,0.00,,SKC,0.00,VWS V14.01,2013-10-28 21:05:00,
2013-10-28 16:06:00,78.1,64.5,29.92,South,182,10.0,17.0,63,0.00,,SKC,0.00,VWS V14.01,2013-10-28 21:06:00,
2013-10-28 16:07:00,75.6,63.0,29.92,SSE,161,13.0,14.0,65,0.00,,SKC,0.00,VWS V14.01,2013-10-28 21:07:00,
2013-10-28 16:08:00,77.5,63.9,29.92,South,178,14.0,19.0,63,0.00,,SKC,0.00,VWS V14.01,2013-10-28 21:08:00,
2013-10-28 16:09:00,77.2,63.6,29.92,South,178,7.0,16.0,63,0.00,,SKC,0.00,VWS V14.01,2013-10-28 21:09:00,
2013-10-28 16:10:00,76.9,63.4,29.92,SSE,157,5.0,10.0,63,0.00,,SKC,0.00,VWS V14.01,2013-10-28 21:10:00,
2013-10-28 16:11:00,76.7,63.6,29.92,South,186,12.0,15.0,64,0.00,,SKC,0.00,VWS V14.01,2013-10-28 21:11:00,
2013-10-28 16:12:00,75.6,63.5,29.92,South,186,10.0,16.0,66,0.00,,SKC,0.00,VWS V14.01,2013-10-28 21:12:00,
2013-10-28 16:13:00,76.6,64.0,29.92,South,173,14.0,16.0,65,0.00,,SKC,0.00,VWS V14.01,2013-10-28 21:13:00,
2013-10-28 16:14:00,76.6,64.0,29.92,SSE,163,12.0,15.0,65,0.00,,SKC,0.00,VWS V14.01,2013-10-28 21:14:00,
2013-10-28 16:15:00,76.4,63.3,29.92,SSE,152,7.0,19.0,64,0.00,,SKC,0.00,VWS V14.01,2013-10-28 21:15:00,
2013-10-28 16:16:00,76.3,63.7,29.92,SSE,161,14.0,17.0,65,0.00,,SKC,0.00,VWS V14.01,2013-10-28 21:16:00,
2013-10-28 16:17:00,75.6,63.9,29.91,SE,137,11.0,19.0,67,0.00,,SKC,0.00,VWS V14.01,2013-10-28 21:17:00,
2013-10-28 16:18:00,76.0,63.8,29.92,South,179,13.0,16.0,66,0.00,,SKC,0.00,VWS V14.01,2013-10-28 21:18:00,
2013-10-28 16:19:00,76.0,63.8,29.92,South,175,8.0,18.0,66,0.00,,SKC,0.00,VWS V14.01,2013-10-28 21:19:00,
2013-10-28 16:20:00,76.1,63.9,29.92,SSE,156,11.0,18.0,66,0.00,,SKC,0.00,VWS V14.01,2013-10-28 21:20:00,
2013-10-28 16:21:00,76.2,64.0,29.92,SE,130,7.0,14.0,66,0.00,,SKC,0.00,VWS V14.01,2013-10-28 21:21:00,
2013-10-28 16:22:00,75.4,64.1,29.91,South,188,8.0,14.0,68,0.00,,SKC,0.00,VWS V14.01,2013-10-28 21:22:00,
2013-10-28 16:23:00,76.3,63.7,29.92,South,174,18.0,21.0,65,0.00,,SKC,0.00,VWS V14.01,2013-10-28 21:23:00,
2013-10-28 16:24:00,76.3,63.7,29.92,SSE,161,9.0,18.0,65,0.00,,SKC,0.00,VWS V14.01,2013-10-28 21:24:00,
2013-10-28 16:25:00,76.4,64.2,29.92,SSE,168,10.0,13.0,66,0.00,,SKC,0.00,VWS V14.01,2013-10-28 21:25:00,
2013-10-28 16:26:00,76.7,64.1,29.92,SE,146,11.0,18.0,65,0.00,,SKC,0.00,VWS V14.01,2013-10-28 21:26:00,
2013-10-28 16:27:00,75.3,64.0,29.91,SSE,163,17.0,17.0,68,0.00,,SKC,0.00,VWS V14.01,2013-10-28 21:27:00,
2013-10-28 16:28:00,77.1,64.4,29.92,SSE,161,11.0,17.0,65,0.00,,SKC,0.00,VWS V14.01,2013-10-28 21:28:00,
2013-10-28 16:29:00,77.3,64.2,29.92,SSW,200,18.0,21.0,64,0.00,,SKC,0.00,VWS V14.01,2013-10-28 21:29:00,
2013-10-28 16:30:00,77.3,63.7,29.92,SE,143,9.0,18.0,63,0.00,,SKC,0.00,VWS V14.01,2013-10-28 21:30:00,
2013-10-28 16:31:00,77.2,63.6,29.92,South,169,22.0,22.0,63,0.00,,SKC,0.00,VWS V14.01,2013-10-28 21:31:00,
2013-10-28 16:32:00,75.3,64.0,29.92,SE,136,12.0,16.0,68,0.00,,SKC,0.00,VWS V14.01,2013-10-28 21:32:00,
2013-10-28 16:33:00,76.8,63.7,29.92,SSE,161,13.0,15.0,64,0.00,,SKC,0.00,VWS V14.01,2013-10-28 21:33:00,
2013-10-28 16:34:00,76.7,63.6,29.92,SE,143,13.0,20.0,64,0.00,,SKC,0.00,VWS V14.01,2013-10-28 21:34:00,
2013-10-28 16:35:00,76.6,63.5,29.92,SE,133,17.0,17.0,64,0.00,,SKC,0.00,VWS V14.01,2013-10-28 21:35:00,
2013-10-28 16:36:00,76.5,63.4,29.92,SSE,167,12.0,18.0,64,0.00,,SKC,0.00,VWS V14.01,2013-10-28 21:36:00,
2013-10-28 16:37:00,75.3,64.0,29.91,South,180,8.0,11.0,68,0.00,,SKC,0.00,VWS V14.01,2013-10-28 21:37:00,
2013-10-28 16:38:00,76.7,64.1,29.92,South,184,10.0,14.0,65,0.00,,SKC,0.00,VWS V14.01,2013-10-28 21:38:00,
2013-10-28 16:39:00,76.9,64.2,29.92,South,182,15.0,19.0,65,0.00,,SKC,0.00,VWS V14.01,2013-10-28 21:39:00,
2013-10-28 16:40:00,77.0,63.9,29.92,South,171,15.0,18.0,64,0.00,,SKC,0.00,VWS V14.01,2013-10-28 21:40:00,
2013-10-28 16:41:00,77.1,63.5,29.92,SSE,161,9.0,15.0,63,0.00,,SKC,0.00,VWS V14.01,2013-10-28 21:41:00,
2013-10-28 16:42:00,75.7,64.4,29.91,South,180,18.0,18.0,68,0.00,,SKC,0.00,VWS V14.01,2013-10-28 21:42:00,
2013-10-28 16:43:00,77.2,63.2,29.92,SSE,158,17.0,19.0,62,0.00,,SKC,0.00,VWS V14.01,2013-10-28 21:43:00,
2013-10-28 16:44:00,77.0,63.0,29.92,SSE,165,16.0,18.0,62,0.00,,SKC,0.00,VWS V14.01,2013-10-28 21:44:00,
2013-10-28 16:45:00,76.9,62.9,29.92,SSE,152,7.0,22.0,62,0.00,,SKC,0.00,VWS V14.01,2013-10-28 21:45:00,
2013-10-28 16:46:00,76.9,63.4,29.92,SE,138,11.0,20.0,63,0.00,,SKC,0.00,VWS V14.01,2013-10-28 21:46:00,
2013-10-28 16:47:00,75.6,64.3,29.91,South,184,16.0,16.0,68,0.00,,SKC,0.00,VWS V14.01,2013-10-28 21:47:00,
2013-10-28 16:48:00,77.1,63.5,29.92,South,173,15.0,18.0,63,0.00,,SKC,0.00,VWS V14.01,2013-10-28 21:48:00,
2013-10-28 16:49:00,77.2,63.6,29.92,SSE,163,7.0,15.0,63,0.00,,SKC,0.00,VWS V14.01,2013-10-28 21:49:00,
2013-10-28 16:50:00,77.2,63.6,29.92,SSE,153,10.0,20.0,63,0.00,,SKC,0.00,VWS V14.01,2013-10-28 21:50:00,
2013-10-28 16:51:00,77.2,63.6,29.92,SSE,165,11.0,16.0,63,0.00,,SKC,0.00,VWS V14.01,2013-10-28 21:51:00,
2013-10-28 16:52:00,75.5,64.2,29.92,SSE,149,13.0,14.0,68,0.00,,SKC,0.00,VWS V14.01,2013-10-28 21:52:00,
2013-10-28 16:53:00,76.9,63.4,29.92,South,190,6.0,15.0,63,0.00,,SKC,0.00,VWS V14.01,2013-10-28 21:53:00,
2013-10-28 16:54:00,76.8,63.3,29.92,SSW,199,9.0,12.0,63,0.00,,SKC,0.00,VWS V14.01,2013-10-28 21:54:00,
2013-10-28 16:55:00,76.7,63.6,29.92,South,177,11.0,13.0,64,0.00,,SKC,0.00,VWS V14.01,2013-10-28 21:55:00,
2013-10-28 16:56:00,76.6,63.5,29.92,SSW,197,13.0,20.0,64,0.00,,SKC,0.00,VWS V14.01,2013-10-28 21:56:00,
2013-10-28 16:57:00,75.3,64.0,29.91,South,171,14.0,17.0,68,0.00,,SKC,0.00,VWS V14.01,2013-10-28 21:57:00,
2013-10-28 16:58:00,76.4,63.3,29.92,SSW,194,14.0,21.0,64,0.00,,SKC,0.00,VWS V14.01,2013-10-28 21:58:00,
2013-10-28 16:59:00,76.2,63.2,29.92,South,186,13.0,22.0,64,0.00,,SKC,0.00,VWS V14.01,2013-10-28 21:59:00,
2013-10-28 17:00:00,76.0,63.0,29.92,South,182,15.0,22.0,64,0.00,,SKC,0.00,VWS V14.01,2013-10-28 22:00:00,
2013-10-28 17:01:00,75.9,63.3,29.92,SSW,201,17.0,24.0,65,0.00,,SKC,0.00,VWS V14.01,2013-10-28 22:01:00,
2013-10-28 17:02:00,75.4,64.1,29.91,South,172,17.0,21.0,68,0.00,,SKC,0.00,VWS V14.01,2013-10-28 22:02:00,
2013-10-28 17:03:00,75.7,63.1,29.92,SSE,165,16.0,18.0,65,0.00,,SKC,0.00,VWS V14.01,2013-10-28 22:03:00,
2013-10-28 17:04:00,75.6,63.0,29.92,SE,144,14.0,22.0,65,0.00,,SKC,0.00,VWS V14.01,2013-10-28 22:04:00,
2013-10-28 17:05:00,75.6,63.0,29.92,SSE,168,12.0,14.0,65,0.00,,SKC,0.00,VWS V14.01,2013-10-28 22:05:00,
2013-10-28 17:06:00,75.5,63.4,29.92,SSE,159,10.0,17.0,66,0.00,,SKC,0.00,VWS V14.01,2013-10-28 22:06:00,
2013-10-28 17:07:00,75.5,64.2,29.91,South,173,11.0,14.0,68,0.00,,SKC,0.00,VWS V14.01,2013-10-28 22:07:00,
2013-10-28 17:08:00,75.6,63.5,29.92,South,171,18.0,18.0,66,0.00,,SKC,0.00,VWS V14.01,2013-10-28 22:08:00,
2013-10-28 17:09:00,75.6,63.5,29.92,SSE,167,11.0,20.0,66,0.00,,SKC,0.00,VWS V14.01,2013-10-28 22:09:00,
2013-10-28 17:10:00,75.6,63.5,29.92,SSE,164,7.0,16.0,66,0.00,,SKC,0.00,VWS V14.01,2013-10-28 22:10:00,
2013-10-28 17:11:00,75.6,63.5,29.91,SSE,159,10.0,14.0,66,0.00,,SKC,0.00,VWS V14.01,2013-10-28 22:11:00,
2013-10-28 17:12:00,75.4,64.1,29.91,SE,142,16.0,19.0,68,0.00,,SKC,0.00,VWS V14.01,2013-10-28 22:12:00,
2013-10-28 17:13:00,75.7,64.0,29.92,SE,129,13.0,14.0,67,0.00,,SKC,0.00,VWS V14.01,2013-10-28 22:13:00,
2013-10-28 17:14:00,75.7,64.0,29.91,SSW,196,11.0,14.0,67,0.00,,SKC,0.00,VWS V14.01,2013-10-28 22:14:00,
2013-10-28 17:15:00,75.6,63.9,29.91,SSE,159,6.0,19.0,67,0.00,,SKC,0.00,VWS V14.01,2013-10-28 22:15:00,
2013-10-28 17:16:00,75.6,64.3,29.91,SSE,156,16.0,16.0,68,0.00,,SKC,0.00,VWS V14.01,2013-10-28 22:16:00,
2013-10-28 17:17:00,75.4,64.1,29.91,SSE,162,9.0,18.0,68,0.00,,SKC,0.00,VWS V14.01,2013-10-28 22:17:00,
2013-10-28 17:18:00,75.5,63.8,29.92,SSE,148,6.0,15.0,67,0.00,,SKC,0.00,VWS V14.01,2013-10-28 22:18:00,
2013-10-28 17:19:00,75.5,64.2,29.92,SSE,153,7.0,13.0,68,0.00,,SKC,0.00,VWS V14.01,2013-10-28 22:19:00,
2013-10-28 17:20:00,75.5,64.2,29.91,SSE,163,15.0,15.0,68,0.00,,SKC,0.00,VWS V14.01,2013-10-28 22:20:00,
2013-10-28 17:21:00,75.4,64.1,29.92,South,181,9.0,17.0,68,0.00,,SKC,0.00,VWS V14.01,2013-10-28 22:21:00,
2013-10-28 17:22:00,75.4,64.1,29.91,SE,128,7.0,22.0,68,0.00,,SKC,0.00,VWS V14.01,2013-10-28 22:22:00,
2013-10-28 17:23:00,75.4,64.1,29.91,SE,140,9.0,18.0,68,0.00,,SKC,0.00,VWS V14.01,2013-10-28 22:23:00,
2013-10-28 17:24:00,75.4,64.1,29.91,South,186,12.0,15.0,68,0.00,,SKC,0.00,VWS V14.01,2013-10-28 22:24:00,
2013-10-28 17:25:00,75.3,64.0,29.91,South,177,14.0,17.0,68,0.00,,SKC,0.00,VWS V14.01,2013-10-28 22:25:00,
2013-10-28 17:26:00,75.3,64.0,29.91,South,173,10.0,14.0,68,0.00,,SKC,0.00,VWS V14.01,2013-10-28 22:26:00,
2013-10-28 17:27:00,75.3,64.4,29.91,SSE,157,11.0,14.0,69,0.00,,SKC,0.00,VWS V14.01,2013-10-28 22:27:00,
2013-10-28 17:28:00,75.3,64.0,29.91,SSE,152,6.0,13.0,68,0.00,,SKC,0.00,VWS V14.01,2013-10-28 22:28:00,
2013-10-28 17:29:00,75.3,64.0,29.92,SE,145,13.0,13.0,68,0.00,,SKC,0.00,VWS V14.01,2013-10-28 22:29:00,
2013-10-28 17:30:00,75.3,64.0,29.92,South,179,13.0,16.0,68,0.00,,SKC,0.00,VWS V14.01,2013-10-28 22:30:00,
2013-10-28 17:31:00,75.3,64.0,29.92,SSE,151,16.0,16.0,68,0.00,,SKC,0.00,VWS V14.01,2013-10-28 22:31:00,
2013-10-28 17:32:00,75.3,64.4,29.91,SE,136,9.0,14.0,69,0.00,,SKC,0.00,VWS V14.01,2013-10-28 22:32:00,
2013-10-28 17:33:00,75.3,64.0,29.91,SSE,164,10.0,19.0,68,0.00,,SKC,0.00,VWS V14.01,2013-10-28 22:33:00,
2013-10-28 17:34:00,75.3,64.0,29.92,SSE,159,10.0,18.0,68,0.00,,SKC,0.00,VWS V14.01,2013-10-28 22:34:00,
2013-10-28 17:35:00,75.3,64.0,29.91,SSE,157,11.0,11.0,68,0.00,,SKC,0.00,VWS V14.01,2013-10-28 22:35:00,
2013-10-28 17:36:00,75.4,64.1,29.91,SSE,159,11.0,12.0,68,0.00,,SKC,0.00,VWS V14.01,2013-10-28 22:36:00,
2013-10-28 17:37:00,75.1,64.2,29.91,South,171,11.0,12.0,69,0.00,,SKC,0.00,VWS V14.01,2013-10-28 22:37:00,
2013-10-28 17:38:00,75.5,64.2,29.91,SSE,155,5.0,10.0,68,0.00,,SKC,0.00,VWS V14.01,2013-10-28 22:38:00,
2013-10-28 17:39:00,75.6,64.3,29.92,SE,146,9.0,16.0,68,0.00,,SKC,0.00,VWS V14.01,2013-10-28 22:39:00,
2013-10-28 17:40:00,75.7,64.0,29.91,SSW,210,12.0,18.0,67,0.00,,SKC,0.00,VWS V14.01,2013-10-28 22:40:00,
2013-10-28 17:41:00,75.7,64.4,29.91,South,176,14.0,15.0,68,0.00,,SKC,0.00,VWS V14.01,2013-10-28 22:41:00,
2013-10-28 17:42:00,75.1,64.2,29.91,SSW,196,10.0,15.0,69,0.00,,SKC,0.00,VWS V14.01,2013-10-28 22:42:00,
2013-10-28 17:43:00,75.7,64.4,29.91,South,177,11.0,15.0,68,0.00,,SKC,0.00,VWS V14.01,2013-10-28 22:43:00,
2013-10-28 17:44:00,75.6,64.3,29.91,SSE,166,6.0,14.0,68,0.00,,SKC,0.00,VWS V14.01,2013-10-28 22:44:00,
2013-10-28 17:45:00,75.6,64.3,29.91,SSE,158,12.0,16.0,68,0.00,,SKC,0.00,VWS V14.01,2013-10-28 22:45:00,
2013-10-28 17:46:00,75.6,64.3,29.91,SSE,155,9.0,15.0,68,0.00,,SKC,0.00,VWS V14.01,2013-10-28 22:46:00,
2013-10-28 17:47:00,75.0,64.2,29.91,SSE,156,11.0,17.0,69,0.00,,SKC,0.00,VWS V14.01,2013-10-28 22:47:00,
2013-10-28 17:48:00,75.5,64.2,29.92,SE,125,13.0,15.0,68,0.00,,SKC,0.00,VWS V14.01,2013-10-28 22:48:00,
2013-10-28 17:49:00,75.5,64.2,29.91,South,176,12.0,14.0,68,0.00,,SKC,0.00,VWS V14.01,2013-10-28 22:49:00,
2013-10-28 17:50:00,75.5,64.2,29.92,South,184,14.0,14.0,68,0.00,,SKC,0.00,VWS V14.01,2013-10-28 22:50:00,
2013-10-28 17:51:00,75.4,64.1,29.92,South,171,10.0,17.0,68,0.00,,SKC,0.00,VWS V14.01,2013-10-28 22:51:00,
2013-10-28 17:52:00,74.9,64.1,29.91,SSE,157,11.0,16.0,69,0.00,,SKC,0.00,VWS V14.01,2013-10-28 22:52:00,
2013-10-28 17:53:00,75.3,64.0,29.91,South,178,10.0,13.0,68,0.00,,SKC,0.00,VWS V14.01,2013-10-28 22:53:00,
2013-10-28 17:54:00,75.3,64.0,29.91,SSE,161,11.0,17.0,68,0.00,,SKC,0.00,VWS V14.01,2013-10-28 22:54:00,
2013-10-28 17:55:00,75.3,64.0,29.91,South,169,13.0,17.0,68,0.00,,SKC,0.00,VWS V14.01,2013-10-28 22:55:00,
2013-10-28 17:56:00,75.3,64.0,29.91,SE,144,14.0,14.0,68,0.00,,SKC,0.00,VWS V14.01,2013-10-28 22:56:00,
2013-10-28 17:57:00,74.8,64.0,29.91,ESE,113,8.0,12.0,69,0.00,,SKC,0.00,VWS V14.01,2013-10-28 22:57:00,
2013-10-28 17:58:00,75.3,64.0,29.91,SSW,196,10.0,16.0,68,0.00,,SKC,0.00,VWS V14.01,2013-10-28 22:58:00,
2013-10-28 17:59:00,75.4,64.1,29.91,South,174,9.0,16.0,68,0.00,,SKC,0.00,VWS V14.01,2013-10-28 22:59:00,
2013-10-28 18:00:00,75.4,64.1,29.91,South,175,9.0,21.0,68,0.00,,SKC,0.00,VWS V14.01,2013-10-28 23:00:00,
2013-10-28 18:01:00,75.4,64.1,29.91,SSE,155,11.0,19.0,68,0.00,,SKC,0.00,VWS V14.01,2013-10-28 23:01:00,
2013-10-28 18:02:00,74.8,64.0,29.92,SE,135,9.0,11.0,69,0.00,,SKC,0.00,VWS V14.01,2013-10-28 23:02:00,
2013-10-28 18:03:00,75.5,64.2,29.91,SE,146,11.0,16.0,68,0.00,,SKC,0.00,VWS V14.01,2013-10-28 23:03:00,
2013-10-28 18:04:00,75.5,64.2,29.91,SSE,168,14.0,16.0,68,0.00,,SKC,0.00,VWS V14.01,2013-10-28 23:04:00,
2013-10-28 18:05:00,75.5,64.2,29.91,SSE,154,7.0,14.0,68,0.00,,SKC,0.00,VWS V14.01,2013-10-28 23:05:00,
2013-10-28 18:06:00,75.5,64.2,29.91,SSE,163,16.0,17.0,68,0.00,,SKC,0.00,VWS V14.01,2013-10-28 23:06:00,
2013-10-28 18:07:00,74.7,63.9,29.91,SSE,160,6.0,10.0,69,0.00,,SKC,0.00,VWS V14.01,2013-10-28 23:07:00,
2013-10-28 18:08:00,75.4,64.1,29.91,SE,136,7.0,19.0,68,0.00,,SKC,0.00,VWS V14.01,2013-10-28 23:08:00,
2013-10-28 18:09:00,75.4,64.1,29.91,SSE,159,13.0,18.0,68,0.00,,SKC,0.00,VWS V14.01,2013-10-28 23:09:00,
2013-10-28 18:10:00,75.4,64.1,29.91,ESE,107,16.0,19.0,68,0.00,,SKC,0.00,VWS V14.01,2013-10-28 23:10:00,
2013-10-28 18:11:00,75.4,64.1,29.91,South,173,10.0,16.0,68,0.00,,SKC,0.00,VWS V14.01,2013-10-28 23:11:00,
2013-10-28 18:12:00,74.6,63.8,29.91,SSE,166,7.0,16.0,69,0.00,,SKC,0.00,VWS V14.01,2013-10-28 23:12:00,
2013-10-28 18:13:00,75.4,64.1,29.91,SSE,163,6.0,13.0,68,0.00,,SKC,0.00,VWS V14.01,2013-10-28 23:13:00,
2013-10-28 18:14:00,75.5,64.2,29.91,South,186,8.0,16.0,68,0.00,,SKC,0.00,VWS V14.01,2013-10-28 23:14:00,
2013-10-28 18:15:00,75.5,64.2,29.91,South,179,6.0,18.0,68,0.00,,SKC,0.00,VWS V14.01,2013-10-28 23:15:00,
2013-10-28 18:16:00,75.5,64.2,29.91,SE,146,8.0,13.0,68,0.00,,SKC,0.00,VWS V14.01,2013-10-28 23:16:00,
2013-10-28 18:17:00,74.6,63.8,29.91,SSW,192,9.0,13.0,69,0.00,,SKC,0.00,VWS V14.01,2013-10-28 23:17:00,
2013-10-28 18:18:00,75.5,64.2,29.91,SSE,158,17.0,17.0,68,0.00,,SKC,0.00,VWS V14.01,2013-10-28 23:18:00,
2013-10-28 18:19:00,75.5,64.2,29.91,South,186,12.0,17.0,68,0.00,,SKC,0.00,VWS V14.01,2013-10-28 23:19:00,
2013-10-28 18:20:00,75.4,64.1,29.91,SSE,159,8.0,22.0,68,0.00,,SKC,0.00,VWS V14.01,2013-10-28 23:20:00,
2013-10-28 18:21:00,75.4,64.1,29.91,SSE,159,13.0,16.0,68,0.00,,SKC,0.00,VWS V14.01,2013-10-28 23:21:00,
2013-10-28 18:22:00,74.5,63.7,29.91,SSE,163,11.0,12.0,69,0.00,,SKC,0.00,VWS V14.01,2013-10-28 23:22:00,
2013-10-28 18:23:00,75.3,64.0,29.91,SE,136,9.0,14.0,68,0.00,,SKC,0.00,VWS V14.01,2013-10-28 23:23:00,
2013-10-28 18:24:00,75.3,64.4,29.91,SSE,158,9.0,10.0,69,0.00,,SKC,0.00,VWS V14.01,2013-10-28 23:24:00,
2013-10-28 18:25:00,75.3,64.4,29.91,SSE,160,5.0,14.0,69,0.00,,SKC,0.00,VWS V14.01,2013-10-28 23:25:00,
2013-10-28 18:26:00,75.3,64.4,29.91,South,188,7.0,11.0,69,0.00,,SKC,0.00,VWS V14.01,2013-10-28 23:26:00,
2013-10-28 18:27:00,74.5,63.7,29.92,SE,138,10.0,11.0,69,0.00,,SKC,0.00,VWS V14.01,2013-10-28 23:27:00,
2013-10-28 18:28:00,75.3,64.4,29.91,SE,126,13.0,13.0,69,0.00,,SKC,0.00,VWS V14.01,2013-10-28 23:28:00,
2013-10-28 18:29:00,75.3,64.4,29.91,SE,136,12.0,16.0,69,0.00,,SKC,0.00,VWS V14.01,2013-10-28 23:29:00,
2013-10-28 18:30:00,75.3,64.4,29.91,ESE,112,10.0,14.0,69,0.00,,SKC,0.00,VWS V14.01,2013-10-28 23:30:00,
2013-10-28 18:31:00,75.2,64.3,29.91,SSE,163,7.0,14.0,69,0.00,,SKC,0.00,VWS V14.01,2013-10-28 23:31:00,
2013-10-28 18:32:00,74.4,63.6,29.92,SSE,154,5.0,9.0,69,0.00,,SKC,0.00,VWS V14.01,2013-10-28 23:32:00,
2013-10-28 18:33:00,75.2,64.3,29.91,SE,126,5.0,10.0,69,0.00,,SKC,0.00,VWS V14.01,2013-10-28 23:33:00,
2013-10-28 18:34:00,75.2,64.3,29.91,SE,143,4.0,13.0,69,0.00,,SKC,0.00,VWS V14.01,2013-10-28 23:34:00,
2013-10-28 18:35:00,75.1,64.2,29.91,South,170,14.0,14.0,69,0.00,,SKC,0.00,VWS V14.01,2013-10-28 23:35:00,
2013-10-28 18:36:00,75.1,64.2,29.91,SE,144,16.0,19.0,69,0.00,,SKC,0.00,VWS V14.01,2013-10-28 23:36:00,
2013-10-28 18:37:00,74.2,63.8,29.92,SSE,164,7.0,9.0,70,0.00,,SKC,0.00,VWS V14.01,2013-10-28 23:37:00,
2013-10-28 18:38:00,75.1,64.2,29.91,SSE,150,7.0,18.0,69,0.00,,SKC,0.00,VWS V14.01,2013-10-28 23:38:00,
2013-10-28 18:39:00,75.1,64.2,29.91,South,179,11.0,14.0,69,0.00,,SKC,0.00,VWS V14.01,2013-10-28 23:39:00,
2013-10-28 18:40:00,75.1,64.2,29.91,SSE,147,7.0,15.0,69,0.00,,SKC,0.00,VWS V14.01,2013-10-28 23:40:00,
2013-10-28 18:41:00,75.1,64.2,29.91,SSE,163,11.0,15.0,69,0.00,,SKC,0.00,VWS V14.01,2013-10-28 23:41:00,
2013-10-28 18:42:00,74.2,63.8,29.92,SSE,157,7.0,11.0,70,0.00,,SKC,0.00,VWS V14.01,2013-10-28 23:42:00,
2013-10-28 18:43:00,75.0,64.2,29.91,SSE,160,13.0,13.0,69,0.00,,SKC,0.00,VWS V14.01,2013-10-28 23:43:00,
2013-10-28 18:44:00,75.0,64.2,29.91,SE,136,10.0,17.0,69,0.00,,SKC,0.00,VWS V14.01,2013-10-28 23:44:00,
2013-10-28 18:45:00,75.0,64.2,29.91,SSE,149,11.0,17.0,69,0.00,,SKC,0.00,VWS V14.01,2013-10-28 23:45:00,
2013-10-28 18:46:00,75.0,64.2,29.91,South,172,13.0,20.0,69,0.00,,SKC,0.00,VWS V14.01,2013-10-28 23:46:00,
2013-10-28 18:47:00,74.1,63.7,29.92,SSE,154,3.0,6.0,70,0.00,,SKC,0.00,VWS V14.01,2013-10-28 23:47:00,
2013-10-28 18:48:00,74.9,64.1,29.91,SSE,150,8.0,17.0,69,0.00,,SKC,0.00,VWS V14.01,2013-10-28 23:48:00,
2013-10-28 18:49:00,74.9,64.1,29.91,South,179,16.0,16.0,69,0.00,,SKC,0.00,VWS V14.01,2013-10-28 23:49:00,
2013-10-28 18:50:00,74.9,64.1,29.91,South,190,12.0,16.0,69,0.00,,SKC,0.00,VWS V14.01,2013-10-28 23:50:00,
2013-10-28 18:51:00,74.9,64.1,29.91,SSE,159,10.0,18.0,69,0.00,,SKC,0.00,VWS V14.01,2013-10-28 23:51:00,
2013-10-28 18:52:00,74.0,63.6,29.92,SSE,148,2.0,9.0,70,0.00,,SKC,0.00,VWS V14.01,2013-10-28 23:52:00,
2013-10-28 18:53:00,74.9,64.1,29.92,SSE,161,11.0,16.0,69,0.00,,SKC,0.00,VWS V14.01,2013-10-28 23:53:00,
2013-10-28 18:54:00,74.8,64.0,29.91,SE,133,12.0,12.0,69,0.00,,SKC,0.00,VWS V14.01,2013-10-28 23:54:00,
2013-10-28 18:55:00,74.8,64.0,29.91,South,173,7.0,12.0,69,0.00,,SKC,0.00,VWS V14.01,2013-10-28 23:55:00,
2013-10-28 18:56:00,74.8,64.0,29.91,South,169,18.0,18.0,69,0.00,,SKC,0.00,VWS V14.01,2013-10-28 23:56:00,
2013-10-28 18:57:00,73.8,63.8,29.92,SE,138,5.0,7.0,71,0.00,,SKC,0.00,VWS V14.01,2013-10-28 23:57:00,
2013-10-28 18:58:00,74.8,64.0,29.91,SE,143,11.0,12.0,69,0.00,,SKC,0.00,VWS V14.01,2013-10-28 23:58:00,
2013-10-28 18:59:00,74.8,64.0,29.91,South,178,6.0,11.0,69,0.00,,SKC,0.00,VWS V14.01,2013-10-28 23:59:00,
2013-10-28 19:00:00,74.8,64.0,29.91,SSE,165,15.0,15.0,69,0.00,,SKC,0.00,VWS V14.01,2013-10-29 00:00:00,
2013-10-28 19:01:00,74.8,64.0,29.91,SSE,155,6.0,15.0,69,0.00,,SKC,0.00,VWS V14.01,2013-10-29 00:01:00,
2013-10-28 19:02:00,73.7,63.7,29.92,South,173,9.0,10.0,71,0.00,,SKC,0.00,VWS V14.01,2013-10-29 00:02:00,
2013-10-28 19:03:00,74.7,63.9,29.91,SSW,202,11.0,11.0,69,0.00,,SKC,0.00,VWS V14.01,2013-10-29 00:03:00,
2013-10-28 19:04:00,74.7,63.9,29.92,SSE,165,10.0,15.0,69,0.00,,SKC,0.00,VWS V14.01,2013-10-29 00:04:00,
2013-10-28 19:05:00,74.7,63.9,29.91,South,189,8.0,10.0,69,0.00,,SKC,0.00,VWS V14.01,2013-10-29 00:05:00,
2013-10-28 19:06:00,74.7,63.9,29.91,SSE,166,4.0,10.0,69,0.00,,SKC,0.00,VWS V14.01,2013-10-29 00:06:00,
2013-10-28 19:07:00,73.6,63.6,29.92,SSE,152,11.0,14.0,71,0.00,,SKC,0.00,VWS V14.01,2013-10-29 00:07:00,
2013-10-28 19:08:00,74.6,63.8,29.91,South,183,12.0,14.0,69,0.00,,SKC,0.00,VWS V14.01,2013-10-29 00:08:00,
2013-10-28 19:09:00,74.6,63.8,29.91,SE,126,5.0,15.0,69,0.00,,SKC,0.00,VWS V14.01,2013-10-29 00:09:00,
2013-10-28 19:10:00,74.6,63.8,29.91,SSE,168,6.0,16.0,69,0.00,,SKC,0.00,VWS V14.01,2013-10-29 00:10:00,
2013-10-28 19:11:00,74.6,63.8,29.91,South,181,13.0,15.0,69,0.00,,SKC,0.00,VWS V14.01,2013-10-29 00:11:00,
2013-10-28 19:12:00,73.4,63.8,29.92,SE,140,10.0,10.0,72,0.00,,SKC,0.00,VWS V14.01,2013-10-29 00:12:00,
2013-10-28 19:13:00,74.6,63.8,29.91,SSE,161,12.0,19.0,69,0.00,,SKC,0.00,VWS V14.01,2013-10-29 00:13:00,
2013-10-28 19:14:00,74.6,63.8,29.91,South,172,12.0,16.0,69,0.00,,SKC,0.00,VWS V14.01,2013-10-29 00:14:00,
2013-10-28 19:15:00,74.6,63.8,29.91,SSE,163,8.0,13.0,69,0.00,,SKC,0.00,VWS V14.01,2013-10-29 00:15:00,
2013-10-28 19:16:00,74.6,63.8,29.91,SSE,157,7.0,14.0,69,0.00,,SKC,0.00,VWS V14.01,2013-10-29 00:16:00,
2013-10-28 19:17:00,73.3,63.7,29.92,SSE,159,6.0,12.0,72,0.00,,SKC,0.00,VWS V14.01,2013-10-29 00:17:00,
2013-10-28 19:18:00,74.6,63.8,29.91,SE,140,8.0,11.0,69,0.00,,SKC,0.00,VWS V14.01,2013-10-29 00:18:00,
2013-10-28 19:19:00,74.6,63.8,29.91,South,169,7.0,15.0,69,0.00,,SKC,0.00,VWS V14.01,2013-10-29 00:19:00,
2013-10-28 19:20:00,74.5,63.7,29.91,SSW,199,13.0,13.0,69,0.00,,SKC,0.00,VWS V14.01,2013-10-29 00:20:00,
2013-10-28 19:21:00,74.5,63.7,29.92,SSW,199,17.0,17.0,69,0.00,,SKC,0.00,VWS V14.01,2013-10-29 00:21:00,
2013-10-28 19:22:00,73.1,63.5,29.92,SE,135,7.0,11.0,72,0.00,,SKC,0.00,VWS V14.01,2013-10-29 00:22:00,
2013-10-28 19:23:00,74.5,63.7,29.91,South,169,9.0,18.0,69,0.00,,SKC,0.00,VWS V14.01,2013-10-29 00:23:00,
2013-10-28 19:24:00,74.5,63.7,29.91,South,175,6.0,13.0,69,0.00,,SKC,0.00,VWS V14.01,2013-10-29 00:24:00,
2013-10-28 19:25:00,74.5,63.7,29.92,SE,134,9.0,11.0,69,0.00,,SKC,0.00,VWS V14.01,2013-10-29 00:25:00,
2013-10-28 19:26:00,74.5,63.7,29.92,South,176,6.0,11.0,69,0.00,,SKC,0.00,VWS V14.01,2013-10-29 00:26:00,
2013-10-28 19:27:00,72.9,63.8,29.92,SE,137,10.0,10.0,73,0.00,,SKC,0.00,VWS V14.01,2013-10-29 00:27:00,
2013-10-28 19:28:00,74.4,63.6,29.92,SSE,155,9.0,11.0,69,0.00,,SKC,0.00,VWS V14.01,2013-10-29 00:28:00,
2013-10-28 19:29:00,74.4,63.6,29.92,South,171,9.0,10.0,69,0.00,,SKC,0.00,VWS V14.01,2013-10-29 00:29:00,
2013-10-28 19:30:00,74.4,63.6,29.92,SSE,163,7.0,9.0,69,0.00,,SKC,0.00,VWS V14.01,2013-10-29 00:30:00,
2013-10-28 19:31:00,74.4,64.0,29.92,South,191,11.0,11.0,70,0.00,,SKC,0.00,VWS V14.01,2013-10-29 00:31:00,
2013-10-28 19:32:00,72.7,63.9,29.92,SSE,153,8.0,10.0,74,0.00,,SKC,0.00,VWS V14.01,2013-10-29 00:32:00,
2013-10-28 19:33:00,74.3,63.9,29.92,SSE,163,9.0,11.0,70,0.00,,SKC,0.00,VWS V14.01,2013-10-29 00:33:00,
2013-10-28 19:34:00,74.3,63.9,29.92,SSE,161,7.0,10.0,70,0.00,,SKC,0.00,VWS V14.01,2013-10-29 00:34:00,
2013-10-28 19:35:00,74.2,63.8,29.92,SSE,165,6.0,9.0,70,0.00,,SKC,0.00,VWS V14.01,2013-10-29 00:35:00,
2013-10-28 19:36:00,74.2,63.8,29.92,SE,144,10.0,11.0,70,0.00,,SKC,0.00,VWS V14.01,2013-10-29 00:36:00,
2013-10-28 19:37:00,72.6,63.8,29.92,SE,141,7.0,14.0,74,0.00,,SKC,0.00,VWS V14.01,2013-10-29 00:37:00,
2013-10-28 19:38:00,74.2,63.8,29.92,SSE,167,10.0,12.0,70,0.00,,SKC,0.00,VWS V14.01,2013-10-29 00:38:00,
2013-10-28 19:39:00,74.2,63.8,29.92,SSE,163,7.0,14.0,70,0.00,,SKC,0.00,VWS V14.01,2013-10-29 00:39:00,
2013-10-28 19:40:00,74.2,63.8,29.92,SSE,165,7.0,11.0,70,0.00,,SKC,0.00,VWS V14.01,2013-10-29 00:40:00,
2013-10-28 19:41:00,74.2,63.8,29.92,South,171,8.0,8.0,70,0.00,,SKC,0.00,VWS V14.01,2013-10-29 00:41:00,
2013-10-28 19:42:00,72.6,63.8,29.92,SSE,149,4.0,11.0,74,0.00,,SKC,0.00,VWS V14.01,2013-10-29 00:42:00,
2013-10-28 19:43:00,74.1,63.7,29.92,SE,146,6.0,9.0,70,0.00,,SKC,0.00,VWS V14.01,2013-10-29 00:43:00,
2013-10-28 19:44:00,74.1,63.7,29.92,SSE,159,6.0,10.0,70,0.00,,SKC,0.00,VWS V14.01,2013-10-29 00:44:00,
2013-10-28 19:45:00,74.1,63.7,29.92,SE,142,4.0,6.0,70,0.00,,SKC,0.00,VWS V14.01,2013-10-29 00:45:00,
2013-10-28 19:46:00,74.1,64.1,29.92,SE,142,13.0,13.0,71,0.00,,SKC,0.00,VWS V14.01,2013-10-29 00:46:00,
2013-10-28 19:47:00,72.5,64.1,29.93,SE,139,8.0,10.0,75,0.00,,SKC,0.00,VWS V14.01,2013-10-29 00:47:00,
2013-10-28 19:48:00,74.0,63.6,29.92,SSE,161,4.0,10.0,70,0.00,,SKC,0.00,VWS V14.01,2013-10-29 00:48:00,
2013-10-28 19:49:00,74.0,63.6,29.92,South,182,7.0,11.0,70,0.00,,SKC,0.00,VWS V14.01,2013-10-29 00:49:00,
2013-10-28 19:50:00,74.0,63.6,29.92,SE,136,4.0,9.0,70,0.00,,SKC,0.00,VWS V14.01,2013-10-29 00:50:00,
2013-10-28 19:51:00,74.0,64.0,29.92,SSE,165,5.0,7.0,71,0.00,,SKC,0.00,VWS V14.01,2013-10-29 00:51:00,
2013-10-28 19:52:00,72.3,63.9,29.92,ESE,107,6.0,10.0,75,0.00,,SKC,0.00,VWS V14.01,2013-10-29 00:52:00,
2013-10-28 19:53:00,73.9,63.9,29.92,South,172,4.0,10.0,71,0.00,,SKC,0.00,VWS V14.01,2013-10-29 00:53:00,
2013-10-28 19:54:00,73.9,63.9,29.92,South,172,4.0,7.0,71,0.00,,SKC,0.00,VWS V14.01,2013-10-29 00:54:00,
2013-10-28 19:55:00,73.8,63.8,29.92,SE,145,6.0,7.0,71,0.00,,SKC,0.00,VWS V14.01,2013-10-29 00:55:00,
2013-10-28 19:56:00,73.8,63.8,29.92,SE,146,6.0,11.0,71,0.00,,SKC,0.00,VWS V14.01,2013-10-29 00:56:00,
2013-10-28 19:57:00,72.2,63.8,29.93,SE,146,4.0,7.0,75,0.00,,SKC,0.00,VWS V14.01,2013-10-29 00:57:00,
2013-10-28 19:58:00,73.7,63.7,29.92,SSE,168,11.0,11.0,71,0.00,,SKC,0.00,VWS V14.01,2013-10-29 00:58:00,
2013-10-28 19:59:00,73.7,63.7,29.92,SSE,160,5.0,13.0,71,0.00,,SKC,0.00,VWS V14.01,2013-10-29 00:59:00,
2013-10-28 20:00:00,73.7,63.7,29.92,South,169,8.0,10.0,71,0.00,,SKC,0.00,VWS V14.01,2013-10-29 01:00:00,
2013-10-28 20:01:00,73.7,63.7,29.92,South,175,4.0,8.0,71,0.00,,SKC,0.00,VWS V14.01,2013-10-29 01:01:00,
2013-10-28 20:02:00,72.1,64.1,29.93,SE,137,9.0,9.0,76,0.00,,SKC,0.00,VWS V14.01,2013-10-29 01:02:00,
2013-10-28 20:03:00,73.7,63.7,29.92,SE,139,6.0,9.0,71,0.00,,SKC,0.00,VWS V14.01,2013-10-29 01:03:00,
2013-10-28 20:04:00,73.6,63.6,29.92,SE,140,14.0,14.0,71,0.00,,SKC,0.00,VWS V14.01,2013-10-29 01:04:00,
2013-10-28 20:05:00,73.6,63.6,29.92,SSE,152,11.0,14.0,71,0.00,,SKC,0.00,VWS V14.01,2013-10-29 01:05:00,
2013-10-28 20:06:00,73.5,63.5,29.92,SSE,149,3.0,11.0,71,0.00,,SKC,0.00,VWS V14.01,2013-10-29 01:06:00,
2013-10-28 20:07:00,72.0,64.0,29.93,SSE,153,5.0,13.0,76,0.00,,SKC,0.00,VWS V14.01,2013-10-29 01:07:00,
2013-10-28 20:08:00,73.5,63.5,29.92,SE,128,5.0,9.0,71,0.00,,SKC,0.00,VWS V14.01,2013-10-29 01:08:00,
2013-10-28 20:09:00,73.5,63.5,29.92,SSE,147,4.0,6.0,71,0.00,,SKC,0.00,VWS V14.01,2013-10-29 01:09:00,
2013-10-28 20:10:00,73.4,63.8,29.92,SE,140,10.0,10.0,72,0.00,,SKC,0.00,VWS V14.01,2013-10-29 01:10:00,
2013-10-28 20:11:00,73.4,63.8,29.92,SSE,155,7.0,11.0,72,0.00,,SKC,0.00,VWS V14.01,2013-10-29 01:11:00,
2013-10-28 20:12:00,71.9,64.3,29.93,SE,137,6.0,9.0,77,0.00,,SKC,0.00,VWS V14.01,2013-10-29 01:12:00,
2013-10-28 20:13:00,73.4,63.8,29.92,SSE,160,5.0,12.0,72,0.00,,SKC,0.00,VWS V14.01,2013-10-29 01:13:00,
2013-10-28 20:14:00,73.3,63.7,29.92,SE,134,5.0,12.0,72,0.00,,SKC,0.00,VWS V14.01,2013-10-29 01:14:00,
2013-10-28 20:15:00,73.3,63.7,29.92,SSE,159,6.0,12.0,72,0.00,,SKC,0.00,VWS V14.01,2013-10-29 01:15:00,
2013-10-28 20:16:00,73.3,63.7,29.92,SE,145,5.0,9.0,72,0.00,,SKC,0.00,VWS V14.01,2013-10-29 01:16:00,
2013-10-28 20:17:00,71.8,64.2,29.93,SE,135,6.0,9.0,77,0.00,,SKC,0.00,VWS V14.01,2013-10-29 01:17:00,
2013-10-28 20:18:00,73.2,63.6,29.92,South,175,6.0,6.0,72,0.00,,SKC,0.00,VWS V14.01,2013-10-29 01:18:00,
2013-10-28 20:19:00,73.2,63.6,29.92,SE,129,5.0,10.0,72,0.00,,SKC,0.00,VWS V14.01,2013-10-29 01:19:00,
2013-10-28 20:20:00,73.1,63.5,29.92,SE,134,5.0,11.0,72,0.00,,SKC,0.00,VWS V14.01,2013-10-29 01:20:00,
2013-10-28 20:21:00,73.1,63.5,29.92,SE,144,4.0,5.0,72,0.00,,SKC,0.00,VWS V14.01,2013-10-29 01:21:00,
2013-10-28 20:22:00,71.7,64.1,29.93,SE,140,7.0,10.0,77,0.00,,SKC,0.00,VWS V14.01,2013-10-29 01:22:00,
2013-10-28 20:23:00,73.0,63.5,29.92,SE,146,8.0,8.0,72,0.00,,SKC,0.00,VWS V14.01,2013-10-29 01:23:00,
2013-10-28 20:24:00,72.9,63.8,29.92,South,169,8.0,11.0,73,0.00,,SKC,0.00,VWS V14.01,2013-10-29 01:24:00,
2013-10-28 20:25:00,72.9,63.8,29.92,SE,141,11.0,11.0,73,0.00,,SKC,0.00,VWS V14.01,2013-10-29 01:25:00,
2013-10-28 20:26:00,72.8,63.7,29.92,SE,130,7.0,14.0,73,0.00,,SKC,0.00,VWS V14.01,2013-10-29 01:26:00,
2013-10-28 20:27:00,71.6,64.0,29.93,SSE,159,6.0,11.0,77,0.00,,SKC,0.00,VWS V14.01,2013-10-29 01:27:00,
2013-10-28 20:28:00,72.8,63.7,29.92,SE,134,7.0,7.0,73,0.00,,SKC,0.00,VWS V14.01,2013-10-29 01:28:00,
2013-10-28 20:29:00,72.7,63.9,29.92,SSE,157,7.0,12.0,74,0.00,,SKC,0.00,VWS V14.01,2013-10-29 01:29:00,
2013-10-28 20:30:00,72.7,63.9,29.92,South,171,6.0,10.0,74,0.00,,SKC,0.00,VWS V14.01,2013-10-29 01:30:00,
2013-10-28 20:31:00,72.7,63.9,29.92,SE,140,7.0,8.0,74,0.00,,SKC,0.00,VWS V14.01,2013-10-29 01:31:00,
2013-10-28 20:32:00,71.6,64.4,29.94,SSE,150,5.0,11.0,78,0.00,,SKC,0.00,VWS V14.01,2013-10-29 01:32:00,
2013-10-28 20:33:00,72.6,63.8,29.92,SE,136,10.0,10.0,74,0.00,,SKC,0.00,VWS V14.01,2013-10-29 01:33:00,
2013-10-28 20:34:00,72.6,63.8,29.92,SSE,157,14.0,14.0,74,0.00,,SKC,0.00,VWS V14.01,2013-10-29 01:34:00,
2013-10-28 20:35:00,72.6,63.8,29.92,SE,138,10.0,14.0,74,0.00,,SKC,0.00,VWS V14.01,2013-10-29 01:35:00,
2013-10-28 20:36:00,72.6,63.8,29.92,SSE,148,10.0,13.0,74,0.00,,SKC,0.00,VWS V14.01,2013-10-29 01:36:00,
2013-10-28 20:37:00,71.7,64.1,29.94,SSE,157,11.0,15.0,77,0.00,,SKC,0.00,VWS V14.01,2013-10-29 01:37:00,
2013-10-28 20:38:00,72.6,63.8,29.93,ESE,117,4.0,11.0,74,0.00,,SKC,0.00,VWS V14.01,2013-10-29 01:38:00,
2013-10-28 20:39:00,72.6,63.8,29.92,SSE,167,11.0,12.0,74,0.00,,SKC,0.00,VWS V14.01,2013-10-29 01:39:00,
2013-10-28 20:40:00,72.6,63.8,29.92,SSE,150,3.0,11.0,74,0.00,,SKC,0.00,VWS V14.01,2013-10-29 01:40:00,
2013-10-28 20:41:00,72.5,63.8,29.93,ESE,123,6.0,10.0,74,0.00,,SKC,0.00,VWS V14.01,2013-10-29 01:41:00,
2013-10-28 20:42:00,71.7,64.1,29.94,SSE,167,5.0,11.0,77,0.00,,SKC,0.00,VWS V14.01,2013-10-29 01:42:00,
2013-10-28 20:43:00,72.5,64.1,29.93,SE,140,7.0,10.0,75,0.00,,SKC,0.00,VWS V14.01,2013-10-29 01:43:00,
2013-10-28 20:44:00,72.5,64.1,29.93,SE,143,4.0,7.0,75,0.00,,SKC,0.00,VWS V14.01,2013-10-29 01:44:00,
2013-10-28 20:45:00,72.5,64.1,29.93,SE,138,7.0,10.0,75,0.00,,SKC,0.00,VWS V14.01,2013-10-29 01:45:00,
2013-10-28 20:46:00,72.4,64.0,29.93,SE,124,6.0,12.0,75,0.00,,SKC,0.00,VWS V14.01,2013-10-29 01:46:00,
2013-10-28 20:47:00,71.7,64.5,29.94,SSE,157,10.0,10.0,78,0.00,,SKC,0.00,VWS V14.01,2013-10-29 01:47:00,
2013-10-28 20:48:00,72.4,64.0,29.93,SSE,147,5.0,11.0,75,0.00,,SKC,0.00,VWS V14.01,2013-10-29 01:48:00,
2013-10-28 20:49:00,72.4,64.0,29.92,SE,136,6.0,11.0,75,0.00,,SKC,0.00,VWS V14.01,2013-10-29 01:49:00,
2013-10-28 20:50:00,72.3,63.9,29.92,SE,132,3.0,10.0,75,0.00,,SKC,0.00,VWS V14.01,2013-10-29 01:50:00,
2013-10-28 20:51:00,72.3,63.9,29.92,SSE,159,5.0,11.0,75,0.00,,SKC,0.00,VWS V14.01,2013-10-29 01:51:00,
2013-10-28 20:52:00,71.6,64.0,29.95,SSE,156,9.0,12.0,77,0.00,,SKC,0.00,VWS V14.01,2013-10-29 01:52:00,
2013-10-28 20:53:00,72.3,63.9,29.92,SSE,161,4.0,12.0,75,0.00,,SKC,0.00,VWS V14.01,2013-10-29 01:53:00,
2013-10-28 20:54:00,72.2,63.8,29.92,SSE,155,6.0,10.0,75,0.00,,SKC,0.00,VWS V14.01,2013-10-29 01:54:00,
2013-10-28 20:55:00,72.2,63.8,29.93,SSE,150,7.0,7.0,75,0.00,,SKC,0.00,VWS V14.01,2013-10-29 01:55:00,
2013-10-28 20:56:00,72.2,63.8,29.93,SE,138,5.0,11.0,75,0.00,,SKC,0.00,VWS V14.01,2013-10-29 01:56:00,
2013-10-28 20:57:00,71.5,64.3,29.95,SE,143,6.0,11.0,78,0.00,,SKC,0.00,VWS V14.01,2013-10-29 01:57:00,
2013-10-28 20:58:00,72.1,64.1,29.93,ESE,123,6.0,10.0,76,0.00,,SKC,0.00,VWS V14.01,2013-10-29 01:58:00,
2013-10-28 20:59:00,72.1,64.1,29.93,SE,134,6.0,9.0,76,0.00,,SKC,0.00,VWS V14.01,2013-10-29 01:59:00,
2013-10-28 21:00:00,72.1,64.1,29.93,SSE,149,8.0,9.0,76,0.00,,SKC,0.00,VWS V14.01,2013-10-29 02:00:00,
2013-10-28 21:01:00,72.0,64.0,29.93,SE,144,5.0,13.0,76,0.00,,SKC,0.00,VWS V14.01,2013-10-29 02:01:00,
2013-10-28 21:02:00,71.3,64.1,29.95,South,173,11.0,13.0,78,0.00,,SKC,0.00,VWS V14.01,2013-10-29 02:02:00,
2013-10-28 21:03:00,72.0,64.0,29.93,SSE,161,6.0,10.0,76,0.00,,SKC,0.00,VWS V14.01,2013-10-29 02:03:00,
2013-10-28 21:04:00,72.0,64.0,29.93,SSE,150,5.0,10.0,76,0.00,,SKC,0.00,VWS V14.01,2013-10-29 02:04:00,
2013-10-28 21:05:00,71.9,63.9,29.93,SE,128,7.0,13.0,76,0.00,,SKC,0.00,VWS V14.01,2013-10-29 02:05:00,
2013-10-28 21:06:00,72.0,64.0,29.93,SSE,160,9.0,10.0,76,0.00,,SKC,0.00,VWS V14.01,2013-10-29 02:06:00,
2013-10-28 21:07:00,71.3,64.1,29.95,SSE,151,3.0,10.0,78,0.00,,SKC,0.00,VWS V14.01,2013-10-29 02:07:00,
2013-10-28 21:08:00,71.9,64.3,29.93,SE,146,8.0,10.0,77,0.00,,SKC,0.00,VWS V14.01,2013-10-29 02:08:00,
2013-10-28 21:09:00,71.9,64.3,29.93,SSE,152,5.0,11.0,77,0.00,,SKC,0.00,VWS V14.01,2013-10-29 02:09:00,
2013-10-28 21:10:00,71.9,64.3,29.93,SE,138,6.0,9.0,77,0.00,,SKC,0.00,VWS V14.01,2013-10-29 02:10:00,
2013-10-28 21:11:00,71.9,64.3,29.93,SE,146,6.0,9.0,77,0.00,,SKC,0.00,VWS V14.01,2013-10-29 02:11:00,
2013-10-28 21:12:00,71.3,64.5,29.95,SSE,157,12.0,12.0,79,0.00,,SKC,0.00,VWS V14.01,2013-10-29 02:12:00,
2013-10-28 21:13:00,71.8,64.2,29.93,SE,128,6.0,12.0,77,0.00,,SKC,0.00,VWS V14.01,2013-10-29 02:13:00,
2013-10-28 21:14:00,71.8,64.2,29.93,SSE,167,9.0,11.0,77,0.00,,SKC,0.00,VWS V14.01,2013-10-29 02:14:00,
2013-10-28 21:15:00,71.8,64.2,29.93,SE,128,8.0,9.0,77,0.00,,SKC,0.00,VWS V14.01,2013-10-29 02:15:00,
2013-10-28 21:16:00,71.8,64.2,29.93,SSE,163,6.0,8.0,77,0.00,,SKC,0.00,VWS V14.01,2013-10-29 02:16:00,
2013-10-28 21:17:00,71.2,64.4,29.95,SSE,167,10.0,12.0,79,0.00,,SKC,0.00,VWS V14.01,2013-10-29 02:17:00,
2013-10-28 21:18:00,71.7,64.1,29.93,SSE,157,4.0,10.0,77,0.00,,SKC,0.00,VWS V14.01,2013-10-29 02:18:00,
2013-10-28 21:19:00,71.7,64.1,29.93,SSE,161,7.0,10.0,77,0.00,,SKC,0.00,VWS V14.01,2013-10-29 02:19:00,
2013-10-28 21:20:00,71.7,64.1,29.93,SE,146,6.0,10.0,77,0.00,,SKC,0.00,VWS V14.01,2013-10-29 02:20:00,
2013-10-28 21:21:00,71.7,64.1,29.93,SE,146,4.0,9.0,77,0.00,,SKC,0.00,VWS V14.01,2013-10-29 02:21:00,
2013-10-28 21:22:00,71.1,64.3,29.96,SE,146,10.0,13.0,79,0.00,,SKC,0.00,VWS V14.01,2013-10-29 02:22:00,
2013-10-28 21:23:00,71.6,64.0,29.93,East,95,3.0,7.0,77,0.00,,SKC,0.00,VWS V14.01,2013-10-29 02:23:00,
2013-10-28 21:24:00,71.6,64.0,29.93,SE,133,3.0,11.0,77,0.00,,SKC,0.00,VWS V14.01,2013-10-29 02:24:00,
2013-10-28 21:25:00,71.6,64.0,29.93,SE,134,8.0,11.0,77,0.00,,SKC,0.00,VWS V14.01,2013-10-29 02:25:00,
2013-10-28 21:26:00,71.6,64.0,29.93,SSE,155,5.0,9.0,77,0.00,,SKC,0.00,VWS V14.01,2013-10-29 02:26:00,
2013-10-28 21:27:00,71.0,64.2,29.96,SSE,154,13.0,14.0,79,0.00,,SKC,0.00,VWS V14.01,2013-10-29 02:27:00,
2013-10-28 21:28:00,71.5,64.3,29.93,SE,137,8.0,12.0,78,0.00,,SKC,0.00,VWS V14.01,2013-10-29 02:28:00,
2013-10-28 21:29:00,71.6,64.4,29.93,SE,134,11.0,14.0,78,0.00,,SKC,0.00,VWS V14.01,2013-10-29 02:29:00,
2013-10-28 21:30:00,71.6,64.4,29.94,South,178,5.0,11.0,78,0.00,,SKC,0.00,VWS V14.01,2013-10-29 02:30:00,
2013-10-28 21:31:00,71.6,64.4,29.94,SE,126,7.0,13.0,78,0.00,,SKC,0.00,VWS V14.01,2013-10-29 02:31:00,
2013-10-28 21:32:00,70.8,64.0,29.96,SSE,160,6.0,7.0,79,0.00,,SKC,0.00,VWS V14.01,2013-10-29 02:32:00,
2013-10-28 21:33:00,71.7,64.1,29.94,SE,130,6.0,12.0,77,0.00,,SKC,0.00,VWS V14.01,2013-10-29 02:33:00,
2013-10-28 21:34:00,71.7,64.1,29.94,SE,137,9.0,11.0,77,0.00,,SKC,0.00,VWS V14.01,2013-10-29 02:34:00,
2013-10-28 21:35:00,71.7,64.1,29.94,SSE,157,11.0,15.0,77,0.00,,SKC,0.00,VWS V14.01,2013-10-29 02:35:00,
2013-10-28 21:36:00,71.7,64.5,29.94,ESE,121,6.0,11.0,78,0.00,,SKC,0.00,VWS V14.01,2013-10-29 02:36:00,
2013-10-28 21:37:00,70.6,64.1,29.95,SE,144,10.0,11.0,80,0.00,,SKC,0.00,VWS V14.01,2013-10-29 02:37:00,
2013-10-28 21:38:00,71.7,64.1,29.94,South,171,9.0,12.0,77,0.00,,SKC,0.00,VWS V14.01,2013-10-29 02:38:00,
2013-10-28 21:39:00,71.7,64.1,29.94,South,169,7.0,11.0,77,0.00,,SKC,0.00,VWS V14.01,2013-10-29 02:39:00,
2013-10-28 21:40:00,71.7,64.1,29.94,SSE,168,6.0,11.0,77,0.00,,SKC,0.00,VWS V14.01,2013-10-29 02:40:00,
2013-10-28 21:41:00,71.7,64.1,29.94,SSE,168,10.0,13.0,77,0.00,,SKC,0.00,VWS V14.01,2013-10-29 02:41:00,
2013-10-28 21:42:00,70.6,64.1,29.95,SE,146,13.0,13.0,80,0.00,,SKC,0.00,VWS V14.01,2013-10-29 02:42:00,
2013-10-28 21:43:00,71.7,64.1,29.94,SE,135,4.0,12.0,77,0.00,,SKC,0.00,VWS V14.01,2013-10-29 02:43:00,
2013-10-28 21:44:00,71.7,64.5,29.94,SSE,159,7.0,12.0,78,0.00,,SKC,0.00,VWS V14.01,2013-10-29 02:44:00,
2013-10-28 21:45:00,71.7,64.5,29.94,SSE,157,10.0,10.0,78,0.00,,SKC,0.00,VWS V14.01,2013-10-29 02:45:00,
2013-10-28 21:46:00,71.7,64.1,29.95,SSE,157,6.0,11.0,77,0.00,,SKC,0.00,VWS V14.01,2013-10-29 02:46:00,
2013-10-28 21:47:00,70.4,63.9,29.95,SSE,148,9.0,12.0,80,0.00,,SKC,0.00,VWS V14.01,2013-10-29 02:47:00,
2013-10-28 21:48:00,71.7,64.1,29.95,SSE,156,6.0,12.0,77,0.00,,SKC,0.00,VWS V14.01,2013-10-29 02:48:00,
2013-10-28 21:49:00,71.7,64.1,29.95,SSE,153,8.0,10.0,77,0.00,,SKC,0.00,VWS V14.01,2013-10-29 02:49:00,
2013-10-28 21:50:00,71.6,64.0,29.95,SSE,156,9.0,12.0,77,0.00,,SKC,0.00,VWS V14.01,2013-10-29 02:50:00,
2013-10-28 21:51:00,71.6,64.0,29.95,SSE,159,10.0,12.0,77,0.00,,SKC,0.00,VWS V14.01,2013-10-29 02:51:00,
2013-10-28 21:52:00,70.2,63.8,29.95,SSE,159,5.0,6.0,80,0.00,,SKC,0.00,VWS V14.01,2013-10-29 02:52:00,
2013-10-28 21:53:00,71.5,64.3,29.95,SE,141,14.0,16.0,78,0.00,,SKC,0.00,VWS V14.01,2013-10-29 02:53:00,
2013-10-28 21:54:00,71.5,64.3,29.95,SSE,163,7.0,14.0,78,0.00,,SKC,0.00,VWS V14.01,2013-10-29 02:54:00,
2013-10-28 21:55:00,71.5,64.3,29.95,SE,143,6.0,11.0,78,0.00,,SKC,0.00,VWS V14.01,2013-10-29 02:55:00,
2013-10-28 21:56:00,71.5,64.3,29.95,SSE,148,10.0,10.0,78,0.00,,SKC,0.00,VWS V14.01,2013-10-29 02:56:00,
2013-10-28 21:57:00,70.2,63.4,29.95,South,170,5.0,6.0,79,0.00,,SKC,0.00,VWS V14.01,2013-10-29 02:57:00,
2013-10-28 21:58:00,71.4,64.2,29.95,SSW,193,8.0,11.0,78,0.00,,SKC,0.00,VWS V14.01,2013-10-29 02:58:00,
2013-10-28 21:59:00,71.3,64.1,29.95,SSE,163,7.0,8.0,78,0.00,,SKC,0.00,VWS V14.01,2013-10-29 02:59:00,
2013-10-28 22:00:00,71.3,64.1,29.95,South,173,11.0,13.0,78,0.00,,SKC,0.00,VWS V14.01,2013-10-29 03:00:00,
2013-10-28 22:01:00,71.3,64.1,29.95,SSE,163,8.0,14.0,78,0.00,,SKC,0.00,VWS V14.01,2013-10-29 03:01:00,
2013-10-28 22:02:00,70.0,63.5,29.95,SSE,150,7.0,13.0,80,0.00,,SKC,0.00,VWS V14.01,2013-10-29 03:02:00,
2013-10-28 22:03:00,71.3,64.1,29.95,SSE,166,14.0,16.0,78,0.00,,SKC,0.00,VWS V14.01,2013-10-29 03:03:00,
2013-10-28 22:04:00,71.3,64.1,29.95,SSE,161,8.0,14.0,78,0.00,,SKC,0.00,VWS V14.01,2013-10-29 03:04:00,
2013-10-28 22:05:00,71.3,64.1,29.95,SSE,151,3.0,10.0,78,0.00,,SKC,0.00,VWS V14.01,2013-10-29 03:05:00,
2013-10-28 22:06:00,71.3,64.1,29.95,SE,128,7.0,10.0,78,0.00,,SKC,0.00,VWS V14.01,2013-10-29 03:06:00,
2013-10-28 22:07:00,69.8,63.4,29.95,SSE,155,12.0,13.0,80,0.00,,SKC,0.00,VWS V14.01,2013-10-29 03:07:00,
2013-10-28 22:08:00,71.3,64.1,29.95,SSE,159,9.0,11.0,78,0.00,,SKC,0.00,VWS V14.01,2013-10-29 03:08:00,
2013-10-28 22:09:00,71.3,64.1,29.95,SE,129,7.0,12.0,78,0.00,,SKC,0.00,VWS V14.01,2013-10-29 03:09:00,
2013-10-28 22:10:00,71.3,64.5,29.95,SSE,157,12.0,12.0,79,0.00,,SKC,0.00,VWS V14.01,2013-10-29 03:10:00,
2013-10-28 22:11:00,71.3,64.5,29.95,SE,142,7.0,13.0,79,0.00,,SKC,0.00,VWS V14.01,2013-10-29 03:11:00,
2013-10-28 22:12:00,69.7,63.3,29.96,SE,141,9.0,12.0,80,0.00,,SKC,0.00,VWS V14.01,2013-10-29 03:12:00,
2013-10-28 22:13:00,71.2,64.4,29.95,SE,130,8.0,10.0,79,0.00,,SKC,0.00,VWS V14.01,2013-10-29 03:13:00,
2013-10-28 22:14:00,71.2,64.4,29.95,SSE,149,6.0,14.0,79,0.00,,SKC,0.00,VWS V14.01,2013-10-29 03:14:00,
2013-10-28 22:15:00,71.2,64.4,29.95,SSE,167,10.0,12.0,79,0.00,,SKC,0.00,VWS V14.01,2013-10-29 03:15:00,
2013-10-28 22:16:00,71.2,64.4,29.95,SE,142,7.0,11.0,79,0.00,,SKC,0.00,VWS V14.01,2013-10-29 03:16:00,
2013-10-28 22:17:00,69.7,62.9,29.95,South,175,11.0,11.0,79,0.00,,SKC,0.00,VWS V14.01,2013-10-29 03:17:00,
2013-10-28 22:18:00,71.1,64.3,29.95,SSE,160,5.0,12.0,79,0.00,,SKC,0.00,VWS V14.01,2013-10-29 03:18:00,
2013-10-28 22:19:00,71.1,64.3,29.96,SE,136,5.0,9.0,79,0.00,,SKC,0.00,VWS V14.01,2013-10-29 03:19:00,
2013-10-28 22:20:00,71.1,64.3,29.96,SE,146,10.0,13.0,79,0.00,,SKC,0.00,VWS V14.01,2013-10-29 03:20:00,
2013-10-28 22:21:00,71.0,64.2,29.96,South,186,15.0,15.0,79,0.00,,SKC,0.00,VWS V14.01,2013-10-29 03:21:00,
2013-10-28 22:22:00,69.5,62.7,29.96,SSE,150,9.0,9.0,79,0.00,,SKC,0.00,VWS V14.01,2013-10-29 03:22:00,
2013-10-28 22:23:00,71.0,64.2,29.96,SSE,150,5.0,13.0,79,0.00,,SKC,0.00,VWS V14.01,2013-10-29 03:23:00,
2013-10-28 22:24:00,71.0,64.2,29.96,SSE,155,10.0,14.0,79,0.00,,SKC,0.00,VWS V14.01,2013-10-29 03:24:00,
2013-10-28 22:25:00,71.0,64.2,29.96,SSE,154,13.0,14.0,79,0.00,,SKC,0.00,VWS V14.01,2013-10-29 03:25:00,
2013-10-28 22:26:00,70.9,64.1,29.96,SSE,153,7.0,13.0,79,0.00,,SKC,0.00,VWS V14.01,2013-10-29 03:26:00,
2013-10-28 22:27:00,69.4,62.6,29.96,SSE,156,7.0,7.0,79,0.00,,SKC,0.00,VWS V14.01,2013-10-29 03:27:00,
2013-10-28 22:28:00,70.9,64.1,29.95,SSE,159,12.0,12.0,79,0.00,,SKC,0.00,VWS V14.01,2013-10-29 03:28:00,
2013-10-28 22:29:00,70.8,64.0,29.95,SSE,152,15.0,15.0,79,0.00,,SKC,0.00,VWS V14.01,2013-10-29 03:29:00,
2013-10-28 22:30:00,70.8,64.0,29.95,SSE,157,7.0,15.0,79,0.00,,SKC,0.00,VWS V14.01,2013-10-29 03:30:00,
2013-10-28 22:31:00,70.7,63.9,29.96,SE,144,13.0,16.0,79,0.00,,SKC,0.00,VWS V14.01,2013-10-29 03:31:00,
2013-10-28 22:32:00,69.4,62.2,29.96,SSE,149,6.0,6.0,78,0.00,,SKC,0.00,VWS V14.01,2013-10-29 03:32:00,
2013-10-28 22:33:00,70.7,64.2,29.95,South,176,10.0,15.0,80,0.00,,SKC,0.00,VWS V14.01,2013-10-29 03:33:00,
2013-10-28 22:34:00,70.7,64.2,29.95,SE,146,4.0,14.0,80,0.00,,SKC,0.00,VWS V14.01,2013-10-29 03:34:00,
2013-10-28 22:35:00,70.6,64.1,29.95,SE,144,10.0,11.0,80,0.00,,SKC,0.00,VWS V14.01,2013-10-29 03:35:00,
2013-10-28 22:36:00,70.6,64.1,29.95,SSE,154,14.0,15.0,80,0.00,,SKC,0.00,VWS V14.01,2013-10-29 03:36:00,
2013-10-28 22:37:00,69.3,62.2,29.96,SE,136,10.0,10.0,78,0.00,,SKC,0.00,VWS V14.01,2013-10-29 03:37:00,
2013-10-28 22:38:00,70.6,64.1,29.95,South,180,7.0,16.0,80,0.00,,SKC,0.00,VWS V14.01,2013-10-29 03:38:00,
2013-10-28 22:39:00,70.6,64.1,29.95,SSE,157,5.0,12.0,80,0.00,,SKC,0.00,VWS V14.01,2013-10-29 03:39:00,
2013-10-28 22:40:00,70.6,64.1,29.95,SE,146,13.0,13.0,80,0.00,,SKC,0.00,VWS V14.01,2013-10-29 03:40:00,
2013-10-28 22:41:00,70.6,64.1,29.95,SE,136,10.0,15.0,80,0.00,,SKC,0.00,VWS V14.01,2013-10-29 03:41:00,
2013-10-28 22:42:00,69.2,62.1,29.97,SSE,157,5.0,13.0,78,0.00,,SKC,0.00,VWS V14.01,2013-10-29 03:42:00,
2013-10-28 22:43:00,70.5,64.0,29.95,SE,136,11.0,11.0,80,0.00,,SKC,0.00,VWS V14.01,2013-10-29 03:43:00,
2013-10-28 22:44:00,70.5,64.0,29.95,SSE,159,10.0,15.0,80,0.00,,SKC,0.00,VWS V14.01,2013-10-29 03:44:00,
2013-10-28 22:45:00,70.4,63.9,29.95,SSE,148,9.0,12.0,80,0.00,,SKC,0.00,VWS V14.01,2013-10-29 03:45:00,
2013-10-28 22:46:00,70.4,63.9,29.95,SSE,164,5.0,13.0,80,0.00,,SKC,0.00,VWS V14.01,2013-10-29 03:46:00,
2013-10-28 22:47:00,69.0,61.9,29.97,South,172,15.0,15.0,78,0.00,,SKC,0.00,VWS V14.01,2013-10-29 03:47:00,
2013-10-28 22:48:00,70.3,63.8,29.95,SSE,167,9.0,15.0,80,0.00,,SKC,0.00,VWS V14.01,2013-10-29 03:48:00,
2013-10-28 22:49:00,70.2,63.8,29.95,SE,141,14.0,21.0,80,0.00,,SKC,0.00,VWS V14.01,2013-10-29 03:49:00,
2013-10-28 22:50:00,70.2,63.8,29.95,SSE,159,6.0,15.0,80,0.00,,SKC,0.00,VWS V14.01,2013-10-29 03:50:00,
2013-10-28 22:51:00,70.2,63.8,29.95,SSE,152,12.0,15.0,80,0.00,,SKC,0.00,VWS V14.01,2013-10-29 03:51:00,
2013-10-28 22:52:00,69.0,62.2,29.97,SSE,150,11.0,18.0,79,0.00,,SKC,0.00,VWS V14.01,2013-10-29 03:52:00,
2013-10-28 22:53:00,70.2,63.8,29.95,SE,145,12.0,13.0,80,0.00,,SKC,0.00,VWS V14.01,2013-10-29 03:53:00,
2013-10-28 22:54:00,70.2,63.8,29.95,SSE,150,9.0,14.0,80,0.00,,SKC,0.00,VWS V14.01,2013-10-29 03:54:00,
2013-10-28 22:55:00,70.2,63.4,29.95,SE,145,6.0,15.0,79,0.00,,SKC,0.00,VWS V14.01,2013-10-29 03:55:00,
2013-10-28 22:56:00,70.2,63.4,29.95,SSE,161,6.0,13.0,79,0.00,,SKC,0.00,VWS V14.01,2013-10-29 03:56:00,
2013-10-28 22:57:00,68.9,62.1,29.97,SSE,159,7.0,15.0,79,0.00,,SKC,0.00,VWS V14.01,2013-10-29 03:57:00,
2013-10-28 22:58:00,70.1,63.3,29.95,South,175,9.0,14.0,79,0.00,,SKC,0.00,VWS V14.01,2013-10-29 03:58:00,
2013-10-28 22:59:00,70.0,63.5,29.95,SSE,157,13.0,14.0,80,0.00,,SKC,0.00,VWS V14.01,2013-10-29 03:59:00,
2013-10-28 23:00:00,70.0,63.5,29.95,SSE,150,7.0,13.0,80,0.00,,SKC,0.00,VWS V14.01,2013-10-29 04:00:00,
2013-10-28 23:01:00,68.8,62.4,29.97,South,173,10.0,16.0,80,0.00,,SKC,0.00,VWS V14.01,2013-10-29 04:01:00,
2013-10-28 23:02:00,69.9,63.5,29.96,SSE,164,6.0,9.0,80,0.00,,SKC,0.00,VWS V14.01,2013-10-29 04:02:00,
2013-10-28 23:03:00,69.8,63.4,29.95,SSE,155,12.0,12.0,80,0.00,,SKC,0.00,VWS V14.01,2013-10-29 04:03:00,
2013-10-28 23:04:00,69.8,63.4,29.95,SE,129,9.0,16.0,80,0.00,,SKC,0.00,VWS V14.01,2013-10-29 04:04:00,
2013-10-28 23:05:00,69.8,63.4,29.95,SSE,155,12.0,13.0,80,0.00,,SKC,0.00,VWS V14.01,2013-10-29 04:05:00,
2013-10-28 23:06:00,68.6,62.2,29.97,SE,139,13.0,13.0,80,0.00,,SKC,0.00,VWS V14.01,2013-10-29 04:06:00,
2013-10-28 23:07:00,69.7,63.3,29.95,SSE,167,8.0,14.0,80,0.00,,SKC,0.00,VWS V14.01,2013-10-29 04:07:00,
2013-10-28 23:08:00,69.7,63.3,29.96,SSE,163,7.0,17.0,80,0.00,,SKC,0.00,VWS V14.01,2013-10-29 04:08:00,
2013-10-28 23:09:00,69.7,63.3,29.95,South,190,11.0,19.0,80,0.00,,SKC,0.00,VWS V14.01,2013-10-29 04:09:00,
2013-10-28 23:10:00,69.7,63.3,29.96,SE,141,9.0,12.0,80,0.00,,SKC,0.00,VWS V14.01,2013-10-29 04:10:00,
2013-10-28 23:11:00,68.5,62.5,29.97,SSE,159,9.0,10.0,81,0.00,,SKC,0.00,VWS V14.01,2013-10-29 04:11:00,
2013-10-28 23:12:00,69.7,63.3,29.95,South,169,14.0,17.0,80,0.00,,SKC,0.00,VWS V14.01,2013-10-29 04:12:00,
2013-10-28 23:13:00,69.7,62.9,29.96,SE,142,8.0,15.0,79,0.00,,SKC,0.00,VWS V14.01,2013-10-29 04:13:00,
2013-10-28 23:14:00,69.7,62.9,29.96,SSE,163,14.0,14.0,79,0.00,,SKC,0.00,VWS V14.01,2013-10-29 04:14:00,
2013-10-28 23:15:00,69.7,62.9,29.95,SSE,157,9.0,15.0,79,0.00,,SKC,0.00,VWS V14.01,2013-10-29 04:15:00,
2013-10-28 23:16:00,68.4,62.3,29.97,SE,145,6.0,10.0,81,0.00,,SKC,0.00,VWS V14.01,2013-10-29 04:16:00,
2013-10-28 23:17:00,69.6,62.8,29.96,South,172,7.0,11.0,79,0.00,,SKC,0.00,VWS V14.01,2013-10-29 04:17:00,
2013-10-28 23:18:00,69.6,62.8,29.96,SSE,155,10.0,14.0,79,0.00,,SKC,0.00,VWS V14.01,2013-10-29 04:18:00,
2013-10-28 23:19:00,69.6,62.8,29.96,SSE,153,10.0,10.0,79,0.00,,SKC,0.00,VWS V14.01,2013-10-29 04:19:00,
2013-10-28 23:20:00,69.5,62.7,29.96,South,172,5.0,11.0,79,0.00,,SKC,0.00,VWS V14.01,2013-10-29 04:20:00,
2013-10-28 23:21:00,68.2,62.2,29.97,South,171,7.0,8.0,81,0.00,,SKC,0.00,VWS V14.01,2013-10-29 04:21:00,
2013-10-28 23:22:00,69.5,62.7,29.96,South,186,11.0,11.0,79,0.00,,SKC,0.00,VWS V14.01,2013-10-29 04:22:00,
2013-10-28 23:23:00,69.4,62.6,29.96,SSE,161,13.0,13.0,79,0.00,,SKC,0.00,VWS V14.01,2013-10-29 04:23:00,
2013-10-28 23:24:00,69.4,62.6,29.96,SSE,159,7.0,13.0,79,0.00,,SKC,0.00,VWS V14.01,2013-10-29 04:24:00,
2013-10-28 23:25:00,69.4,62.6,29.96,SSE,155,7.0,13.0,79,0.00,,SKC,0.00,VWS V14.01,2013-10-29 04:25:00,
2013-10-28 23:26:00,68.1,62.1,29.97,SSE,159,15.0,15.0,81,0.00,,SKC,0.00,VWS V14.01,2013-10-29 04:26:00,
2013-10-28 23:27:00,69.4,62.6,29.96,SSE,150,7.0,15.0,79,0.00,,SKC,0.00,VWS V14.01,2013-10-29 04:27:00,
2013-10-28 23:28:00,69.4,62.6,29.96,SSE,167,7.0,13.0,79,0.00,,SKC,0.00,VWS V14.01,2013-10-29 04:28:00,
2013-10-28 23:29:00,69.4,62.6,29.96,SSE,159,9.0,16.0,79,0.00,,SKC,0.00,VWS V14.01,2013-10-29 04:29:00,
2013-10-28 23:30:00,69.4,62.2,29.96,SSE,151,6.0,13.0,78,0.00,,SKC,0.00,VWS V14.01,2013-10-29 04:30:00,
2013-10-28 23:31:00,68.1,62.1,29.97,SE,134,12.0,15.0,81,0.00,,SKC,0.00,VWS V14.01,2013-10-29 04:31:00,
2013-10-28 23:32:00,69.4,62.2,29.96,South,175,8.0,11.0,78,0.00,,SKC,0.00,VWS V14.01,2013-10-29 04:32:00,
2013-10-28 23:33:00,69.3,62.2,29.96,SSE,165,7.0,15.0,78,0.00,,SKC,0.00,VWS V14.01,2013-10-29 04:33:00,
2013-10-28 23:34:00,69.3,62.2,29.96,South,176,7.0,13.0,78,0.00,,SKC,0.00,VWS V14.01,2013-10-29 04:34:00,
2013-10-28 23:35:00,69.3,62.2,29.96,SE,144,9.0,16.0,78,0.00,,SKC,0.00,VWS V14.01,2013-10-29 04:35:00,
2013-10-28 23:36:00,68.0,62.0,29.97,South,172,10.0,14.0,81,0.00,,SKC,0.00,VWS V14.01,2013-10-29 04:36:00,
2013-10-28 23:37:00,69.3,62.2,29.96,SE,142,10.0,11.0,78,0.00,,SKC,0.00,VWS V14.01,2013-10-29 04:37:00,
2013-10-28 23:38:00,69.2,62.1,29.96,SSE,153,7.0,13.0,78,0.00,,SKC,0.00,VWS V14.01,2013-10-29 04:38:00,
2013-10-28 23:39:00,69.2,62.1,29.96,SSW,197,7.0,13.0,78,0.00,,SKC,0.00,VWS V14.01,2013-10-29 04:39:00,
2013-10-28 23:40:00,69.2,62.1,29.97,SSE,157,5.0,13.0,78,0.00,,SKC,0.00,VWS V14.01,2013-10-29 04:40:00,
2013-10-28 23:41:00,67.9,62.2,29.97,South,179,6.0,9.0,82,0.00,,SKC,0.00,VWS V14.01,2013-10-29 04:41:00,
2013-10-28 23:42:00,69.1,62.0,29.97,SSE,163,7.0,11.0,78,0.00,,SKC,0.00,VWS V14.01,2013-10-29 04:42:00,
2013-10-28 23:43:00,69.0,61.9,29.97,SSE,164,11.0,12.0,78,0.00,,SKC,0.00,VWS V14.01,2013-10-29 04:43:00,
2013-10-28 23:44:00,69.0,61.9,29.97,SSE,165,6.0,14.0,78,0.00,,SKC,0.00,VWS V14.01,2013-10-29 04:44:00,
2013-10-28 23:45:00,69.0,61.9,29.97,South,172,15.0,15.0,78,0.00,,SKC,0.00,VWS V14.01,2013-10-29 04:45:00,
2013-10-28 23:46:00,67.8,62.1,29.97,SSE,157,10.0,13.0,82,0.00,,SKC,0.00,VWS V14.01,2013-10-29 04:46:00,
2013-10-28 23:47:00,69.0,62.2,29.97,South,181,14.0,14.0,79,0.00,,SKC,0.00,VWS V14.01,2013-10-29 04:47:00,
2013-10-28 23:48:00,69.0,62.2,29.97,SE,139,12.0,14.0,79,0.00,,SKC,0.00,VWS V14.01,2013-10-29 04:48:00,
2013-10-28 23:49:00,69.0,62.2,29.97,SSE,160,6.0,12.0,79,0.00,,SKC,0.00,VWS V14.01,2013-10-29 04:49:00,
2013-10-28 23:50:00,69.0,62.2,29.97,SSE,150,11.0,18.0,79,0.00,,SKC,0.00,VWS V14.01,2013-10-29 04:50:00,
2013-10-28 23:51:00,67.7,62.0,29.97,South,176,8.0,9.0,82,0.00,,SKC,0.00,VWS V14.01,2013-10-29 04:51:00,
2013-10-28 23:52:00,68.9,62.1,29.97,SSE,161,10.0,13.0,79,0.00,,SKC,0.00,VWS V14.01,2013-10-29 04:52:00,
2013-10-28 23:53:00,68.9,62.1,29.97,SSE,148,13.0,14.0,79,0.00,,SKC,0.00,VWS V14.01,2013-10-29 04:53:00,
2013-10-28 23:54:00,68.9,62.1,29.97,SSE,158,7.0,13.0,79,0.00,,SKC,0.00,VWS V14.01,2013-10-29 04:54:00,
2013-10-28 23:55:00,68.9,62.1,29.97,SSE,159,7.0,15.0,79,0.00,,SKC,0.00,VWS V14.01,2013-10-29 04:55:00,
2013-10-28 23:56:00,67.6,62.3,29.97,SE,138,7.0,7.0,83,0.00,,SKC,0.00,VWS V14.01,2013-10-29 04:56:00,
2013-10-28 23:57:00,68.8,62.4,29.97,South,173,6.0,17.0,80,0.00,,SKC,0.00,VWS V14.01,2013-10-29 04:57:00,
2013-10-28 23:58:00,68.8,62.4,29.97,SSE,167,10.0,10.0,80,0.00,,SKC,0.00,VWS V14.01,2013-10-29 04:58:00,
2013-10-28 23:59:00,68.8,62.4,29.97,SSE,147,10.0,16.0,80,0.00,,SKC,0.00,VWS V14.01,2013-10-29 04:59:00,